ftp/pub/palmer/observations_modified/2019/September/AR190909_BASE.txt
Download
Sample DateTime Unit Id WS Avg 2min WD Avg 2min WGS 10min WGD 10min Air Temp Rel Humidity Dew Point Pyranometer Quantum Air Pressure Snow Level Rainfall PW Current Visibility CBase 1 CBase 2 CBase 3 Vert Vis
2019/09/09 00:00:00 BASE 2.95764 12 3.234 20 -9.2 57 -16.2 0 0 991.4 NA 0.0000 9999 6660 0 0
2019/09/09 00:01:00 BASE 3.25164 11 4.08072 20 -9.2 58 -16.0 0 0 991.4 NA 0.0000 9999 6590 0 0
2019/09/09 00:02:00 BASE 3.36924 12 4.08072 20 -9.2 58 -15.9 0 0 991.4 NA 0.0000 9999 6500 0 0
2019/09/09 00:03:00 BASE 3.0282 18 4.08072 20 -9.2 59 -15.8 0 0 991.4 NA 0.0000 9999 6330 0 0
2019/09/09 00:04:00 BASE 2.86944 24 4.08072 20 -9.2 59 -15.7 0 0 991.5 NA 0.0000 9999 6200 0 0
2019/09/09 00:05:00 BASE 2.84004 25 4.08072 20 -9.2 60 -15.6 0 0 991.5 NA 0.0000 9999 6070 0 0
2019/09/09 00:06:00 BASE 2.793 23 4.08072 20 -9.2 60 -15.5 0 0 991.5 NA 0.0000 9999 5940 0 0
2019/09/09 00:07:00 BASE 2.71656 25 4.08072 20 -9.2 60 -15.5 0 0 991.6 NA 0.0000 9999 5710 0 0
2019/09/09 00:08:00 BASE 2.84004 29 4.08072 20 -9.2 60 -15.5 0 0 991.6 NA 0.0000 9999 5510 0 0
2019/09/09 00:09:00 BASE 2.94 33 4.08072 20 -9.2 60 -15.5 0 0 991.7 NA 0.0000 9999 5320 0 0
2019/09/09 00:10:00 BASE 2.7342 40 4.08072 20 -9.1 60 -15.4 0 0 991.8 NA 0.0000 9999 5250 0 0
2019/09/09 00:11:00 BASE 2.4108 48 3.53976 9 -9.1 60 -15.4 0 0 991.9 NA 0.0000 9999 5540 0 0
2019/09/09 00:12:00 BASE 2.35788 57 3.48096 31 -9.2 61 -15.4 0 0 992.0 NA 0.0000 9999 5740 0 0
2019/09/09 00:13:00 BASE 2.5578 55 3.48096 31 -9.3 61 -15.4 0 0 992.0 NA 0.0000 9999 5680 0 0
2019/09/09 00:14:00 BASE 2.48724 52 3.48096 31 -9.4 62 -15.4 0 0 992.1 NA 0.0000 9999 5770 0 0
2019/09/09 00:15:00 BASE 2.56956 51 3.48096 31 -9.5 63 -15.4 0 0 992.1 NA 0.0000 9999 5810 0 0
2019/09/09 00:16:00 BASE 2.68128 52 3.48096 31 -9.6 63 -15.3 0 0 992.0 NA 0.0000 9999 5710 0 0
2019/09/09 00:17:00 BASE 2.54604 52 3.48096 31 -9.6 64 -15.1 0 0 992.0 NA 0.0000 9999 5540 0 0
2019/09/09 00:18:00 BASE 2.62248 47 3.1458 31 -9.6 65 -14.9 0 0 991.9 NA 0.0000 9999 3610 0 0
2019/09/09 00:19:00 BASE 2.83416 43 3.35748 47 -9.5 65 -14.8 0 0 991.8 NA 0.0000 9999 3380 0 0
2019/09/09 00:20:00 BASE 2.78124 42 3.35748 47 -9.3 65 -14.6 0 0 991.7 NA 0.0000 9999 3080 0 0
2019/09/09 00:21:00 BASE 2.75772 39 3.35748 47 -9.3 65 -14.6 0 0 991.6 NA 0.0000 9999 3050 0 0
2019/09/09 00:22:00 BASE 2.90472 36 3.41628 32 -9.2 65 -14.5 0 0 991.6 NA 0.0000 9999 3020 0 0
2019/09/09 00:23:00 BASE 2.98116 35 3.48096 36 -9.2 66 -14.5 0 0 991.6 NA 0.0000 9999 2920 0 0
2019/09/09 00:24:00 BASE 3.18696 38 3.59856 43 -9.2 66 -14.4 0 0 991.6 NA 0.0000 9999 3250 0 0
2019/09/09 00:25:00 BASE 3.4104 43 3.59856 43 -9.2 66 -14.4 0 0 991.7 NA 0.0000 9999 3180 0 0
2019/09/09 00:26:00 BASE 3.25752 41 3.59856 43 -9.2 66 -14.3 0 0 991.7 NA 0.0000 9999 2790 3870 0
2019/09/09 00:27:00 BASE 3.09876 41 3.59856 43 -9.2 66 -14.3 0 0 991.7 NA 0.0000 9999 2720 0 0
2019/09/09 00:28:00 BASE 3.1752 44 3.59856 43 -9.2 66 -14.3 0 0 991.7 NA 0.0000 9999 6040 0 0
2019/09/09 00:29:00 BASE 3.10464 43 3.59856 43 -9.2 66 -14.3 0 0 991.8 NA 0.0000 9999 3050 0 0
2019/09/09 00:30:00 BASE 2.93412 44 3.59856 43 -9.2 67 -14.2 0 0 991.7 NA 0.0000 9999 2920 0 0
2019/09/09 00:31:00 BASE 2.97528 44 3.59856 43 -9.2 67 -14.2 0 0 991.7 NA 0.0000 9999 2590 0 0
2019/09/09 00:32:00 BASE 3.15168 43 3.59856 43 -9.2 68 -14.1 0 0 991.6 NA 0.0000 9999 2430 0 0
2019/09/09 00:33:00 BASE 3.34572 41 3.59856 43 -9.3 68 -14.0 0 0 991.6 NA 0.0000 9999 2400 0 0
2019/09/09 00:34:00 BASE 3.35748 42 3.56916 41 -9.3 69 -13.9 0 0 991.6 NA 0.0000 9999 2360 0 0
2019/09/09 00:35:00 BASE 3.22812 44 3.56916 41 -9.3 69 -13.9 0 0 991.6 NA 0.0000 9999 2400 0 0
2019/09/09 00:36:02 BASE 3.21048 47 3.56916 41 -9.3 70 -13.8 0 0 M NA 0.0000 9999 2400 0 0
2019/09/09 00:37:00 BASE 3.02232 47 3.56916 41 -9.2 70 -13.6 0 0 991.7 NA 0.0000 9999 2300 0 0
2019/09/09 00:38:00 BASE 2.89296 45 3.56916 41 -9.1 71 -13.4 0 0 991.7 NA 0.0000 9999 5380 0 0
2019/09/09 00:39:00 BASE 2.7636 45 3.56916 41 -9.1 72 -13.3 0 0 991.8 NA 0.0000 9999 5280 0 0
2019/09/09 00:40:00 BASE 2.5284 47 3.56916 41 -9.0 72 -13.1 0 0 991.8 NA 0.0000 9999 5320 0 0
2019/09/09 00:41:00 BASE 2.30496 42 3.56916 41 -8.9 73 -12.9 0 0 991.8 NA 0.0000 9999 5280 0 0
2019/09/09 00:42:00 BASE 1.9698 41 3.56916 41 -8.9 73 -12.8 0 0 991.8 NA 0.0000 9999 5220 0 0
2019/09/09 00:43:00 BASE 1.80516 45 3.41628 43 -8.8 74 -12.7 0 0 991.7 NA 0.0000 9999 5180 0 0
2019/09/09 00:44:00 BASE 2.25204 42 3.38688 47 -8.8 74 -12.6 0 0 991.6 NA 0.0000 9999 5220 0 0
2019/09/09 00:45:00 BASE 2.49312 36 3.35748 49 -8.7 74 -12.4 0 0 991.6 NA 0.0000 9999 5180 0 0
2019/09/09 00:46:00 BASE 2.2932 35 3.2046 40 -8.7 75 -12.3 0 0 991.6 NA 0.0000 9999 5150 0 0
2019/09/09 00:47:00 BASE 1.97568 44 3.2046 40 -8.6 75 -12.2 0 0 991.6 NA 0.0000 9999 5180 0 0
2019/09/09 00:48:00 BASE 1.43472 51 2.96352 45 -8.5 75 -12.2 0 0 991.7 NA 0.0000 9999 0 0 0
2019/09/09 00:49:00 BASE 1.02312 48 2.87532 31 -8.5 75 -12.1 0 0 991.8 NA 0.0000 9999 5280 0 0
2019/09/09 00:50:00 BASE 0.81144 40 2.87532 31 -8.4 75 -12.0 0 0 991.8 NA 0.0000 9999 3050 0 0
2019/09/09 00:51:00 BASE 0.75852 33 2.87532 31 -8.4 76 -11.9 0 0 991.9 NA 0.0000 9999 2620 0 0
2019/09/09 00:52:00 BASE 0.9702 39 2.87532 31 -8.3 76 -11.8 0 0 992.0 NA 0.0000 9999 2490 0 0
2019/09/09 00:53:00 BASE 1.13484 47 2.87532 31 -8.2 76 -11.7 0 0 992.0 NA 0.0000 9999 2400 0 0
2019/09/09 00:54:00 BASE 0.94668 50 2.75184 40 -8.1 76 -11.6 0 0 992.0 NA 0.0000 9999 2330 0 0
2019/09/09 00:55:00 BASE 0.9996 71 2.75184 40 -8.1 76 -11.6 0 0 992.0 NA 0.0000 9999 2130 0 0
2019/09/09 00:56:00 BASE 1.1172 89 1.93452 47 -8.2 76 -11.7 0 0 992.0 NA 0.0000 9999 2030 0 0
2019/09/09 00:57:00 BASE 0.94668 92 1.48176 41 -8.2 76 -11.7 0 0 992.0 NA 0.0000 9999 2070 0 0
2019/09/09 00:58:00 BASE 0.94668 94 1.48176 41 -8.2 76 -11.7 0 0 992.0 NA 0.0000 9999 2030 0 0
2019/09/09 00:59:00 BASE 1.06428 94 1.48176 41 -8.2 76 -11.7 0 0 992.0 NA 0.0000 9999 2030 0 0
2019/09/09 01:00:00 BASE 1.09956 96 1.48176 41 -8.2 76 -11.6 0 0 992.0 NA 0.0000 9999 2030 0 0
2019/09/09 01:01:00 BASE 1.12308 94 1.48176 41 -8.1 76 -11.6 0 0 992.0 NA 0.0000 9999 2100 0 0
2019/09/09 01:02:00 BASE 1.1466 83 1.48176 41 -8.1 76 -11.5 0 0 991.9 NA 0.0000 9999 750 0 0
2019/09/09 01:03:00 BASE 1.04076 84 1.35828 96 -8.0 76 -11.5 0 0 991.9 NA 0.0000 9999 750 0 0
2019/09/09 01:04:00 BASE 1.05252 90 1.35828 96 -8.0 76 -11.5 0 0 992.0 NA 0.0000 9999 720 0 0
2019/09/09 01:05:00 BASE 1.05252 88 1.32888 85 -8.0 76 -11.4 0 0 992.0 NA 0.0000 9999 2170 0 0
2019/09/09 01:06:00 BASE 0.9702 84 1.32888 85 -7.9 76 -11.4 0 0 992.0 NA 0.0000 -SN 9999 2170 0
2019/09/09 01:07:00 BASE 0.74088 77 1.32888 85 -7.9 76 -11.4 0 0 992.0 NA 0.0000 -SN 9999 590 0
2019/09/09 01:08:00 BASE 0.24696 83 1.32888 85 -7.8 76 -11.3 0 0 992.0 NA 0.0000 -SN 9999 0 0
2019/09/09 01:09:00 BASE 0 109 1.32888 85 -7.8 76 -11.3 0 0 992.1 NA 0.0000 -SN 9999 0 0
2019/09/09 01:10:00 BASE 0.42336 115 1.32888 85 -7.8 76 -11.3 0 0 992.1 NA 0.0000 -SN 9999 660 0
2019/09/09 01:11:00 BASE 0.9114 102 1.32888 85 -7.8 76 -11.4 0 0 992.1 NA 0.0000 -SN 9999 620 0
2019/09/09 01:12:00 BASE 0.87612 85 1.32888 85 -7.9 76 -11.4 0 0 992.0 NA 0.0000 -SN 9999 1410 0
2019/09/09 01:13:00 BASE 0.77616 67 1.32888 85 -7.9 76 -11.5 0 0 992.0 NA 0.0000 -SN 9999 1310 0
2019/09/09 01:14:00 BASE 0.44688 60 1.18188 83 -8.0 76 -11.5 0 0 991.9 NA 0.0000 -SN 9000 1280 0
2019/09/09 01:15:00 BASE 0.0588 56 1.1466 103 -8.0 76 -11.4 0 0 991.8 NA 0.0000 -SN 9000 1280 0
2019/09/09 01:16:00 BASE 0.294 52 1.1466 103 -7.9 77 -11.3 0 0 991.8 NA 0.0000 -SN 9000 1210 0
2019/09/09 01:17:00 BASE 0.6762 46 1.1466 103 -7.9 77 -11.2 0 0 991.8 NA 0.0000 -SN 9000 1150 0
2019/09/09 01:18:00 BASE 0.84084 38 1.1466 103 -7.9 77 -11.2 0 0 991.8 NA 0.0000 -SN 9999 1080 0
2019/09/09 01:19:00 BASE 1.27596 31 2.21088 21 -7.9 77 -11.2 0 0 991.8 NA 0.0000 -SN 9999 1080 0
2019/09/09 01:20:00 BASE 1.72872 24 2.21088 21 -7.9 77 -11.2 0 0 991.8 NA 0.0000 -SN 9999 1120 0
2019/09/09 01:21:00 BASE 1.75224 29 2.21088 21 -7.9 78 -11.1 0 0 991.8 NA 0.0000 -SN 9999 1210 0
2019/09/09 01:22:00 BASE 1.54056 26 2.21088 21 -8.0 78 -11.1 0 0 991.9 NA 0.0000 -SN 9999 1120 0
2019/09/09 01:23:00 BASE 1.46412 15 2.21088 21 -7.9 79 -11.0 0 0 991.9 NA 0.0000 -SN 9999 1180 0
2019/09/09 01:24:00 BASE 1.55232 7 2.21088 21 -7.9 79 -10.9 0 0 991.8 NA 0.0000 -SN 9999 1150 0
2019/09/09 01:25:00 BASE 1.62288 354 2.21088 21 -7.8 80 -10.8 0 0 991.9 NA 0.0000 -SN 9999 1180 0
2019/09/09 01:26:00 BASE 1.48176 336 2.21088 21 -7.8 80 -10.7 0 0 992.0 NA 0.0000 -SN 9999 1210 0
2019/09/09 01:27:00 BASE 1.22304 331 2.21088 21 -7.8 80 -10.6 0 0 992.0 NA 0.0000 9999 1180 0 0
2019/09/09 01:28:00 BASE 1.02312 334 2.21088 21 -7.7 81 -10.5 0 0 992.0 NA 0.0000 9999 0 0 0
2019/09/09 01:29:00 BASE 0.9408 335 2.0286 33 -7.7 81 -10.5 0 0 992.0 NA 0.0000 9999 2000 0 0
2019/09/09 01:30:00 BASE 0.88788 337 1.84632 10 -7.7 81 -10.4 0 0 992.0 NA 0.0000 9999 1900 0 0
2019/09/09 01:31:00 BASE 0.81144 339 1.84632 10 -7.7 81 -10.4 0 0 992.0 NA 0.0000 9999 1020 0 0
2019/09/09 01:32:00 BASE 0.68796 332 1.84632 10 -7.7 81 -10.3 0 0 992.0 NA 0.0000 9999 1050 0 0
2019/09/09 01:33:00 BASE 0.43512 320 1.78752 345 -7.7 81 -10.3 0 0 992.0 NA 0.0000 9999 0 0 0
2019/09/09 01:34:00 BASE 0.441 323 1.78752 345 -7.7 82 -10.3 0 0 992.0 NA 0.0000 9999 850 0 0
2019/09/09 01:35:00 BASE 0.3528 328 1.54056 335 -7.6 82 -10.2 0 0 992.0 NA 0.0000 9999 850 0 0
2019/09/09 01:36:00 BASE 0.22932 315 1.21128 337 -7.6 82 -10.2 0 0 992.0 NA 0.0000 9999 1970 0 0
2019/09/09 01:37:00 BASE 0.63504 305 1.1172 330 -7.6 82 -10.2 0 0 992.0 NA 0.0000 9999 790 0 0
2019/09/09 01:38:00 BASE 0.9702 304 1.1172 330 -7.6 82 -10.2 0 0 992.0 NA 0.0000 9999 750 0 0
2019/09/09 01:39:00 BASE 1.05252 304 1.29948 307 -7.6 82 -10.1 0 0 992.0 NA 0.0000 9999 1150 3050 0
2019/09/09 01:40:00 BASE 1.04664 304 1.29948 307 -7.6 82 -10.1 0 0 992.0 NA 0.0000 9999 720 0 0
2019/09/09 01:41:00 BASE 1.0878 310 1.35828 321 -7.6 83 -10.1 0 0 992.0 NA 0.0000 9999 750 0 0
2019/09/09 01:42:00 BASE 1.05252 318 1.35828 321 -7.6 83 -10.1 0 0 992.0 NA 0.0000 9999 1440 0 0
2019/09/09 01:43:00 BASE 0.92316 321 1.35828 321 -7.6 83 -10.0 0 0 992.0 NA 0.0000 9999 1350 2330 0
2019/09/09 01:44:00 BASE 0.94668 322 1.35828 321 -7.6 83 -10.0 0 0 992.0 NA 0.0000 9999 1310 2230 0
2019/09/09 01:45:00 BASE 1.029 330 1.35828 321 -7.6 83 -10.0 0 0 992.0 NA 0.0000 9999 1210 2260 0
2019/09/09 01:46:00 BASE 1.04076 328 1.35828 321 -7.6 84 -9.9 0 0 992.0 NA 0.0000 9999 1210 2260 0
2019/09/09 01:47:00 BASE 1.05252 316 1.35828 321 -7.6 84 -9.9 0 0 992.0 NA 0.0000 9999 1280 0 0
2019/09/09 01:48:00 BASE 1.11132 316 1.35828 306 -7.6 84 -9.8 0 0 992.0 NA 0.0000 9999 1250 2330 0
2019/09/09 01:49:00 BASE 1.24656 323 1.78752 332 -7.6 84 -9.8 0 0 992.0 NA 0.0000 9999 1210 2330 0
2019/09/09 01:50:00 BASE 1.35828 336 1.78752 332 -7.6 84 -9.8 0 0 992.0 NA 0.0000 9999 1080 2330 0
2019/09/09 01:51:00 BASE 1.54644 349 2.1462 5 -7.5 84 -9.7 0 0 992.0 NA 0.0000 9999 1120 2230 0
2019/09/09 01:52:00 BASE 1.71108 3 2.24028 9 -7.5 85 -9.6 0 0 992.0 NA 0.0000 9999 1020 0 0
2019/09/09 01:53:00 BASE 1.58172 19 2.24028 9 -7.4 85 -9.5 0 0 992.0 NA 0.0000 9999 920 0 0
2019/09/09 01:54:00 BASE 1.5876 31 2.24028 9 -7.3 85 -9.4 0 0 992.0 NA 0.0000 9999 1150 0 0
2019/09/09 01:55:00 BASE 1.89336 33 2.42256 38 -7.2 85 -9.3 0 0 991.9 NA 0.0000 9999 1080 0 0
2019/09/09 01:56:00 BASE 2.28732 30 2.56956 27 -7.2 85 -9.3 0 0 991.8 NA 0.0000 9999 820 0 0
2019/09/09 01:57:00 BASE 2.38728 27 2.56956 27 -7.2 85 -9.2 0 0 991.8 NA 0.0000 9999 1050 0 0
2019/09/09 01:58:00 BASE 2.52252 23 2.96352 19 -7.2 86 -9.2 0 0 991.7 NA 0.0000 -SN 9999 0 0
2019/09/09 01:59:00 BASE 2.77536 18 3.087 12 -7.2 86 -9.1 0 0 991.7 NA 0.0000 -SN 9999 0 0
2019/09/09 02:00:00 BASE 2.71656 20 3.087 12 -7.1 86 -9.1 0 0 991.8 NA 0.0000 -SN 9999 0 0
2019/09/09 02:01:00 BASE 2.74596 26 3.26928 25 -7.1 86 -9.0 0 0 991.7 NA 0.0000 -SN 9999 0 0
2019/09/09 02:02:00 BASE 2.84592 29 3.26928 25 -7.1 86 -9.0 0 0 991.7 NA 0.0000 -SN 9999 0 0
2019/09/09 02:03:00 BASE 2.75184 27 3.26928 25 -7.0 86 -9.0 0 0 991.7 NA 0.0000 -SN 9999 0 0
2019/09/09 02:04:00 BASE 2.84592 23 3.29868 21 -7.0 86 -8.9 0 0 991.7 NA 0.0000 -SN 9999 0 0
2019/09/09 02:05:00 BASE 2.9694 21 3.41628 19 -7.0 87 -8.9 0 0 991.7 NA 0.0000 -SN 9999 0 0
2019/09/09 02:06:00 BASE 2.76948 17 3.41628 19 -6.9 87 -8.8 0 0 991.7 NA 0.0000 -SN 9999 0 0
2019/09/09 02:07:00 BASE 2.34024 7 3.41628 19 -6.9 87 -8.7 0 0 991.7 NA 0.0000 -SN 9999 0 0
2019/09/09 02:08:00 BASE 2.13444 2 3.41628 19 -6.8 87 -8.6 0 0 991.7 NA 0.0000 -SN 9999 0 0
2019/09/09 02:09:00 BASE 2.2344 3 3.41628 19 -6.7 87 -8.5 0 0 991.7 NA 0.0000 -SN 9999 0 0
2019/09/09 02:10:00 BASE 2.1462 8 3.41628 19 -6.7 87 -8.5 0 0 991.7 NA 0.0000 -SN 9999 0 0
2019/09/09 02:11:00 BASE 1.96392 7 3.41628 19 -6.7 87 -8.5 0 0 991.7 NA 0.0000 -SN 9999 0 0
2019/09/09 02:12:00 BASE 2.1462 3 3.41628 19 -6.6 87 -8.4 0 0 991.8 NA 0.0000 -SN 9999 0 0
2019/09/09 02:13:00 BASE 2.43432 11 3.41628 19 -6.6 87 -8.4 0 0 991.8 NA 0.0000 -SN 9999 0 0
2019/09/09 02:14:00 BASE 2.92824 16 3.90432 15 -6.7 87 -8.5 0 0 991.8 NA 0.0000 -SN 9999 0 0
2019/09/09 02:15:00 BASE 3.3222 13 3.90432 15 -6.7 87 -8.5 0 0 991.8 NA 0.0000 -SN 9999 0 0
2019/09/09 02:16:00 BASE 3.21048 8 3.90432 15 -6.7 87 -8.5 0 0 991.8 NA 0.0000 -SN 9999 0 0
2019/09/09 02:17:00 BASE 3.22812 9 3.90432 15 -6.7 87 -8.5 0 0 991.8 NA 0.0000 -SN 9999 0 0
2019/09/09 02:18:00 BASE 3.28104 14 3.90432 15 -6.7 87 -8.4 0 0 991.7 NA 0.0000 -SN 9999 0 0
2019/09/09 02:19:00 BASE 3.22812 10 3.90432 15 -6.6 87 -8.4 0 0 991.7 NA 0.0000 -SN 9999 0 0
2019/09/09 02:20:00 BASE 3.39276 8 3.90432 15 -6.6 88 -8.3 0 0 991.7 NA 0.0000 -SN 9999 0 0
2019/09/09 02:21:00 BASE 3.45156 10 3.90432 15 -6.6 88 -8.3 0 0 991.7 NA 0.0000 -SN 9999 0 0
2019/09/09 02:22:00 BASE 2.97528 10 3.90432 15 -6.6 88 -8.2 0 0 991.7 NA 0.0000 -SN 9999 0 0
2019/09/09 02:23:00 BASE 2.66364 13 3.90432 15 -6.5 88 -8.2 0 0 991.7 NA 0.0000 9999 0 0 0
2019/09/09 02:24:00 BASE 3.0282 20 4.50996 20 -6.5 88 -8.2 0 0 991.7 NA 0.0000 9999 0 0 0
2019/09/09 02:25:00 BASE 3.55152 23 4.50996 20 -6.5 88 -8.1 0 0 991.6 NA 0.0000 9999 0 0 0
2019/09/09 02:26:00 BASE 3.92196 17 4.50996 20 -6.5 88 -8.1 0 0 991.6 NA 0.0000 -SN 9999 0 0
2019/09/09 02:27:00 BASE 4.12188 13 4.50996 20 -6.4 88 -8.0 0 0 991.6 NA 0.0000 -SN 9999 0 0
2019/09/09 02:28:00 BASE 4.2336 13 5.08032 9 -6.4 89 -7.9 0 0 991.6 NA 0.0000 -SN 9999 0 0
2019/09/09 02:29:00 BASE 4.22772 14 5.08032 9 -6.4 89 -7.9 0 0 991.6 NA 0.0000 -SN 9999 0 0
2019/09/09 02:30:00 BASE 4.34532 11 5.08032 9 -6.3 89 -7.9 0 0 991.6 NA 0.0000 -SN 9999 2200 0
2019/09/09 02:31:00 BASE 4.29828 3 5.08032 9 -6.3 89 -7.8 0 0 991.6 NA 0.0000 -SN 9999 2170 0
2019/09/09 02:32:00 BASE 4.08072 2 5.08032 9 -6.3 89 -7.8 0 0 991.6 NA 0.0000 -SN 9999 0 0
2019/09/09 02:33:00 BASE 4.16892 359 5.08032 9 -6.3 89 -7.8 0 0 991.6 NA 0.0000 -SN 9999 0 0
2019/09/09 02:34:00 BASE 4.11012 351 5.08032 9 -6.3 89 -7.8 0 0 991.7 NA 0.0000 -SN 9999 0 0
2019/09/09 02:35:00 BASE 3.66912 341 5.08032 9 -6.3 89 -7.8 0 0 991.7 NA 0.0000 -SN 9999 2230 0
2019/09/09 02:36:00 BASE 3.16932 341 5.08032 9 -6.3 89 -7.8 0 0 991.7 NA 0.0000 -SN 9999 1180 0
2019/09/09 02:37:00 BASE 3.35748 350 5.08032 9 -6.2 89 -7.7 0 0 991.7 NA 0.0000 9999 2000 0 0
2019/09/09 02:38:00 BASE 3.75732 356 5.02152 5 -6.2 89 -7.7 0 0 991.7 NA 0.0000 9999 0 0 0
2019/09/09 02:39:00 BASE 4.07484 358 5.02152 5 -6.2 89 -7.7 0 0 991.7 NA 0.0000 9999 0 0 0
2019/09/09 02:40:00 BASE 4.3218 360 4.89804 291 -6.2 89 -7.7 0 0 991.7 NA 0.0000 9999 360 0 0
2019/09/09 02:41:00 BASE 4.18068 357 4.89804 291 -6.2 89 -7.7 0 0 991.7 NA 0.0000 9999 390 0 0
2019/09/09 02:42:00 BASE 3.969 348 4.89804 291 -6.2 89 -7.7 0 0 991.7 NA 0.0000 9999 0 0 0
2019/09/09 02:43:00 BASE 3.77496 347 4.89804 291 -6.2 89 -7.7 0 0 991.7 NA 0.0000 9999 0 0 0
2019/09/09 02:44:00 BASE 3.4986 348 4.89804 291 -6.2 89 -7.7 0 0 991.7 NA 0.0000 9999 330 0 0
2019/09/09 02:45:00 BASE 3.30456 347 4.89804 291 -6.2 89 -7.7 0 0 991.7 NA 0.0000 9999 0 0 0
2019/09/09 02:46:00 BASE 3.39864 346 4.89804 291 -6.2 89 -7.7 0 0 991.7 NA 0.0000 9999 360 0 0
2019/09/09 02:47:00 BASE 3.53388 348 4.89804 291 -6.2 90 -7.6 0 0 991.7 NA 0.0000 9999 0 0 0
2019/09/09 02:48:00 BASE 3.63384 345 4.89804 291 -6.2 90 -7.6 0 0 991.6 NA 0.0000 9999 360 0 0
2019/09/09 02:49:00 BASE 3.53388 339 4.65696 1 -6.2 90 -7.5 0 0 991.6 NA 0.0000 9999 360 0 0
2019/09/09 02:50:00 BASE 3.51036 337 4.41588 351 -6.2 90 -7.5 0 0 991.6 NA 0.0000 9999 330 0 0
2019/09/09 02:51:00 BASE 3.63384 335 4.1454 346 -6.2 91 -7.5 0 0 991.6 NA 0.0000 9999 390 0 0
2019/09/09 02:52:00 BASE 3.85728 339 4.96272 352 -6.2 91 -7.5 0 0 991.5 NA 0.0000 9999 360 0 0
2019/09/09 02:53:00 BASE 4.05132 350 4.96272 352 -6.2 91 -7.4 0 0 991.5 NA 0.0000 9999 390 0 0
2019/09/09 02:54:00 BASE 3.98664 355 4.96272 352 -6.2 91 -7.4 0 0 991.5 NA 0.0000 9999 330 0 0
2019/09/09 02:55:00 BASE 4.00428 350 4.96272 352 -6.2 92 -7.3 0 0 991.5 NA 0.0000 9999 390 0 0
2019/09/09 02:56:00 BASE 4.26888 346 5.02152 340 -6.2 92 -7.3 0 0 991.5 NA 0.0000 9999 360 0 0
2019/09/09 02:57:00 BASE 4.39236 344 5.02152 340 -6.2 92 -7.3 0 0 991.5 NA 0.0000 9999 390 2070 0
2019/09/09 02:58:00 BASE 4.40412 344 5.02152 340 -6.2 92 -7.3 0 0 991.4 NA 0.0000 9999 0 0 0
2019/09/09 02:59:00 BASE 4.59816 345 5.3214 352 -6.2 92 -7.2 0 0 991.4 NA 0.0000 9999 360 0 0
2019/09/09 03:00:00 BASE 4.38648 342 5.3214 352 -6.1 92 -7.2 0 0 991.4 NA 0.0000 9999 0 0 0
2019/09/09 03:01:00 BASE 4.08072 337 5.3214 352 -6.1 93 -7.1 0 0 991.4 NA 0.0000 9999 300 0 0
2019/09/09 03:02:00 BASE 4.116 336 5.3214 352 -6.1 93 -7.1 0 0 991.4 NA 0.0000 9999 330 0 0
2019/09/09 03:03:00 BASE 3.92196 338 5.3214 352 -6.1 93 -7.0 0 0 991.4 NA 0.0000 -SN 9999 330 0
2019/09/09 03:04:00 BASE 3.78672 342 5.3214 352 -6.1 93 -7.0 0 0 991.4 NA 0.0000 -SN 9999 300 0
2019/09/09 03:05:00 BASE 4.41 343 5.3214 342 -6.0 93 -6.9 0 0 991.3 NA 0.0000 -SN 9999 0 0
2019/09/09 03:06:00 BASE 4.6746 341 5.74476 351 -6.0 94 -6.9 0 0 991.3 NA 0.0000 -SN 9999 330 0
2019/09/09 03:07:00 BASE 5.02152 343 6.2622 348 -5.9 94 -6.7 0 0 991.1 NA 0.0000 -SN 9999 330 0
2019/09/09 03:08:00 BASE 5.56836 347 6.2622 348 -5.9 94 -6.6 0 0 991.2 NA 0.0000 -SN 9999 360 0
2019/09/09 03:09:00 BASE 5.45076 347 6.2622 348 -5.8 95 -6.6 0 0 991.2 NA 0.0000 -SN 9999 330 0
2019/09/09 03:10:00 BASE 5.733 347 6.95604 350 -5.8 95 -6.5 0 0 991.1 NA 0.0000 -SN 9999 330 0
2019/09/09 03:11:00 BASE 6.25044 351 8.2908 343 -5.7 95 -6.4 0 0 991.1 NA 0.0000 -SN 9999 330 0
2019/09/09 03:12:00 BASE 7.02072 349 8.4084 346 -5.6 95 -6.2 0 0 991.0 NA 0.0000 -SN 9999 300 0
2019/09/09 03:13:00 BASE 7.42644 345 9.10224 352 -5.5 96 -6.1 0 0 991.0 NA 0.0000 -SN 9999 300 0
2019/09/09 03:14:00 BASE 6.8208 352 9.10224 352 -5.4 96 -5.9 0 0 991.1 NA 0.0000 9999 260 0 0
2019/09/09 03:15:00 BASE 6.85608 355 9.10224 352 -5.3 96 -5.9 0 0 991.1 NA 0.0000 9999 360 0 0
2019/09/09 03:16:00 BASE 7.15596 351 9.10224 352 -5.3 96 -5.8 0 0 991.1 NA 0.0000 9999 330 0 0
2019/09/09 03:17:00 BASE 7.09716 353 9.10224 352 -5.2 96 -5.8 0 0 991.1 NA 0.0000 9999 260 0 0
2019/09/09 03:18:00 BASE 7.03248 356 9.10224 352 -5.2 96 -5.7 0 0 991.1 NA 0.0000 9999 300 0 0
2019/09/09 03:19:00 BASE 6.9384 352 9.10224 352 -5.2 97 -5.7 0 0 991.1 NA 0.0000 9999 330 0 0
2019/09/09 03:20:00 BASE 6.50328 352 9.10224 352 -5.2 97 -5.6 0 0 991.3 NA 0.0000 9999 360 0 0
2019/09/09 03:21:00 BASE 6.54444 354 9.10224 352 -5.2 97 -5.6 0 0 991.2 NA 0.0000 9999 360 0 0
2019/09/09 03:22:00 BASE 6.66792 353 9.10224 352 -5.1 97 -5.5 0 0 991.2 NA 0.0000 9999 260 0 0
2019/09/09 03:23:00 BASE 6.50328 352 8.92584 341 -5.1 97 -5.5 0 0 991.2 NA 0.0000 9999 330 0 0
2019/09/09 03:24:00 BASE 6.80316 349 8.92584 341 -5.1 97 -5.5 0 0 991.2 NA 0.0000 9999 330 0 0
2019/09/09 03:25:00 BASE 6.6444 350 8.92584 341 -5.1 97 -5.5 0 0 991.1 NA 0.0000 9999 260 0 0
2019/09/09 03:26:00 BASE 6.53856 353 8.92584 341 -5.1 97 -5.5 0 0 991.0 NA 0.0000 9999 360 0 0
2019/09/09 03:27:00 BASE 7.5852 354 9.98424 4 -5.1 97 -5.5 0 0 990.8 NA 0.0000 9999 360 0 0
2019/09/09 03:28:00 BASE 7.29708 353 9.98424 4 -5.0 97 -5.4 0 0 991.0 NA 0.0000 9999 360 0 0
2019/09/09 03:29:00 BASE 6.74436 352 9.98424 4 -5.0 97 -5.4 0 0 990.9 NA 0.0000 9999 360 0 0
2019/09/09 03:30:00 BASE 7.35 358 9.98424 4 -5.0 97 -5.4 0 0 990.8 NA 0.0000 9999 0 0 0
2019/09/09 03:31:01 BASE 7.33236 4 9.98424 4 -5.0 97 -5.4 0 0 990.9 NA 0.0000 9999 360 0 0
2019/09/09 03:32:00 BASE 7.06188 360 9.98424 4 -5.0 97 -5.4 0 0 990.9 NA 0.0000 9999 360 0 0
2019/09/09 03:33:00 BASE 6.9678 354 9.98424 4 -5.1 97 -5.5 0 0 990.8 NA 0.0000 9999 360 0 0
2019/09/09 03:34:00 BASE 7.29708 356 9.98424 4 -5.1 97 -5.5 0 0 990.7 NA 0.0000 9999 360 0 0
2019/09/09 03:35:00 BASE 7.59696 5 9.98424 4 -5.1 97 -5.5 0 0 990.7 NA 0.0000 9999 390 0 0
2019/09/09 03:36:00 BASE 8.04972 11 9.98424 4 -5.1 97 -5.5 0 0 990.5 NA 0.0000 9999 390 0 0
2019/09/09 03:37:00 BASE 8.85528 7 11.4954 340 -5.2 97 -5.6 0 0 990.3 NA 0.0000 9999 390 0 0
2019/09/09 03:38:00 BASE 8.80824 3 11.4954 340 -5.2 97 -5.6 0 0 990.6 NA 0.0000 9999 390 0 0
2019/09/09 03:39:00 BASE 8.60832 2 11.4954 340 -5.2 97 -5.6 0 0 990.5 NA 0.0000 9999 1440 0 0
2019/09/09 03:40:00 BASE 8.82 7 11.4954 340 -5.2 98 -5.5 0 0 990.5 NA 0.0000 9999 1570 0 0
2019/09/09 03:41:00 BASE 8.83176 8 11.4954 340 -5.2 98 -5.5 0 0 990.5 NA 0.0000 9999 980 0 0
2019/09/09 03:42:00 BASE 8.7318 5 11.4954 340 -5.2 98 -5.5 0 0 990.6 NA 0.0000 9999 2100 0 0
2019/09/09 03:43:00 BASE 8.4084 6 11.4954 340 -5.2 98 -5.5 0 0 990.6 NA 0.0000 9999 1970 0 0
2019/09/09 03:44:00 BASE 8.90232 8 11.4954 340 -5.2 97 -5.6 0 0 990.4 NA 0.0000 9999 1510 0 0
2019/09/09 03:45:00 BASE 9.2022 10 11.4954 340 -5.2 97 -5.6 0 0 990.5 NA 0.0000 9999 1480 2030 0
2019/09/09 03:46:00 BASE 9.13752 10 11.4954 340 -5.3 97 -5.7 0 0 990.5 NA 0.0000 9999 1770 0 0
2019/09/09 03:47:00 BASE 8.80824 8 10.8016 8 -5.2 97 -5.6 0 0 990.7 NA 0.0000 9999 1740 0 0
2019/09/09 03:48:00 BASE 8.19084 8 10.8016 8 -5.2 97 -5.6 0 0 990.7 NA 0.0000 9999 1840 0 0
2019/09/09 03:49:00 BASE 8.13792 8 10.8016 8 -5.2 97 -5.6 0 0 990.7 NA 0.0000 9999 1710 0 0
2019/09/09 03:50:00 BASE 8.21436 7 10.8016 8 -5.2 97 -5.6 0 0 990.8 NA 0.0000 9999 1740 0 0
2019/09/09 03:51:00 BASE 7.92036 5 10.8016 8 -5.1 97 -5.5 0 0 990.8 NA 0.0000 9999 1640 0 0
2019/09/09 03:52:00 BASE 7.791 4 10.8016 8 -5.1 97 -5.5 0 0 990.8 NA 0.0000 9999 1670 0 0
2019/09/09 03:53:00 BASE 7.8792 358 10.8016 8 -5.1 97 -5.5 0 0 990.8 NA 0.0000 9999 1570 2230 0
2019/09/09 03:54:00 BASE 7.8498 358 10.8016 8 -5.1 97 -5.5 0 0 990.8 NA 0.0000 9999 1640 2490 0
2019/09/09 03:55:00 BASE 7.74984 1 10.8016 8 -5.2 97 -5.6 0 0 990.8 NA 0.0000 9999 1570 2430 0
2019/09/09 03:56:00 BASE 7.63812 2 9.31392 4 -5.2 97 -5.6 0 0 990.8 NA 0.0000 9999 1540 0 0
2019/09/09 03:57:00 BASE 7.78512 3 9.31392 4 -5.2 97 -5.6 0 0 990.8 NA 0.0000 9999 1570 0 0
2019/09/09 03:58:00 BASE 8.09676 2 9.64908 6 -5.1 97 -5.5 0 0 990.8 NA 0.0000 9999 1510 0 0
2019/09/09 03:59:00 BASE 8.12028 358 9.64908 6 -5.1 97 -5.5 0 0 990.8 NA 0.0000 9999 1410 0 0
2019/09/09 04:00:00 BASE 8.09088 360 9.64908 6 -5.1 97 -5.4 0 0 990.8 NA 0.0000 9999 1440 0 0
2019/09/09 04:01:00 BASE 8.2614 1 9.64908 6 -5.0 98 -5.3 0 0 990.7 NA 0.0000 9999 1480 0 0
2019/09/09 04:02:00 BASE 8.19672 353 9.64908 6 -4.9 98 -5.2 0 0 990.8 NA 0.0000 9999 1480 0 0
2019/09/09 04:03:00 BASE 7.99092 353 9.64908 6 -4.9 98 -5.1 0 0 990.8 NA 0.0000 9999 1440 0 0
2019/09/09 04:04:00 BASE 8.232 355 9.64908 6 -4.8 98 -5.1 0 0 990.8 NA 0.0000 9999 1410 0 0
2019/09/09 04:05:00 BASE 8.34372 352 9.64908 6 -4.7 98 -5.0 0 0 990.8 NA 0.0000 9999 1310 0 0
2019/09/09 04:06:00 BASE 7.5558 355 9.64908 6 -4.7 98 -5.0 0 0 990.9 NA 0.0000 9999 1350 0 0
2019/09/09 04:07:00 BASE 7.60284 359 9.64908 6 -4.8 98 -5.0 0 0 990.7 NA 0.0000 9999 1310 0 0
2019/09/09 04:08:00 BASE 8.20848 358 9.4374 350 -4.8 98 -5.0 0 0 990.6 NA 0.0000 9999 1250 0 0
2019/09/09 04:09:00 BASE 8.57304 358 9.64908 3 -4.8 98 -5.0 0 0 990.6 NA 0.0000 9999 1280 0 0
2019/09/09 04:10:00 BASE 9.20808 1 10.8016 7 -4.8 99 -5.0 0 0 990.5 NA 0.0000 9999 1210 0 0
2019/09/09 04:11:00 BASE 9.86076 3 11.0426 8 -4.8 99 -5.0 0 0 990.4 NA 0.0000 9999 1210 0 0
2019/09/09 04:12:00 BASE 9.81372 359 11.0426 8 -4.8 99 -4.9 0 0 990.6 NA 0.0000 9999 1150 0 0
2019/09/09 04:13:00 BASE 9.261 355 11.0426 8 -4.7 99 -4.8 0 0 990.7 NA 0.0000 9999 1120 0 0
2019/09/09 04:14:00 BASE 9.43152 352 11.0426 8 -4.7 100 -4.8 0 0 990.6 NA 0.0000 9999 1080 0 0
2019/09/09 04:15:00 BASE 9.4962 349 11.0426 8 -4.6 100 -4.7 0 0 990.8 NA 0.0000 9999 1080 0 0
2019/09/09 04:16:00 BASE 9.3492 350 11.0426 8 -4.5 100 -4.5 0 0 990.7 NA 0.0000 9999 1120 0 0
2019/09/09 04:17:00 BASE 9.01404 349 11.0426 8 -4.5 100 -4.5 0 0 990.8 NA 0.0000 9999 1180 0 0
2019/09/09 04:18:00 BASE 9.01404 345 11.0426 8 -4.4 100 -4.4 0 0 990.8 NA 0.0000 9999 1180 0 0
2019/09/09 04:19:00 BASE 9.56088 345 11.0426 8 -4.3 100 -4.3 0 0 990.8 NA 0.0000 9999 1150 0 0
2019/09/09 04:20:00 BASE 9.2022 346 11.0426 8 -4.3 100 -4.3 0 0 990.9 NA 0.0000 9999 1080 0 0
2019/09/09 04:21:00 BASE 8.97876 347 10.9486 346 -4.3 100 -4.3 0 0 990.7 NA 0.0000 9999 1080 0 0
2019/09/09 04:22:00 BASE 9.03756 347 10.9486 346 -4.2 100 -4.2 0 0 990.8 NA 0.0000 9999 1210 0 0
2019/09/09 04:23:00 BASE 8.73768 350 10.9486 346 -4.2 100 -4.2 0 0 990.8 NA 0.0000 9999 1180 0 0
2019/09/09 04:24:00 BASE 8.7906 351 11.0132 348 -4.2 100 -4.2 0 0 990.8 NA 0.0000 9999 1180 0 0
2019/09/09 04:25:00 BASE 8.40252 347 11.0132 348 -4.2 100 -4.2 0 0 990.9 NA 0.0000 9999 1080 0 0
2019/09/09 04:26:00 BASE 8.1144 344 11.0132 348 -4.2 100 -4.2 0 0 990.8 NA 0.0000 9999 1120 0 0
2019/09/09 04:27:00 BASE 8.69064 346 11.0132 348 -4.2 100 -4.2 0 0 990.8 NA 0.0000 9999 1120 0 0
2019/09/09 04:28:00 BASE 8.82 353 11.0132 348 -4.2 100 -4.2 0 0 990.8 NA 0.0000 9999 1210 0 0
2019/09/09 04:29:00 BASE 9.03168 356 11.0132 348 -4.2 100 -4.2 0 0 990.7 NA 0.0000 9999 1180 0 0
2019/09/09 04:30:00 BASE 9.34332 350 11.0132 348 -4.2 100 -4.2 0 0 990.8 NA 0.0000 9999 1180 0 0
2019/09/09 04:31:00 BASE 9.62556 347 12.248 345 -4.2 100 -4.2 0 0 990.8 NA 0.0000 9999 1180 0 0
2019/09/09 04:32:00 BASE 8.9082 348 12.248 345 -4.2 100 -4.2 0 0 991.0 NA 0.0000 9999 1180 0 0
2019/09/09 04:33:00 BASE 9.31392 342 12.248 331 -4.2 100 -4.2 0 0 990.8 NA 0.0000 9999 1440 4040 0
2019/09/09 04:34:00 BASE 9.93132 337 12.248 331 -4.2 100 -4.2 0 0 991.0 NA 0.0000 9999 1150 0 0
2019/09/09 04:35:00 BASE 8.673 341 12.248 331 -4.2 100 -4.2 0 0 991.0 NA 0.0000 9999 1350 0 0
2019/09/09 04:36:00 BASE 9.16104 344 12.248 331 -4.2 100 -4.2 0 0 990.8 NA 0.0000 9999 1120 0 0
2019/09/09 04:37:00 BASE 9.5844 345 12.248 331 -4.2 100 -4.2 0 0 990.9 NA 0.0000 9999 1120 0 0
2019/09/09 04:38:00 BASE 9.34332 345 12.248 331 -4.2 100 -4.2 0 0 990.9 NA 0.0000 -SN 9999 390 0
2019/09/09 04:39:00 BASE 9.26688 344 12.248 331 -4.2 100 -4.2 0 0 990.9 NA 0.0000 -SN 9999 1250 0
2019/09/09 04:40:00 BASE 8.94936 346 12.248 331 -4.2 100 -4.2 0 0 990.9 NA 0.0000 -SN 9999 390 0
2019/09/09 04:41:00 BASE 8.86704 347 12.248 331 -4.2 100 -4.2 0 0 990.9 NA 0.0000 -SN 9999 360 0
2019/09/09 04:42:00 BASE 8.38488 344 12.248 331 -4.2 100 -4.2 0 0 991.0 NA 0.0000 -SN 9999 980 0
2019/09/09 04:43:00 BASE 8.34372 343 10.9192 342 -4.2 100 -4.2 0 0 991.0 NA 0.0000 -SN 9999 1080 0
2019/09/09 04:44:00 BASE 9.07284 342 10.9192 342 -4.2 100 -4.2 0 0 990.9 NA 0.0000 -SN 9999 980 0
2019/09/09 04:45:00 BASE 9.47268 342 10.9192 342 -4.2 100 -4.2 0 0 990.9 NA 0.0000 -SN 9999 980 0
2019/09/09 04:46:00 BASE 8.86116 343 10.5899 336 -4.2 100 -4.2 0 0 991.0 NA 0.0000 -SN 9999 950 0
2019/09/09 04:47:00 BASE 8.50836 342 10.5899 336 -4.2 100 -4.2 0 0 991.0 NA 0.0000 -SN 9999 890 0
2019/09/09 04:48:00 BASE 9.28452 340 10.5899 336 -4.2 100 -4.2 0 0 991.0 NA 0.0000 -SN 9999 950 0
2019/09/09 04:49:00 BASE 9.555 338 10.5899 336 -4.2 100 -4.2 0 0 991.0 NA 0.0000 -SN 9999 980 0
2019/09/09 04:50:00 BASE 9.61968 341 11.072 340 -4.2 100 -4.2 0 0 990.9 NA 0.0000 9999 790 0 0
2019/09/09 04:51:00 BASE 10.0254 342 11.3719 339 -4.2 100 -4.2 0 0 990.9 NA 0.0000 9999 950 0 0
2019/09/09 04:52:00 BASE 9.41976 342 11.3719 339 -4.1 100 -4.1 0 0 991.0 NA 0.0000 9999 950 0 0
2019/09/09 04:53:00 BASE 8.78472 340 11.3719 339 -4.1 100 -4.1 0 0 991.0 NA 0.0000 9999 950 0 0
2019/09/09 04:54:00 BASE 9.1434 338 11.3719 339 -4.1 100 -4.1 0 0 991.0 NA 0.0000 9999 1020 0 0
2019/09/09 04:55:00 BASE 9.33156 340 11.3719 339 -4.1 100 -4.1 0 0 990.9 NA 0.0000 9999 820 0 0
2019/09/09 04:56:00 BASE 9.35508 343 11.3719 339 -4.1 100 -4.1 0 0 990.9 NA 0.0000 9999 790 0 0
2019/09/09 04:57:00 BASE 9.23748 343 11.3719 339 -4.1 100 -4.1 0 0 990.9 NA 0.0000 9999 820 0 0
2019/09/09 04:58:00 BASE 8.94936 341 11.3719 339 -4.1 100 -4.1 0 0 991.0 NA 0.0000 9999 620 0 0
2019/09/09 04:59:00 BASE 9.03756 337 11.3719 339 -4.1 100 -4.1 0 0 991.0 NA 0.0000 9999 950 0 0
2019/09/09 05:00:00 BASE 9.11988 336 11.3719 339 -4.1 100 -4.1 0 0 991.0 NA 0.0000 9999 430 0 0
2019/09/09 05:01:01 BASE 8.96112 333 10.437 335 -4.0 100 -4.0 0 0 991.1 NA 0.0000 9999 360 0 0
2019/09/09 05:02:00 BASE 9.20808 332 10.6487 329 -4.0 100 -4.0 0 0 991.0 NA 0.0000 9999 360 0 0
2019/09/09 05:03:00 BASE 9.38448 337 10.6487 329 -3.9 100 -3.9 0 0 990.8 NA 0.0000 9999 390 0 0
2019/09/09 05:04:00 BASE 10.1606 338 11.9776 335 -3.9 100 -3.9 0 0 990.8 NA 0.0000 9999 390 0 0
2019/09/09 05:05:00 BASE 10.337 335 11.9776 335 -3.8 100 -3.8 0 0 991.0 NA 0.0000 9999 460 0 0
2019/09/09 05:06:00 BASE 9.64908 335 11.9776 335 -3.8 100 -3.8 0 0 991.0 NA 0.0000 9999 790 0 0
2019/09/09 05:07:00 BASE 10.1195 337 12.2186 341 -3.8 100 -3.8 0 0 990.9 NA 0.0000 9999 390 0 0
2019/09/09 05:08:00 BASE 10.4546 340 12.2186 341 -3.8 100 -3.8 0 0 990.9 NA 0.0000 9999 300 0 0
2019/09/09 05:09:00 BASE 10.0078 340 12.2186 341 -3.9 100 -3.9 0 0 991.0 NA 0.0000 9999 300 0 0
2019/09/09 05:10:00 BASE 9.97836 339 12.2186 341 -3.9 100 -3.9 0 0 991.0 NA 0.0000 9999 300 0 0
2019/09/09 05:11:00 BASE 10.2959 337 12.2186 341 -3.9 100 -3.9 0 0 991.0 NA 0.0000 9999 260 0 0
2019/09/09 05:12:00 BASE 9.63732 339 12.2186 341 -3.9 100 -3.9 0 0 991.0 NA 0.0000 9999 0 0 0
2019/09/09 05:13:00 BASE 9.27276 341 12.2186 341 -3.9 100 -3.9 0 0 991.0 NA 0.0000 9999 230 0 0
2019/09/09 05:14:00 BASE 9.22572 341 12.2186 341 -3.9 100 -3.9 0 0 991.1 NA 0.0000 9999 0 0 0
2019/09/09 05:15:00 BASE 9.2316 342 12.2186 341 -3.9 100 -3.9 0 0 991.0 NA 0.0000 -SN 9999 0 0
2019/09/09 05:16:00 BASE 9.99012 343 12.2186 341 -3.9 100 -3.9 0 0 990.9 NA 0.0000 -SN 9999 300 0
2019/09/09 05:17:00 BASE 10.1254 343 11.9188 325 -3.9 100 -3.9 0 0 991.0 NA 0.0000 -SN 9999 300 0
2019/09/09 05:18:00 BASE 10.29 343 11.9188 325 -3.9 100 -3.9 0 0 991.0 NA 0.0000 -SN 9999 360 0
2019/09/09 05:19:00 BASE 10.5017 340 11.9188 325 -3.9 100 -3.9 0 0 991.1 NA 0.0000 -SN 9999 430 0
2019/09/09 05:20:00 BASE 10.0842 339 11.4366 336 -3.9 100 -3.9 0 0 991.0 NA 0.0000 -SN 9999 660 0
2019/09/09 05:21:00 BASE 9.81372 342 11.4366 336 -3.8 100 -3.8 0 0 991.1 NA 0.0000 -SN 9999 620 0
2019/09/09 05:22:00 BASE 9.87252 343 11.4366 336 -3.8 100 -3.8 0 0 991.1 NA 0.0000 -SN 9999 490 0
2019/09/09 05:23:00 BASE 9.9078 343 11.4366 336 -3.8 100 -3.8 0 0 991.0 NA 0.0000 -SN 9999 590 0
2019/09/09 05:24:00 BASE 9.83724 343 11.4366 336 -3.8 100 -3.8 0 0 991.0 NA 0.0000 -SN 9999 720 0
2019/09/09 05:25:00 BASE 9.57852 343 11.4366 336 -3.8 100 -3.8 0 0 991.1 NA 0.0000 9999 720 0 0
2019/09/09 05:28:00 BASE 9.46092 341 11.5836 336 -3.8 100 -3.8 0 0 991.1 NA 0.0000 9999 720 0 0
2019/09/09 05:29:00 BASE 9.04932 343 11.5836 336 -3.8 100 -3.8 0 0 991.2 NA 0.0000 9999 890 0 0
2019/09/09 05:30:00 BASE 9.37272 346 11.5836 336 -3.7 100 -3.7 0 0 991.1 NA 0.0000 9999 690 0 0
2019/09/09 05:31:00 BASE 9.72552 346 11.5836 336 -3.7 100 -3.7 0 0 991.1 NA 0.0000 9999 590 0 0
2019/09/09 05:32:00 BASE 9.13164 345 11.5836 336 -3.7 100 -3.7 0 0 991.1 NA 0.0000 9999 560 0 0
2019/09/09 05:33:00 BASE 9.261 348 12.1598 349 -3.6 100 -3.6 0 0 990.9 NA 0.0000 9999 390 0 0
2019/09/09 05:34:00 BASE 9.88428 347 12.1598 349 -3.6 100 -3.6 0 0 991.0 NA 0.0000 9999 360 0 0
2019/09/09 05:35:00 BASE 8.7906 347 12.1598 349 -3.6 100 -3.6 0 0 991.2 NA 0.0000 9999 390 0 0
2019/09/09 05:36:00 BASE 8.12028 347 12.1598 349 -3.5 100 -3.5 0 0 991.2 NA 0.0000 9999 460 0 0
2019/09/09 05:37:00 BASE 8.78472 347 12.1598 349 -3.5 100 -3.5 0 0 991.1 NA 0.0000 9999 330 0 0
2019/09/09 05:38:00 BASE 9.71964 347 12.1598 349 -3.5 100 -3.5 0 0 991.0 NA 0.0000 9999 330 0 0
2019/09/09 05:39:00 BASE 10.0724 335 12.1598 349 -3.5 100 -3.5 0 0 991.2 NA 0.0000 9999 330 0 0
2019/09/09 05:40:00 BASE 9.702 337 12.1598 349 -3.5 100 -3.5 0 0 991.1 NA 0.0000 9999 330 0 0
2019/09/09 05:41:00 BASE 9.69024 344 12.1598 349 -3.4 100 -3.4 0 0 991.1 NA 0.0000 9999 360 0 0
2019/09/09 05:42:00 BASE 9.43152 342 12.1598 349 -3.4 100 -3.4 0 0 991.2 NA 0.0000 9999 390 0 0
2019/09/09 05:43:00 BASE 9.46092 341 11.6777 336 -3.5 100 -3.5 0 0 991.2 NA 0.0000 9999 390 0 0
2019/09/09 05:44:00 BASE 9.19632 343 11.6777 336 -3.5 100 -3.5 0 0 991.2 NA 0.0000 9999 390 0 0
2019/09/09 05:45:00 BASE 9.07284 346 11.6777 336 -3.5 100 -3.5 0 0 991.1 NA 0.0000 9999 390 0 0
2019/09/09 05:46:00 BASE 9.27864 346 11.6777 336 -3.6 100 -3.6 0 0 991.2 NA 0.0000 9999 390 0 0
2019/09/09 05:47:00 BASE 9.03756 346 11.6777 336 -3.6 100 -3.6 0 0 991.1 NA 0.0000 9999 360 0 0
2019/09/09 05:48:00 BASE 9.78432 346 11.0132 344 -3.7 100 -3.7 0 0 991.1 NA 0.0000 9999 360 0 0
2019/09/09 05:49:00 BASE 9.97836 344 11.0132 344 -3.7 100 -3.7 0 0 991.2 NA 0.0000 9999 390 0 0
2019/09/09 05:50:00 BASE 9.42564 342 11.0132 344 -3.7 100 -3.7 0 0 991.2 NA 0.0000 9999 430 0 0
2019/09/09 05:51:00 BASE 9.2904 342 11.0132 344 -3.7 100 -3.7 0 0 991.3 NA 0.0000 9999 430 0 0
2019/09/09 05:52:00 BASE 8.967 342 11.0132 344 -3.7 100 -3.7 0 0 991.2 NA 0.0000 9999 390 0 0
2019/09/09 05:53:00 BASE 8.82 343 11.0132 344 -3.7 100 -3.7 0 0 991.3 NA 0.0000 9999 360 0 0
2019/09/09 05:54:00 BASE 8.78472 346 11.0132 344 -3.7 100 -3.7 0 0 991.3 NA 0.0000 9999 360 0 0
2019/09/09 05:55:00 BASE 8.83176 345 11.1896 353 -3.7 100 -3.7 0 0 991.3 NA 0.0000 9999 430 0 0
2019/09/09 05:56:00 BASE 9.6432 340 11.1896 353 -3.7 100 -3.7 0 0 991.3 NA 0.0000 9999 360 0 0
2019/09/09 05:57:00 BASE 10.4782 340 11.8894 342 -3.7 100 -3.7 0 0 991.2 NA 0.0000 9999 330 0 0
2019/09/09 05:58:00 BASE 10.684 342 11.8894 342 -3.6 100 -3.6 0 0 991.2 NA 0.0000 9999 360 0 0
2019/09/09 05:59:00 BASE 10.4546 342 11.8894 342 -3.6 100 -3.6 0 0 991.2 NA 0.0000 9999 360 0 0
2019/09/09 06:00:00 BASE 9.88428 340 11.8894 342 -3.6 100 -3.6 0 0 991.3 NA 0.0000 9999 360 0 0
2019/09/09 06:01:00 BASE 9.9666 341 12.0364 338 -3.6 100 -3.6 0 0 991.2 NA 0.0000 9999 360 0 0
2019/09/09 06:02:00 BASE 10.0666 340 12.0364 338 -3.6 100 -3.6 0 0 991.3 NA 0.0000 9999 360 0 0
2019/09/09 06:03:00 BASE 9.69612 336 12.0364 338 -3.5 100 -3.5 0 0 991.3 NA 0.0000 9999 390 0 0
2019/09/09 06:04:00 BASE 10.0254 335 12.4656 331 -3.5 100 -3.5 0 0 991.2 NA 0.0000 9999 390 0 0
2019/09/09 06:05:00 BASE 10.437 336 12.4656 331 -3.4 100 -3.4 0 0 991.2 NA 0.0000 9999 360 0 0
2019/09/09 06:06:00 BASE 10.2606 340 12.4656 331 -3.4 100 -3.4 0 0 991.2 NA 0.0000 9999 360 0 0
2019/09/09 06:07:00 BASE 10.2136 343 12.4656 331 -3.4 100 -3.4 0 0 991.1 NA 0.0000 9999 330 0 0
2019/09/09 06:08:00 BASE 9.9078 345 12.4656 331 -3.4 100 -3.4 0 0 991.2 NA 0.0000 9999 330 0 0
2019/09/09 06:09:00 BASE 9.66084 344 12.4656 331 -3.4 100 -3.4 0 0 991.2 NA 0.0000 9999 330 0 0
2019/09/09 06:10:00 BASE 9.51384 342 12.4656 331 -3.4 100 -3.4 0 0 991.3 NA 0.0000 9999 300 0 0
2019/09/09 06:11:00 BASE 9.555 340 12.4656 331 -3.5 100 -3.5 0 0 991.2 NA 0.0000 9999 260 0 0
2019/09/09 06:12:00 BASE 9.69612 340 12.4656 331 -3.4 100 -3.4 0 0 991.2 NA 0.0000 9999 300 0 0
2019/09/09 06:13:00 BASE 9.44328 342 12.4656 331 -3.4 100 -3.4 0 0 991.3 NA 0.0000 9999 330 0 0
2019/09/09 06:14:00 BASE 9.16692 344 11.3131 340 -3.4 100 -3.4 0 0 991.2 NA 0.0000 9999 360 0 0
2019/09/09 06:15:00 BASE 9.26688 344 11.3131 340 -3.3 100 -3.3 0 0 991.2 NA 0.0000 9999 360 0 0
2019/09/09 06:16:00 BASE 9.96072 345 11.3131 340 -3.3 100 -3.3 0 0 991.1 NA 0.0000 9999 360 0 0
2019/09/09 06:17:00 BASE 9.82548 345 10.8604 348 -3.3 100 -3.3 0 0 991.2 NA 0.0000 9999 330 0 0
2019/09/09 06:18:00 BASE 8.91408 345 10.8604 348 -3.3 100 -3.3 0 0 991.3 NA 0.0000 9999 330 0 0
2019/09/09 06:19:00 BASE 8.87292 347 10.8604 348 -3.4 100 -3.4 0 0 991.2 NA 0.0000 9999 330 0 0
2019/09/09 06:20:00 BASE 9.14928 346 10.8604 348 -3.4 100 -3.4 0 0 991.2 NA 0.0000 9999 330 0 0
2019/09/09 06:21:00 BASE 8.94936 342 10.8604 348 -3.3 100 -3.3 0 0 991.3 NA 0.0000 9999 360 0 0
2019/09/09 06:22:00 BASE 8.85528 342 10.8604 348 -3.3 100 -3.3 0 0 991.3 NA 0.0000 9999 330 0 0
2019/09/09 06:23:00 BASE 8.91996 343 10.8604 348 -3.3 100 -3.3 0 0 991.2 NA 0.0000 9999 330 0 0
2019/09/09 06:24:01 BASE 8.62008 344 10.8604 348 -3.3 100 -3.3 0 0 991.2 NA 0.0000 9999 300 0 0
2019/09/09 06:25:00 BASE 8.54952 346 10.8604 348 -3.3 100 -3.3 0 0 991.2 NA 0.0000 9999 300 0 0
2019/09/09 06:26:00 BASE 8.53188 348 10.1665 340 -3.2 100 -3.2 0 0 991.2 NA 0.0000 9999 260 0 0
2019/09/09 06:27:00 BASE 7.92036 346 10.0136 350 -3.2 100 -3.2 0 0 991.3 NA 0.0000 9999 260 0 0
2019/09/09 06:28:00 BASE 7.83216 346 10.0136 350 -3.1 100 -3.1 0 0 991.2 NA 0.0000 9999 260 0 0
2019/09/09 06:29:00 BASE 8.24376 349 9.91956 343 -3.1 100 -3.1 0 0 991.1 NA 0.0000 9999 300 0 0
2019/09/09 06:30:00 BASE 8.62596 352 9.89016 346 -3.1 100 -3.1 0 0 991.1 NA 0.0000 9999 300 0 0
2019/09/09 06:31:01 BASE 8.4084 350 9.89016 346 -3.1 100 -3.1 0 0 991.2 NA 0.0000 9999 300 0 0
2019/09/09 06:32:00 BASE 7.68516 348 9.89016 346 -3.1 100 -3.1 0 0 991.3 NA 0.0000 9999 260 0 0
2019/09/09 06:33:00 BASE 7.74984 348 9.89016 346 -3.1 100 -3.1 0 0 991.2 NA 0.0000 9999 200 0 0
2019/09/09 06:34:00 BASE 7.69104 350 9.89016 346 -3.0 100 -3.0 0 0 991.3 NA 0.0000 9999 230 0 0
2019/09/09 06:35:00 BASE 7.31472 350 9.89016 346 -3.0 100 -3.0 0 0 991.3 NA 0.0000 9999 260 0 0
2019/09/09 06:36:00 BASE 7.1148 348 9.89016 346 -3.0 100 -3.0 0 0 991.4 NA 0.0000 9999 300 0 0
2019/09/09 06:37:00 BASE 7.0266 346 9.89016 346 -3.0 100 -3.0 0 0 991.4 NA 0.0000 9999 330 0 0
2019/09/09 06:38:00 BASE 7.19124 346 9.89016 346 -3.0 100 -3.0 0 0 991.4 NA 0.0000 9999 330 0 0
2019/09/09 06:39:00 BASE 6.95016 343 9.3786 353 -3.0 100 -3.0 0 0 991.4 NA 0.0000 9999 260 0 0
2019/09/09 06:40:00 BASE 6.83256 343 8.53188 334 -3.0 100 -3.0 0 0 991.4 NA 0.0000 9999 300 0 0
2019/09/09 06:41:00 BASE 7.15596 348 8.53188 334 -3.0 100 -3.0 0 0 991.3 NA 0.0000 9999 330 0 0
2019/09/09 06:42:01 BASE 7.50876 350 8.53188 334 -3.0 100 -3.0 0 0 991.2 NA 0.0000 9999 390 0 0
2019/09/09 06:43:01 BASE 7.49112 351 8.3202 345 -3.0 100 -3.0 0 0 991.3 NA 0.0000 9999 430 0 0
2019/09/09 06:44:00 BASE 7.63812 353 8.53188 353 -3.0 100 -3.0 0 0 991.2 NA 0.0000 9999 430 0 0
2019/09/09 06:45:00 BASE 8.23788 349 8.98464 348 -3.0 100 -3.0 0 0 991.2 NA 0.0000 9999 430 0 0
2019/09/09 06:46:00 BASE 7.938 344 8.98464 348 -3.0 100 -3.0 0 0 991.4 NA 0.0000 9999 300 0 0
2019/09/09 06:47:00 BASE 7.10304 342 8.98464 348 -3.0 100 -3.0 0 0 991.4 NA 0.0000 9999 300 0 0
2019/09/09 06:48:00 BASE 7.203 343 8.98464 348 -3.0 100 -3.0 0 0 991.3 NA 0.0000 9999 300 0 0
2019/09/09 06:49:00 BASE 7.33824 342 8.98464 348 -2.9 100 -2.9 0 0 991.4 NA 0.0000 9999 330 0 0
2019/09/09 06:50:00 BASE 7.03248 339 8.98464 348 -2.9 100 -2.9 0 0 991.5 NA 0.0000 9999 330 0 0
2019/09/09 06:51:00 BASE 6.90312 339 8.98464 348 -2.9 100 -2.9 0 0 991.5 NA 0.0000 9999 360 0 0
2019/09/09 06:52:00 BASE 6.97368 339 8.98464 348 -2.8 100 -2.8 0 0 991.5 NA 0.0000 9999 330 0 0
2019/09/09 06:53:01 BASE 6.89724 340 8.98464 348 -2.8 100 -2.8 0 0 991.5 NA 0.0000 9999 330 0 0
2019/09/09 06:54:00 BASE 6.84432 341 8.98464 348 -2.8 100 -2.8 0 0 991.4 NA 0.0000 9999 330 0 0
2019/09/09 06:55:00 BASE 6.9972 341 8.04384 342 -2.8 100 -2.8 0 0 991.4 NA 0.0000 9999 330 0 0
2019/09/09 06:56:00 BASE 7.07364 340 7.92624 339 -2.8 100 -2.8 0 0 991.3 NA 0.0000 9999 390 0 0
2019/09/09 06:57:00 BASE 7.10304 336 7.92624 339 -2.8 100 -2.8 0 0 991.4 NA 0.0000 9999 390 0 0
2019/09/09 06:58:00 BASE 7.62636 331 8.64948 341 -2.8 100 -2.8 0 0 991.3 NA 0.0000 9999 390 0 0
2019/09/09 06:59:00 BASE 7.8204 334 8.64948 341 -2.7 100 -2.7 0 0 991.3 NA 0.0000 9999 330 0 0
2019/09/09 07:00:00 BASE 7.89684 336 9.4374 332 -2.7 100 -2.7 0 0 991.1 NA 0.0000 9999 360 0 0
2019/09/09 07:01:00 BASE 8.03208 338 9.4374 332 -2.7 100 -2.7 0 0 991.1 NA 0.0000 9999 390 0 0
2019/09/09 07:02:00 BASE 7.4088 341 9.4374 332 -2.6 100 -2.6 0 0 991.2 NA 0.0000 9999 490 0 0
2019/09/09 07:03:00 BASE 7.21476 339 9.4374 332 -2.6 100 -2.6 0 0 991.1 NA 0.0000 9999 720 0 0
2019/09/09 07:04:00 BASE 7.5558 338 9.4374 332 -2.7 100 -2.7 0 0 991.1 NA 0.0000 9999 850 3970 0
2019/09/09 07:05:00 BASE 7.60872 339 9.4374 332 -2.7 100 -2.7 0 0 991.1 NA 0.0000 9999 920 0 0
2019/09/09 07:06:00 BASE 7.57932 339 9.4374 332 -2.7 100 -2.7 0 0 991.1 NA 0.0000 9999 1020 3580 0
2019/09/09 07:07:00 BASE 7.644 340 9.4374 332 -2.7 100 -2.7 0 0 991.1 NA 0.0000 9999 1020 3220 0
2019/09/09 07:08:00 BASE 7.50288 336 9.4374 332 -2.7 100 -2.7 0 0 991.1 NA 0.0000 9999 2950 0 0
2019/09/09 07:09:00 BASE 7.07952 335 9.4374 332 -2.7 100 -2.7 0 0 991.2 NA 0.0000 9999 2950 0 0
2019/09/09 07:10:00 BASE 6.55032 336 8.53188 335 -2.7 100 -2.7 0 0 991.3 NA 0.0000 9999 1280 2920 0
2019/09/09 07:11:00 BASE 6.40332 338 8.53188 335 -2.7 100 -2.7 0 0 991.2 NA 0.0000 9999 1120 0 0
2019/09/09 07:12:00 BASE 6.72672 339 8.53188 335 -2.7 100 -2.7 0 0 991.2 NA 0.0000 9999 1020 0 0
2019/09/09 07:13:00 BASE 6.72084 336 8.53188 335 -2.7 100 -2.7 0 0 991.2 NA 0.0000 9999 1050 2990 0
2019/09/09 07:14:00 BASE 6.33276 334 8.10852 335 -2.7 100 -2.7 0 0 991.3 NA 0.0000 9999 1120 2850 0
2019/09/09 07:15:00 BASE 6.34452 336 8.07912 333 -2.7 100 -2.7 0 0 991.3 NA 0.0000 9999 1020 0 0
2019/09/09 07:16:00 BASE 6.54444 336 8.07912 333 -2.7 100 -2.7 0 0 991.3 NA 0.0000 9999 920 0 0
2019/09/09 07:17:00 BASE 6.65616 336 8.07912 333 -2.7 100 -2.7 0 0 991.2 NA 0.0000 9999 1050 0 0
2019/09/09 07:18:01 BASE 6.42684 337 7.50288 338 -2.7 100 -2.7 0 0 991.3 NA 0.0000 9999 1150 2330 0
2019/09/09 07:19:01 BASE 6.19752 338 7.50288 338 -2.7 100 -2.7 0 0 991.2 NA 0.0000 9999 1080 2230 0
2019/09/09 07:20:01 BASE 6.0564 339 7.50288 338 -2.7 100 -2.7 0 0 991.3 NA 0.0000 9999 1150 0 0
2019/09/09 07:21:00 BASE 5.9682 339 7.50288 338 -2.7 100 -2.7 0 0 991.3 NA 0.0000 9999 950 2100 0
2019/09/09 07:22:00 BASE 6.10344 339 7.3794 337 -2.7 100 -2.7 0 0 991.3 NA 0.0000 9999 890 0 0
2019/09/09 07:23:00 BASE 6.02112 340 7.3206 336 -2.7 100 -2.7 0 0 991.3 NA 0.0000 9999 850 1610 0
2019/09/09 07:24:00 BASE 5.60952 339 7.3206 336 -2.7 100 -2.7 0 0 991.4 NA 0.0000 9999 850 0 0
2019/09/09 07:25:00 BASE 6.03288 339 7.3794 342 -2.8 100 -2.8 0 0 991.3 NA 0.0000 9999 920 0 0
2019/09/09 07:26:00 BASE 6.6738 339 7.3794 342 -2.8 100 -2.8 0 0 991.3 NA 0.0000 9999 890 0 0
2019/09/09 07:27:00 BASE 6.5562 340 7.3794 342 -2.8 100 -2.8 0 0 991.3 NA 0.0000 9999 890 0 0
2019/09/09 07:28:00 BASE 6.34452 342 7.3794 342 -2.8 100 -2.8 0 0 991.4 NA 0.0000 9999 890 0 0
2019/09/09 07:29:00 BASE 6.19164 343 7.3794 342 -2.8 100 -2.8 0 0 991.4 NA 0.0000 9999 850 0 0
2019/09/09 07:30:00 BASE 6.02112 341 7.3794 342 -2.8 100 -2.8 0 0 991.4 NA 0.0000 9999 1080 0 0
2019/09/09 07:31:01 BASE 5.69184 336 7.3794 342 -2.7 100 -2.7 0 0 991.5 NA 0.0000 9999 1150 0 0
2019/09/09 07:32:00 BASE 5.42724 334 7.3794 342 -2.7 100 -2.7 0 0 991.6 NA 0.0000 9999 1150 0 0
2019/09/09 07:33:00 BASE 5.69184 333 7.3794 342 -2.7 100 -2.7 0 0 991.5 NA 0.0000 9999 1150 0 0
2019/09/09 07:34:00 BASE 6.13872 333 7.3794 342 -2.6 100 -2.6 0 0 991.5 NA 0.0000 9999 1080 0 0
2019/09/09 07:35:00 BASE 6.10344 334 7.19712 342 -2.6 100 -2.6 0 0 991.6 NA 0.0000 9999 1050 0 0
2019/09/09 07:36:00 BASE 5.80356 335 6.74436 342 -2.6 100 -2.6 0 0 991.6 NA 0.0000 9999 1120 0 0
2019/09/09 07:37:00 BASE 5.84472 336 6.74436 342 -2.6 100 -2.6 0 0 991.5 NA 0.0000 9999 1150 0 0
2019/09/09 07:38:00 BASE 6.04464 336 6.68556 337 -2.5 100 -2.5 0 0 991.5 NA 0.0000 9999 1120 0 0
2019/09/09 07:39:00 BASE 6.16224 336 6.92664 340 -2.5 100 -2.5 0 0 991.5 NA 0.0000 9999 1150 0 0
2019/09/09 07:40:00 BASE 6.53268 335 8.01444 332 -2.5 100 -2.5 0 0 991.5 NA 0.0000 9999 1180 0 0
2019/09/09 07:41:01 BASE 6.87372 333 8.01444 332 -2.5 100 -2.5 0 0 991.4 NA 0.0000 9999 1210 0 0
2019/09/09 07:42:01 BASE 6.66204 332 8.01444 332 -2.5 100 -2.5 0 0 991.5 NA 0.0000 9999 1210 0 0
2019/09/09 07:43:01 BASE 6.1152 333 8.01444 332 -2.5 100 -2.5 0 0 991.5 NA 0.0000 9999 1310 0 0
2019/09/09 07:44:01 BASE 6.03288 332 8.01444 332 -2.5 100 -2.5 0 0 991.5 NA 0.0000 9999 1310 0 0
2019/09/09 07:45:01 BASE 6.36216 332 8.01444 332 -2.5 100 -2.5 0 0 991.5 NA 0.0000 9999 1280 0 0
2019/09/09 07:46:01 BASE 6.95016 331 8.01444 332 -2.5 100 -2.5 0 0 991.4 NA 0.0000 9999 1310 0 0
2019/09/09 07:47:00 BASE 7.1442 330 8.01444 332 -2.5 100 -2.5 0 0 991.4 NA 0.0000 9999 1250 0 0
2019/09/09 07:48:00 BASE 6.69144 330 8.01444 332 -2.5 100 -2.5 0 0 991.5 NA 0.0000 9999 1280 0 0
2019/09/09 07:49:00 BASE 6.16224 331 8.01444 332 -2.5 100 -2.5 0 0 991.5 NA 0.0000 9999 1210 0 0
2019/09/09 07:50:00 BASE 5.89764 332 7.98504 331 -2.5 100 -2.5 0 0 991.5 NA 0.0000 9999 1210 0 0
2019/09/09 07:51:00 BASE 6.27984 332 7.98504 331 -2.5 100 -2.5 0 0 991.4 NA 0.0000 9999 1180 0 0
2019/09/09 07:52:00 BASE 6.65616 332 7.98504 331 -2.5 100 -2.5 0 0 991.4 NA 0.0000 9999 1120 0 0
2019/09/09 07:53:00 BASE 6.53856 331 7.98504 331 -2.5 100 -2.5 0 0 991.5 NA 0.0000 9999 1210 0 0
2019/09/09 07:54:00 BASE 6.52092 332 7.98504 331 -2.5 100 -2.5 0 0 991.5 NA 0.0000 9999 1280 0 0
2019/09/09 07:55:00 BASE 6.6738 333 7.98504 331 -2.5 100 -2.5 0 0 991.4 NA 0.0000 9999 1280 0 0
2019/09/09 07:56:00 BASE 6.91488 332 7.53228 336 -2.5 100 -2.5 0 0 991.4 NA 0.0000 9999 1350 3180 0
2019/09/09 07:57:00 BASE 6.89724 330 7.53228 336 -2.5 100 -2.5 0 0 991.5 NA 0.0000 9999 1310 3180 0
2019/09/09 07:58:00 BASE 6.69732 331 7.53228 336 -2.5 100 -2.5 0 0 991.5 NA 0.0000 9999 1380 0 0
2019/09/09 07:59:00 BASE 6.77376 330 7.53228 336 -2.5 100 -2.5 0 0 991.5 NA 0.0000 9999 1180 0 0
2019/09/09 08:00:00 BASE 6.7032 326 7.53228 336 -2.5 100 -2.5 0 0 991.5 NA 0.0000 9999 1350 0 0
2019/09/09 08:01:00 BASE 6.63852 327 7.53228 336 -2.5 100 -2.5 0 0 991.6 NA 0.0000 9999 1440 2170 0
2019/09/09 08:02:00 BASE 6.66792 329 7.47348 324 -2.5 100 -2.5 0 0 991.5 NA 0.0000 9999 1280 0 0
2019/09/09 08:03:00 BASE 6.66204 331 7.3206 321 -2.5 100 -2.5 0 0 991.5 NA 0.0000 9999 1210 0 0
2019/09/09 08:04:00 BASE 6.77376 332 7.47348 330 -2.5 100 -2.5 0 0 991.5 NA 0.0000 9999 1150 0 0
2019/09/09 08:05:00 BASE 6.95016 332 7.50288 331 -2.5 100 -2.5 0 0 991.5 NA 0.0000 9999 1120 0 0
2019/09/09 08:06:00 BASE 6.9972 332 7.59108 334 -2.5 100 -2.5 0 0 991.5 NA 0.0000 9999 1210 0 0
2019/09/09 08:07:00 BASE 7.13832 332 7.59108 334 -2.5 100 -2.5 0 0 991.5 NA 0.0000 9999 1050 1940 0
2019/09/09 08:08:00 BASE 7.056 331 7.59108 334 -2.5 100 -2.5 0 0 991.5 NA 0.0000 9999 1900 3020 0
2019/09/09 08:09:00 BASE 6.69732 329 7.59108 334 -2.5 100 -2.5 0 0 991.6 NA 0.0000 9999 1900 2990 0
2019/09/09 08:10:00 BASE 6.5856 329 7.59108 334 -2.5 100 -2.5 0 0 991.6 NA 0.0000 9999 1970 3120 0
2019/09/09 08:11:00 BASE 6.4974 331 7.59108 334 -2.5 100 -2.5 0 0 991.6 NA 0.0000 9999 1640 0 0
2019/09/09 08:12:00 BASE 6.54444 331 7.59108 334 -2.5 100 -2.5 0 0 991.6 NA 0.0000 9999 1120 1670 0
2019/09/09 08:13:00 BASE 6.50328 331 7.59108 334 -2.5 100 -2.5 0 0 991.6 NA 0.0000 9999 1670 0 0
2019/09/09 08:14:00 BASE 6.1152 330 7.59108 334 -2.5 100 -2.5 0 0 991.6 NA 0.0000 9999 980 0 0
2019/09/09 08:15:00 BASE 5.9094 330 7.59108 334 -2.5 100 -2.5 0 0 991.6 NA 0.0000 9999 1020 0 0
2019/09/09 08:16:00 BASE 6.15048 330 7.56168 333 -2.6 100 -2.6 0 0 991.6 NA 0.0000 9999 1050 0 0
2019/09/09 08:17:00 BASE 6.42096 332 7.16772 329 -2.6 100 -2.6 0 0 991.5 NA 0.0000 9999 1050 0 0
2019/09/09 08:18:00 BASE 6.23868 332 7.16772 329 -2.6 100 -2.6 0 0 991.6 NA 0.0000 9999 980 0 0
2019/09/09 08:19:00 BASE 6.09168 332 7.10892 328 -2.5 100 -2.5 0 0 991.6 NA 0.0000 9999 980 0 0
2019/09/09 08:20:00 BASE 6.01524 331 7.10892 328 -2.5 100 -2.5 0 0 991.6 NA 0.0000 9999 920 0 0
2019/09/09 08:21:00 BASE 5.97996 331 7.07952 333 -2.5 100 -2.5 0 0 991.6 NA 0.0000 9999 850 2430 0
2019/09/09 08:22:00 BASE 6.26808 332 7.07952 333 -2.5 100 -2.5 0 0 991.6 NA 0.0000 9999 1080 2560 0
2019/09/09 08:23:00 BASE 6.39744 333 7.07952 333 -2.5 100 -2.5 0 0 991.6 NA 0.0000 9999 950 2590 0
2019/09/09 08:24:00 BASE 6.28572 334 7.07952 333 -2.5 100 -2.5 0 0 991.7 NA 0.0000 9999 920 0 0
2019/09/09 08:25:00 BASE 5.88 336 7.07952 333 -2.5 100 -2.5 0 0 991.7 NA 0.0000 9999 1180 0 0
2019/09/09 08:26:00 BASE 5.63892 339 7.07952 333 -2.5 100 -2.5 0 0 991.8 NA 0.0000 9999 460 0 0
2019/09/09 08:27:00 BASE 5.53308 339 6.80316 331 -2.5 100 -2.5 0 0 991.8 NA 0.0000 9999 390 0 0
2019/09/09 08:28:00 BASE 5.36256 336 6.80316 331 -2.5 100 -2.5 0 0 991.8 NA 0.0000 9999 390 0 0
2019/09/09 08:29:00 BASE 5.39196 338 6.80316 331 -2.5 100 -2.5 0 0 991.8 NA 0.0000 9999 360 0 0
2019/09/09 08:30:00 BASE 5.31552 340 6.80316 331 -2.5 100 -2.5 0 0 991.9 NA 0.0000 9999 330 0 0
2019/09/09 08:31:00 BASE 4.98624 339 6.80316 331 -2.5 100 -2.5 0 0 991.9 NA 0.0000 9999 300 0 0
2019/09/09 08:32:00 BASE 4.82748 342 6.80316 331 -2.5 100 -2.5 0 0 991.9 NA 0.0000 9999 300 0 0
2019/09/09 08:33:00 BASE 4.81572 345 6.53268 340 -2.5 100 -2.5 0 0 992.0 NA 0.0000 9999 300 0 0
2019/09/09 08:34:00 BASE 4.76868 345 6.53268 340 -2.5 100 -2.5 0 0 991.9 NA 0.0000 9999 260 0 0
2019/09/09 08:35:00 BASE 4.72164 345 6.53268 340 -2.5 100 -2.5 0 0 991.9 NA 0.0000 9999 260 0 0
2019/09/09 08:36:00 BASE 4.704 344 5.83884 328 -2.5 100 -2.5 0 0 991.9 NA 0.0000 9999 260 0 0
2019/09/09 08:37:00 BASE 4.6158 342 5.83884 328 -2.5 100 -2.5 0 0 992.0 NA 0.0000 9999 300 0 0
2019/09/09 08:38:00 BASE 4.74516 341 5.68596 337 -2.5 100 -2.5 0 0 991.9 NA 0.0000 9999 300 0 0
2019/09/09 08:39:00 BASE 4.8804 345 5.56836 340 -2.5 100 -2.5 0 0 991.9 NA 0.0000 9999 260 0 0
2019/09/09 08:40:00 BASE 4.84512 345 5.53308 341 -2.5 100 -2.5 0 0 991.9 NA 0.0000 9999 300 0 0
2019/09/09 08:41:00 BASE 5.01564 342 5.53308 341 -2.5 100 -2.5 0 0 991.8 NA 0.0000 9999 260 0 0
2019/09/09 08:42:00 BASE 4.96272 342 5.53308 341 -2.5 100 -2.5 0 0 991.8 NA 0.0000 9999 260 0 0
2019/09/09 08:43:00 BASE 4.9392 342 6.02112 339 -2.5 100 -2.5 0 0 991.8 NA 0.0000 9999 230 0 0
2019/09/09 08:44:00 BASE 5.18616 341 6.02112 339 -2.5 100 -2.5 0 0 991.8 NA 0.0000 9999 230 0 0
2019/09/09 08:45:00 BASE 5.20968 341 6.02112 339 -2.5 100 -2.5 0 0 991.8 NA 0.0000 9999 200 0 0
2019/09/09 08:46:00 BASE 4.96272 341 6.02112 339 -2.4 100 -2.4 0 0 991.8 NA 0.0000 9999 200 0 0
2019/09/09 08:47:00 BASE 4.84512 341 6.02112 339 -2.4 100 -2.4 0 0 991.8 NA 0.0000 UP 9999 0 0
2019/09/09 08:48:00 BASE 4.93332 341 6.02112 339 -2.4 100 -2.4 0 0 991.7 NA 0.0000 UP 9999 0 0
2019/09/09 08:49:00 BASE 5.08032 340 6.02112 339 -2.4 100 -2.4 0 0 991.7 NA 0.0000 UP 9999 230 0
2019/09/09 08:50:00 BASE 5.22732 336 6.02112 339 -2.4 100 -2.4 0 0 991.7 NA 0.0000 UP 9999 230 1020
2019/09/09 08:51:00 BASE 5.15088 337 6.02112 339 -2.4 100 -2.4 0 0 991.7 NA 0.0000 UP 9999 230 0
2019/09/09 08:52:00 BASE 5.00388 339 6.02112 339 -2.4 100 -2.4 0 0 991.6 NA 0.0000 UP 9999 260 0
2019/09/09 08:53:00 BASE 4.851 340 5.65656 339 -2.4 100 -2.4 0 0 991.6 NA 0.0000 UP 9999 300 0
2019/09/09 08:54:00 BASE 4.83924 341 5.59776 329 -2.4 100 -2.4 0 0 991.6 NA 0.0000 UP 9999 260 0
2019/09/09 08:55:00 BASE 4.72752 341 5.59776 329 -2.4 100 -2.4 0 0 991.7 NA 0.0000 UP 9999 260 0
2019/09/09 08:56:00 BASE 4.51584 339 5.59776 329 -2.4 100 -2.4 0 0 991.6 NA 0.0000 UP 9999 260 0
2019/09/09 08:57:00 BASE 4.52172 340 5.59776 329 -2.4 100 -2.4 0 0 991.6 NA 0.0000 UP 9999 260 0
2019/09/09 08:58:00 BASE 4.56876 343 5.59776 329 -2.4 100 -2.4 0 0 991.6 NA 0.0000 UP 9999 300 0
2019/09/09 08:59:00 BASE 4.66872 343 5.59776 329 -2.4 100 -2.4 0 0 991.6 NA 0.0000 UP 9999 260 0
2019/09/09 09:00:00 BASE 4.57464 343 5.35668 331 -2.4 100 -2.4 0 0 991.6 NA 0.0000 UP 9999 260 0
2019/09/09 09:01:00 BASE 4.36884 342 5.35668 331 -2.4 100 -2.4 0 0 991.6 NA 0.0000 UP 9999 300 0
2019/09/09 09:02:00 BASE 4.2924 341 5.2038 337 -2.4 100 -2.4 0 0 991.6 NA 0.0000 UP 9999 360 0
2019/09/09 09:03:00 BASE 4.57464 340 5.2038 337 -2.4 100 -2.4 0 0 991.5 NA 0.0000 UP 9999 360 0
2019/09/09 09:04:00 BASE 4.73928 339 5.08032 341 -2.4 100 -2.4 0 0 991.5 NA 0.0000 UP 9999 330 0
2019/09/09 09:05:00 BASE 4.51584 337 5.2038 337 -2.3 100 -2.3 0 0 991.5 NA 0.0000 UP 9999 300 0
2019/09/09 09:06:00 BASE 4.29828 335 5.2038 337 -2.3 100 -2.4 0 0 991.5 NA 0.0000 UP 9999 300 0
2019/09/09 09:07:00 BASE 4.41588 337 5.2038 337 -2.4 100 -2.4 0 0 991.5 NA 0.0000 UP 9999 360 0
2019/09/09 09:08:00 BASE 4.5864 337 5.2038 337 -2.4 100 -2.4 0 0 991.5 NA 0.0000 UP 9999 300 0
2019/09/09 09:09:00 BASE 4.59816 335 5.2038 337 -2.4 100 -2.4 0 0 991.5 NA 0.0000 UP 9999 330 0
2019/09/09 09:10:00 BASE 4.65108 338 5.2626 341 -2.4 100 -2.4 0 0 991.4 NA 0.0000 UP 9999 330 0
2019/09/09 09:11:00 BASE 4.68048 338 5.2626 341 -2.4 100 -2.4 0 0 991.4 NA 0.0000 UP 9999 330 0
2019/09/09 09:12:00 BASE 4.87452 335 5.53308 329 -2.4 100 -2.4 0 0 991.4 NA 0.0000 UP 9999 330 0
2019/09/09 09:13:00 BASE 4.87452 334 5.53308 329 -2.4 100 -2.4 0 0 991.4 NA 0.0000 UP 9999 300 0
2019/09/09 09:14:00 BASE 4.50996 339 5.53308 329 -2.4 100 -2.4 0 0 991.5 NA 0.0000 UP 9999 300 0
2019/09/09 09:15:00 BASE 4.31592 340 5.53308 329 -2.4 100 -2.4 0 0 991.5 NA 0.0000 UP 9999 330 0
2019/09/09 09:16:00 BASE 4.47468 337 5.53308 329 -2.4 100 -2.4 0 0 991.5 NA 0.0000 UP 9999 360 0
2019/09/09 09:17:00 BASE 4.6746 340 5.53308 329 -2.4 100 -2.4 0 0 991.4 NA 0.0000 UP 9999 300 0
2019/09/09 09:18:00 BASE 4.93332 341 5.59776 339 -2.4 100 -2.4 0 0 991.5 NA 0.0000 UP 9999 330 0
2019/09/09 09:19:00 BASE 5.3508 340 5.92704 343 -2.4 100 -2.4 0 0 991.4 NA 0.0000 UP 9999 330 0
2019/09/09 09:20:00 BASE 5.62716 343 6.3504 351 -2.3 100 -2.3 0 0 991.4 NA 0.0000 UP 9999 360 0
2019/09/09 09:21:00 BASE 5.9094 347 6.59148 346 -2.3 100 -2.3 0 0 991.3 NA 0.0000 UP 9999 390 0
2019/09/09 09:22:00 BASE 6.2622 343 6.80316 343 -2.2 100 -2.2 0 0 991.3 NA 0.0000 UP 9999 330 0
2019/09/09 09:23:00 BASE 6.45624 342 7.13832 351 -2.2 100 -2.2 0 0 991.3 NA 0.0000 UP 9999 390 0
2019/09/09 09:24:00 BASE 6.38568 345 7.3794 343 -2.2 100 -2.2 0 0 991.3 NA 0.0000 UP 9999 390 0
2019/09/09 09:25:00 BASE 6.38568 345 7.3794 343 -2.2 100 -2.2 0 0 991.3 NA 0.0000 UP 9999 360 0
2019/09/09 09:26:00 BASE 6.50328 349 7.3794 343 -2.2 100 -2.2 0 0 991.2 NA 0.0000 UP 9999 360 0
2019/09/09 09:27:00 BASE 6.4092 349 7.3794 343 -2.2 100 -2.2 0 0 991.3 NA 0.0000 UP 9999 300 1310
2019/09/09 09:28:00 BASE 6.2622 348 7.3794 343 -2.2 100 -2.2 0 0 991.3 NA 0.0000 UP 9999 300 0
2019/09/09 09:29:00 BASE 5.99172 345 7.3794 343 -2.2 100 -2.2 0 0 991.4 NA 0.0000 9999 330 0 0
2019/09/09 09:30:00 BASE 5.88588 341 7.3794 343 -2.1 100 -2.1 0 0 991.4 NA 0.0000 9999 360 0 0
2019/09/09 09:31:00 BASE 6.00348 341 7.3794 343 -2.1 100 -2.1 0 0 991.3 NA 0.0000 9999 330 0 0
2019/09/09 09:32:00 BASE 6.0858 341 7.3794 343 -2.1 100 -2.1 0 0 991.3 NA 0.0000 9999 390 0 0
2019/09/09 09:33:00 BASE 6.4974 340 7.74396 343 -2.1 100 -2.1 0 0 991.2 NA 0.0000 9999 1050 0 0
2019/09/09 09:34:00 BASE 7.12656 340 8.2908 338 -2.1 100 -2.1 0 0 991.1 NA 0.0000 9999 430 0 0
2019/09/09 09:35:00 BASE 7.25592 339 8.2908 338 -2.1 100 -2.1 0 0 991.1 NA 0.0000 9999 390 0 0
2019/09/09 09:36:00 BASE 6.82668 339 8.2908 338 -2.1 100 -2.1 0 0 991.1 NA 0.0000 9999 330 0 0
2019/09/09 09:37:00 BASE 6.37392 340 8.2908 338 -2.1 100 -2.1 0 0 991.2 NA 0.0000 9999 300 1250 0
2019/09/09 09:38:00 BASE 6.89724 341 8.62008 346 -2.0 100 -2.0 0 0 990.9 NA 0.0000 9999 390 0 0
2019/09/09 09:39:00 BASE 7.67928 340 8.62008 346 -2.0 100 -2.0 0 0 991.0 NA 0.0000 9999 620 0 0
2019/09/09 09:40:00 BASE 7.43232 340 8.62008 346 -2.0 100 -2.0 0 0 990.9 NA 0.0000 9999 360 0 0
2019/09/09 09:41:00 BASE 7.3206 340 8.62008 346 -2.0 100 -2.0 0 0 990.9 NA 0.0000 9999 460 0 0
2019/09/09 09:42:00 BASE 7.4382 340 8.62008 346 -2.0 100 -2.0 0 0 990.9 NA 0.0000 9999 520 1640 0
2019/09/09 09:43:00 BASE 7.47348 341 8.62008 346 -2.0 100 -2.0 0 0 990.8 NA 0.0000 9999 390 0 0
2019/09/09 09:44:00 BASE 7.60284 338 8.74356 328 -2.0 100 -2.0 0 0 990.8 NA 0.0000 9999 430 0 0
2019/09/09 09:45:00 BASE 7.8204 340 8.83176 348 -2.0 100 -2.0 0 0 990.6 NA 0.0000 9999 1080 0 0
2019/09/09 09:46:00 BASE 7.75572 345 8.83176 348 -2.0 100 -2.0 0 0 990.6 NA 0.0000 9999 520 0 0
2019/09/09 09:47:00 BASE 7.15008 343 8.83176 348 -2.0 100 -2.0 0 0 990.7 NA 0.0000 9999 720 0 0
2019/09/09 09:48:00 BASE 7.32648 338 9.19632 332 -2.0 100 -2.0 0 0 990.7 NA 0.0000 9999 720 0 0
2019/09/09 09:49:00 BASE 7.6146 335 9.19632 332 -2.0 100 -2.0 0 0 990.7 NA 0.0000 9999 390 0 0
2019/09/09 09:50:00 BASE 7.7616 337 9.19632 332 -2.0 100 -2.0 0 0 990.5 NA 0.0000 9999 2990 0 0
2019/09/09 09:51:00 BASE 7.82628 339 9.19632 332 -2.0 100 -2.0 0 0 990.6 NA 0.0000 9999 460 0 0
2019/09/09 09:52:00 BASE 7.73808 344 9.5256 341 -2.0 100 -2.0 0 0 990.4 NA 0.0000 9999 390 0 0
2019/09/09 09:53:00 BASE 8.39076 346 10.7663 339 -2.0 100 -2.0 0 0 990.4 NA 0.0000 9999 390 2890 0
2019/09/09 09:54:00 BASE 8.30256 340 10.7663 339 -2.0 100 -2.0 0 0 990.5 NA 0.0000 9999 0 0 0
2019/09/09 09:55:00 BASE 7.71456 341 10.7663 339 -2.0 100 -2.0 0 0 990.5 NA 0.0000 9999 0 0 0
2019/09/09 09:56:00 BASE 8.04384 343 10.7663 339 -2.0 100 -2.0 0 0 990.4 NA 0.0000 9999 0 0 0
2019/09/09 09:57:00 BASE 8.4084 340 10.7663 339 -2.0 100 -2.0 0 0 990.4 NA 0.0000 9999 0 0 0
2019/09/09 09:58:00 BASE 8.29668 336 10.7663 339 -2.0 100 -2.0 0 0 990.4 NA 0.0000 9999 1480 0 0
2019/09/09 09:59:00 BASE 8.12616 338 10.7663 339 -1.9 100 -1.9 0 0 990.5 NA 0.0000 9999 0 0 0
2019/09/09 10:00:00 BASE 8.526 341 10.7663 339 -1.9 100 -1.9 0 0 990.4 NA 0.0000 9999 390 0 0
2019/09/09 10:01:00 BASE 8.84352 340 10.7663 339 -1.9 100 -1.9 0 0 990.3 NA 0.0000 9999 460 0 0
2019/09/09 10:02:00 BASE 8.13204 338 10.7663 339 -1.9 100 -1.9 0 0 990.5 NA 0.0000 9999 0 0 0
2019/09/09 10:03:00 BASE 7.9674 337 10.2547 334 -1.9 100 -1.9 0 0 990.4 NA 0.0000 9999 0 0 0
2019/09/09 10:04:00 BASE 8.526 337 10.2547 334 -1.9 100 -1.9 0 0 990.4 NA 0.0000 9999 1710 0 0
2019/09/09 10:05:00 BASE 9.23748 337 11.1014 335 -1.8 100 -1.8 0 0 990.4 NA 0.0000 9999 0 0 0
2019/09/09 10:06:00 BASE 10.2018 338 11.5542 333 -1.8 100 -1.8 0 0 990.4 NA 0.0000 9999 0 0 0
2019/09/09 10:07:00 BASE 10.9074 336 12.7361 336 -1.8 100 -1.8 0 0 990.4 NA 0.0000 9999 360 0 0
2019/09/09 10:08:00 BASE 10.337 337 12.7361 336 -1.8 100 -1.8 0 0 990.5 NA 0.0000 7000 0 0 0
2019/09/09 10:09:00 BASE 9.68436 343 12.7361 336 -1.8 100 -1.8 0 0 990.4 NA 0.0000 -SN 9999 390 0
2019/09/09 10:10:00 BASE 9.77844 346 12.7361 336 -1.8 100 -1.8 0 0 990.5 NA 0.0000 -SN 9999 360 0
2019/09/09 10:11:00 BASE 9.94308 346 12.7361 336 -1.8 100 -1.8 0 0 990.4 NA 0.0000 -SN 9999 360 0
2019/09/09 10:12:00 BASE 10.1842 344 12.7361 336 -1.9 100 -1.9 0 0 990.4 NA 0.0000 -SN 9999 300 0
2019/09/09 10:13:00 BASE 10.3194 343 12.7361 336 -1.9 100 -1.9 0 0 990.4 NA 0.0000 -SN 9999 300 0
2019/09/09 10:14:00 BASE 10.5134 343 12.7361 336 -1.9 100 -1.9 0 0 990.4 NA 0.0000 -SN 9999 330 0
2019/09/09 10:15:00 BASE 10.4546 346 12.7361 336 -1.9 100 -1.9 0 0 990.4 NA 0.0000 -SN 9999 390 0
2019/09/09 10:16:00 BASE 9.90192 348 12.7361 336 -1.9 100 -1.9 0 0 990.5 NA 0.0000 -SN 9999 390 0
2019/09/09 10:17:00 BASE 9.81372 348 11.6777 345 -1.9 100 -1.9 0 0 990.4 NA 0.0000 -SN 9999 2530 0
2019/09/09 10:18:00 BASE 10.2959 351 11.6777 345 -1.9 100 -1.9 0 0 990.4 NA 0.0000 9999 0 0 0
2019/09/09 10:19:00 BASE 10.0313 352 11.6777 345 -1.9 100 -1.9 0 0 990.5 NA 0.0000 9999 390 0 0
2019/09/09 10:20:00 BASE 10.0254 348 11.6777 345 -1.9 100 -1.9 0 0 990.4 NA 0.0000 9999 0 0 0
2019/09/09 10:21:00 BASE 10.4252 346 11.8247 344 -1.9 100 -1.9 0 0 990.4 NA 0.0000 9999 0 0 0
2019/09/09 10:22:00 BASE 10.484 346 11.8247 344 -1.9 100 -1.9 0 0 990.5 NA 0.0000 9999 460 0 0
2019/09/09 10:23:00 BASE 10.2194 347 11.8247 344 -1.9 100 -1.9 0 0 990.5 NA 0.0000 9999 2620 0 0
2019/09/09 10:24:00 BASE 9.86664 346 11.8247 344 -1.9 100 -1.9 0 0 990.6 NA 0.0000 9999 0 0 0
2019/09/09 10:25:00 BASE 10.2253 345 11.8247 344 -1.9 100 -1.9 0 0 990.4 NA 0.0000 9999 0 0 0
2019/09/09 10:26:00 BASE 10.6369 345 11.8247 344 -1.9 100 -1.9 0 0 990.5 NA 0.0000 9999 0 0 0
2019/09/09 10:27:00 BASE 9.72552 345 11.8247 344 -1.9 100 -1.9 0 0 990.7 NA 0.0000 9999 0 0 0
2019/09/09 10:28:00 BASE 9.33744 347 11.8247 344 -1.9 100 -1.9 0 0 990.6 NA 0.0000 9999 330 0 0
2019/09/09 10:29:00 BASE 10.0666 348 11.8247 344 -1.9 100 -1.9 0 0 990.6 NA 0.0000 9999 360 0 0
2019/09/09 10:30:00 BASE 10.4135 347 11.8247 344 -1.9 100 -1.9 0 0 990.5 NA 0.0000 9999 300 0 0
2019/09/09 10:31:00 BASE 10.7604 347 12.3715 350 -1.9 100 -1.9 0 0 990.6 NA 0.0000 9999 1670 0 0
2019/09/09 10:32:00 BASE 11.4425 348 12.5244 351 -1.8 100 -1.8 0 0 990.5 NA 0.0000 9999 0 0 0
2019/09/09 10:33:00 BASE 11.6542 348 12.8243 343 -1.8 100 -1.8 0 0 990.6 NA 0.0000 9999 390 0 0
2019/09/09 10:34:00 BASE 11.5542 348 12.8243 343 -1.8 100 -1.8 0 0 990.6 NA 0.0000 9999 330 0 0
2019/09/09 10:35:00 BASE 11.3543 347 12.8243 343 -1.8 100 -1.8 0 0 990.7 NA 0.0000 9999 0 0 0
2019/09/09 10:36:00 BASE 11.0603 345 12.8243 343 -1.8 100 -1.8 0 0 990.7 NA 0.0000 9999 0 0 0
2019/09/09 10:37:00 BASE 10.6193 345 12.8243 343 -1.8 100 -1.8 0 0 990.8 NA 0.0000 9999 0 0 0
2019/09/09 10:38:00 BASE 10.0901 350 12.8243 343 -1.8 100 -1.8 0 0 990.7 NA 0.0000 9999 0 0 0
2019/09/09 10:39:00 BASE 10.0901 351 12.8243 343 -1.8 100 -1.8 0 0 990.7 NA 0.0000 9999 1380 0 0
2019/09/09 10:40:00 BASE 10.584 345 12.8243 343 -1.8 100 -1.8 0 0 990.7 NA 0.0000 9999 0 0 0
2019/09/09 10:41:00 BASE 11.272 342 12.8243 343 -1.8 100 -1.8 0 0 990.6 NA 0.0000 9999 300 0 0
2019/09/09 10:42:00 BASE 10.7251 345 12.8243 343 -1.8 100 -1.8 0 0 990.7 NA 0.0000 9999 300 0 0
2019/09/09 10:43:00 BASE 10.2312 349 12.7067 347 -1.8 100 -1.8 0 0 990.6 NA 0.0000 9999 260 0 0
2019/09/09 10:44:00 BASE 10.5722 353 12.495 343 -1.8 100 -1.8 0 0 990.5 NA 0.0000 9999 260 0 0
2019/09/09 10:45:00 BASE 10.6781 353 12.495 343 -1.8 100 -1.8 0 0 990.5 NA 0.0000 9999 0 0 0
2019/09/09 10:46:00 BASE 10.7428 350 12.495 343 -1.8 100 -1.8 0 0 990.5 NA 0.0000 9999 260 0 0
2019/09/09 10:47:00 BASE 10.2312 348 12.495 343 -1.8 100 -1.8 0 0 990.6 NA 0.0000 9999 260 0 0
2019/09/09 10:48:00 BASE 10.2194 348 12.495 343 -1.8 100 -1.8 0 0 990.5 NA 0.0000 9999 0 0 0
2019/09/09 10:49:00 BASE 11.0838 348 12.5832 350 -1.8 100 -1.8 0 0 990.4 NA 0.0000 9999 260 0 0
2019/09/09 10:50:00 BASE 11.319 348 13.2476 347 -1.8 100 -1.8 0 0 990.4 NA 0.0000 9999 0 0 0
2019/09/09 10:51:00 BASE 11.5836 350 13.2476 347 -1.8 100 -1.8 0 0 990.4 NA 0.0000 9999 260 0 0
2019/09/09 10:52:00 BASE 11.0779 347 13.2476 347 -1.8 100 -1.8 0 0 990.5 NA 0.0000 9999 230 0 0
2019/09/09 10:53:00 BASE 10.3664 348 13.2476 347 -1.8 100 -1.8 0 0 990.5 NA 0.0000 9999 260 0 0
2019/09/09 10:54:00 BASE 10.3606 352 13.2476 347 -1.8 100 -1.8 0 0 990.5 NA 0.0000 9999 0 0 0
2019/09/09 10:55:00 BASE 10.4429 350 13.2476 347 -1.8 100 -1.8 0 0 990.5 NA 0.0000 9999 0 0 0
2019/09/09 10:56:00 BASE 11.1191 349 13.2476 347 -1.8 100 -1.8 0 0 990.4 NA 0.0000 9999 0 0 0
2019/09/09 10:57:00 BASE 11.8717 348 13.2476 347 -1.8 100 -1.8 0 0 990.3 NA 0.0000 9999 0 0 0
2019/09/09 10:58:00 BASE 11.8952 347 13.2476 347 -1.8 100 -1.8 0 0 990.3 NA 0.0000 9999 0 0 0
2019/09/09 10:59:00 BASE 11.0485 348 13.2476 347 -1.8 100 -1.8 0 0 990.4 NA 0.0000 9999 0 0 0
2019/09/09 11:00:00 BASE 10.3312 352 13.036 349 -1.8 100 -1.8 0 0 990.4 NA 0.0000 9999 0 0 0
2019/09/09 11:01:00 BASE 10.9309 353 13.036 349 -1.7 100 -1.7 0 0 990.2 NA 0.0000 9999 0 0 0
2019/09/09 11:02:00 BASE 11.9658 352 13.2182 348 -1.7 100 -1.7 1 0 990.1 NA 0.0000 9999 0 0 0
2019/09/09 11:03:00 BASE 12.3774 352 14.0062 348 -1.7 100 -1.7 1 0 990.1 NA 0.0000 9999 0 0 0
2019/09/09 11:04:00 BASE 12.3656 353 14.0062 348 -1.7 100 -1.7 1 0 990.1 NA 0.0000 9999 0 0 0
2019/09/09 11:05:00 BASE 11.7718 353 14.0062 348 -1.7 100 -1.7 1 0 990.2 NA 0.0000 9999 0 0 0
2019/09/09 11:06:00 BASE 11.4719 355 14.0062 348 -1.7 100 -1.7 1 0 990.2 NA 0.0000 9999 0 0 0
2019/09/09 11:07:00 BASE 11.5954 354 14.0062 348 -1.7 100 -1.7 1 0 990.1 NA 0.0000 9999 0 0 0
2019/09/09 11:08:00 BASE 11.907 354 14.0062 348 -1.7 100 -1.7 1 0 990.0 NA 0.0000 9999 0 0 0
2019/09/09 11:09:00 BASE 12.4538 349 14.0062 348 -1.7 100 -1.7 1 0 989.9 NA 0.0000 9999 0 0 0
2019/09/09 11:10:00 BASE 13.0007 346 14.065 344 -1.7 100 -1.7 1 0 989.8 NA 0.0000 9999 0 0 0
2019/09/09 11:11:00 BASE 12.9713 353 14.159 350 -1.7 100 -1.7 1 0 989.8 NA 0.0000 9999 0 0 0
2019/09/09 11:12:00 BASE 11.907 356 14.159 350 -1.7 100 -1.7 2 0 990.0 NA 0.0000 9999 0 0 0
2019/09/09 11:13:00 BASE 11.466 352 14.159 350 -1.7 100 -1.7 2 0 989.9 NA 0.0000 9999 0 0 0
2019/09/09 11:14:00 BASE 11.9776 351 14.6706 183 -1.7 100 -1.7 2 0 989.8 NA 0.0000 9999 0 0 0
2019/09/09 11:15:00 BASE 12.4832 352 14.6706 183 -1.7 100 -1.7 2 0 989.7 NA 0.0000 9999 0 0 0
2019/09/09 11:16:00 BASE 12.936 347 14.6706 183 -1.7 100 -1.7 2 0 989.7 NA 0.0000 9999 0 0 0
2019/09/09 11:17:00 BASE 12.3304 351 14.6706 183 -1.7 100 -1.7 2 0 989.8 NA 0.0000 9999 0 0 0
2019/09/09 11:18:00 BASE 11.2132 354 14.6706 183 -1.7 100 -1.7 2 0 989.9 NA 0.0000 9999 0 0 0
2019/09/09 11:19:00 BASE 11.2484 351 14.6706 183 -1.7 100 -1.7 2 0 989.8 NA 0.0000 9999 0 0 0
2019/09/09 11:20:00 BASE 12.0775 350 14.6706 183 -1.7 100 -1.7 2 0 989.7 NA 0.0000 9999 0 0 0
2019/09/09 11:21:00 BASE 12.7714 350 14.7588 355 -1.7 100 -1.7 2 0 989.7 NA 0.0000 9999 0 0 0
2019/09/09 11:22:00 BASE 13.0066 350 14.7588 355 -1.7 100 -1.7 3 0 989.7 NA 0.0000 9999 0 0 0
2019/09/09 11:23:00 BASE 12.789 349 14.7588 355 -1.7 100 -1.7 3 0 989.7 NA 0.0000 9999 0 0 0
2019/09/09 11:24:00 BASE 12.6126 352 14.7588 355 -1.7 100 -1.7 3 0 989.7 NA 0.0000 9999 0 0 0
2019/09/09 11:25:00 BASE 12.6832 355 14.7588 355 -1.7 100 -1.7 3 0 989.7 NA 0.0000 9999 300 0 0
2019/09/09 11:26:00 BASE 12.789 353 14.7588 355 -1.7 100 -1.7 3 0 989.7 NA 0.0000 9999 230 0 0
2019/09/09 11:27:00 BASE 12.9713 350 14.7588 349 -1.7 100 -1.7 3 0 989.6 NA 0.0000 9999 0 0 0
2019/09/09 11:28:00 BASE 13.3417 349 14.7588 351 -1.7 100 -1.7 3 0 989.6 NA 0.0000 9999 0 0 0
2019/09/09 11:29:00 BASE 13.2241 347 14.7588 351 -1.7 100 -1.7 3 0 989.6 NA 0.0000 9999 0 0 0
2019/09/09 11:30:00 BASE 13.2476 348 14.7588 351 -1.7 100 -1.7 3 0 989.4 NA 0.0000 9999 0 0 0
2019/09/09 11:31:00 BASE 13.5475 352 14.8235 349 -1.7 100 -1.7 4 0 989.4 NA 0.0000 9999 0 0 0
2019/09/09 11:32:00 BASE 13.277 352 14.8235 349 -1.7 100 -1.7 4 0 989.5 NA 0.0000 9999 0 0 0
2019/09/09 11:33:00 BASE 12.6008 350 14.8235 349 -1.7 100 -1.7 4 0 989.6 NA 0.0000 9999 0 0 0
2019/09/09 11:34:00 BASE 12.2128 350 14.8235 349 -1.7 100 -1.7 4 0 989.6 NA 0.0000 9999 300 0 0
2019/09/09 11:35:00 BASE 12.0305 349 14.8235 349 -1.7 100 -1.7 5 0 989.6 NA 0.0000 9999 300 0 0
2019/09/09 11:36:00 BASE 12.1246 350 14.9705 350 -1.7 100 -1.7 5 0 989.5 NA 0.0000 9999 0 0 0
2019/09/09 11:37:00 BASE 13.1477 347 14.9705 350 -1.7 100 -1.7 5 0 989.3 NA 0.0000 9999 0 0 0
2019/09/09 11:38:00 BASE 12.836 348 14.9705 350 -1.7 100 -1.7 6 0 989.5 NA 0.0000 9000 0 0 0
2019/09/09 11:39:00 BASE 12.0658 352 14.9705 350 -1.7 100 -1.7 6 0 989.4 NA 0.0000 9999 0 0 0
2019/09/09 11:40:00 BASE 12.5126 350 14.9705 350 -1.7 100 -1.7 7 0 989.4 NA 0.0000 9999 0 0 0
2019/09/09 11:41:00 BASE 12.6479 347 14.9705 350 -1.7 100 -1.7 7 0 989.4 NA 0.0000 9999 260 0 0
2019/09/09 11:42:00 BASE 11.8894 351 14.9705 350 -1.6 100 -1.6 7 0 989.5 NA 0.0000 9999 0 0 0
2019/09/09 11:43:00 BASE 12.4244 349 16.3934 341 -1.6 100 -1.6 8 0 989.3 NA 0.0000 9999 0 0 0
2019/09/09 11:44:00 BASE 12.9889 347 16.3934 341 -1.6 100 -1.6 8 0 989.4 NA 0.0000 9000 0 0 0
2019/09/09 11:45:00 BASE 11.9423 353 16.3934 341 -1.6 100 -1.6 9 0 989.4 NA 0.0000 9000 0 0 0
2019/09/09 11:46:00 BASE 11.1191 350 16.3934 341 -1.6 100 -1.6 10 0 989.5 NA 0.0000 9999 0 0 0
2019/09/09 11:47:00 BASE 11.0132 347 16.3934 341 -1.6 100 -1.6 11 0 989.4 NA 0.0000 9999 0 0 0
2019/09/09 11:48:00 BASE 11.9893 350 16.3934 341 -1.6 100 -1.6 12 0 989.2 NA 0.0000 9999 0 0 0
2019/09/09 11:49:00 BASE 12.1657 348 16.3934 341 -1.6 100 -1.6 12 0 989.3 NA 0.0000 9999 0 0 0
2019/09/09 11:50:00 BASE 11.7659 355 16.3934 341 -1.6 100 -1.6 13 0 989.3 NA 0.0000 9999 0 0 0
2019/09/09 11:51:00 BASE 12.4362 1 16.3934 341 -1.6 100 -1.6 13 0 989.2 NA 0.0000 9999 0 0 0
2019/09/09 11:52:00 BASE 12.936 354 16.3934 341 -1.6 100 -1.6 14 0 989.2 NA 0.0000 9999 0 0 0
2019/09/09 11:53:00 BASE 12.8243 353 15.2468 340 -1.6 100 -1.6 14 0 989.2 NA 0.0000 9999 0 0 0
2019/09/09 11:54:00 BASE 12.2833 354 14.4295 1 -1.5 100 -1.5 14 0 989.3 NA 0.0000 9999 0 0 0
2019/09/09 11:55:00 BASE 11.5366 354 14.4295 1 -1.5 100 -1.5 14 0 989.3 NA 0.0000 9999 0 0 0
2019/09/09 11:56:00 BASE 11.9893 354 15.1234 2 -1.5 100 -1.5 15 0 989.1 NA 0.0000 9999 0 0 0
2019/09/09 11:57:00 BASE 12.789 352 15.1234 2 -1.5 100 -1.5 15 0 989.1 NA 0.0000 9999 0 0 0
2019/09/09 11:58:00 BASE 12.7243 350 15.2468 334 -1.5 100 -1.5 15 0 989.1 NA 0.0000 9999 300 0 0
2019/09/09 11:59:00 BASE 12.8948 346 15.2468 334 -1.5 100 -1.5 15 0 989.0 NA 0.0000 9999 300 0 0
2019/09/09 12:00:00 BASE 13.524 351 16.2112 6 -1.5 100 -1.5 16 0 988.9 NA 0.0000 9999 300 0 0
2019/09/09 12:01:00 BASE 13.4887 358 16.2112 6 -1.4 100 -1.4 16 0 989.0 NA 0.0000 9999 0 0 0
2019/09/09 12:02:00 BASE 13.5475 356 16.2112 6 -1.4 100 -1.4 16 0 988.9 NA 0.0000 9999 0 0 0
2019/09/09 12:03:00 BASE 13.8827 355 16.2112 6 -1.4 100 -1.4 17 0 988.8 NA 0.0000 9999 0 0 0
2019/09/09 12:04:00 BASE 14.3237 352 16.6992 323 -1.3 100 -1.3 17 0 988.7 NA 0.0000 9999 0 0 0
2019/09/09 12:05:00 BASE 14.0708 354 16.6992 323 -1.3 100 -1.3 17 0 988.9 NA 0.0000 9999 0 0 0
2019/09/09 12:06:00 BASE 13.7945 355 16.6992 323 -1.3 100 -1.3 16 0 988.8 NA 0.0000 9999 0 0 0
2019/09/09 12:07:00 BASE 14.7294 348 17.6929 352 -1.2 100 -1.2 16 0 988.6 NA 0.0000 9999 0 0 0
2019/09/09 12:08:00 BASE 15.0234 350 17.6929 352 -1.2 100 -1.2 15 0 988.6 NA 0.0000 9999 0 0 0
2019/09/09 12:09:00 BASE 14.8 353 17.6929 352 -1.1 100 -1.1 14 0 988.7 NA 0.0000 9999 0 0 0
2019/09/09 12:10:00 BASE 14.5118 352 17.6929 352 -1.1 100 -1.1 14 0 988.7 NA 0.0000 9000 0 0 0
2019/09/09 12:11:00 BASE 13.9532 358 17.6929 352 -1.1 100 -1.1 14 0 988.7 NA 0.0000 9999 0 0 0
2019/09/09 12:12:00 BASE 14.0473 0 17.9105 6 -1.1 100 -1.1 14 0 988.6 NA 0.0000 UP 9999 0 0
2019/09/09 12:13:00 BASE 15.4526 355 17.9105 6 -1.0 100 -1.0 15 0 988.3 NA 0.0000 UP 9999 0 0
2019/09/09 12:14:00 BASE 16.0054 351 17.9105 6 -1.0 100 -1.0 15 0 988.4 NA 0.0000 UP 9999 0 0
2019/09/09 12:15:00 BASE 15.3292 352 17.9105 6 -0.9 100 -0.9 17 0 988.5 NA 0.0000 UP 9000 0 0
2019/09/09 12:16:00 BASE 14.5589 352 17.9105 6 -0.9 100 -0.9 18 0 988.6 NA 0.0000 UP 9999 0 0
2019/09/09 12:17:00 BASE 14.8705 353 17.9105 6 -0.9 100 -0.9 19 0 988.4 NA 0.0000 UP BR 9999 0
2019/09/09 12:18:00 BASE 16.0406 354 17.9693 352 -0.8 100 -0.8 20 0 988.3 NA 0.0000 UP BR 9000 0
2019/09/09 12:19:00 BASE 15.9054 347 17.9693 352 -0.8 100 -0.8 21 0 988.3 NA 0.0000 UP BR 9000 0
2019/09/09 12:20:00 BASE 15.8936 347 19.3276 347 -0.8 100 -0.8 22 0 988.3 NA 0.0000 UP BR 9000 0
2019/09/09 12:21:00 BASE 16.2641 352 19.3276 347 -0.8 100 -0.8 23 0 988.2 NA 0.0000 UP BR 9000 0
2019/09/09 12:22:00 BASE 15.9583 352 19.3276 347 -0.8 100 -0.8 23 0 988.2 NA 0.0000 UP BR 9000 0
2019/09/09 12:23:00 BASE 15.9466 353 19.3276 347 -0.8 100 -0.8 23 0 988.1 NA 0.0000 UP BR 9000 0
2019/09/09 12:24:00 BASE 16.0112 354 19.3276 347 -0.9 100 -0.9 22 0 988.2 NA 0.0000 UP BR 9000 0
2019/09/09 12:25:00 BASE 15.435 348 19.3276 347 -0.9 100 -0.9 21 0 988.3 NA 0.0000 UP BR 9000 0
2019/09/09 12:26:00 BASE 14.259 350 19.3276 347 -0.9 100 -0.9 19 0 988.4 NA 0.0000 UP BR 9000 0
2019/09/09 12:27:00 BASE 13.6475 353 19.3276 347 -0.9 100 -0.9 17 0 988.5 NA 0.0000 UP BR 9000 0
2019/09/09 12:28:00 BASE 14.0003 352 19.3276 347 -0.9 100 -0.9 16 0 988.5 NA 0.0000 UP BR 9000 0
2019/09/09 12:29:00 BASE 13.9415 351 19.3276 347 -0.9 100 -0.9 15 0 988.5 NA 0.0000 UP BR 9000 0
2019/09/09 12:30:00 BASE 14.259 350 18.5749 352 -0.9 100 -0.9 15 0 988.4 NA 0.0000 UP BR 9000 0
2019/09/09 12:31:00 BASE 15.2586 351 18.5749 352 -0.9 100 -0.9 17 0 988.2 NA 0.0000 UP BR 9000 0
2019/09/09 12:32:00 BASE 15.5526 350 18.5749 352 -1.0 100 -1.0 19 0 988.2 NA 0.0000 UP BR 7000 0
2019/09/09 12:33:00 BASE 14.6 352 18.5749 352 -1.0 100 -1.0 21 0 988.3 NA 0.0000 UP BR 8000 0
2019/09/09 12:34:00 BASE 14.5765 352 17.9987 1 -1.0 100 -1.0 23 0 988.2 NA 0.0000 UP BR 9000 0
2019/09/09 12:35:00 BASE 14.947 349 17.9987 1 -1.0 100 -1.0 26 0 988.2 NA 0.0000 UP BR 9000 0
2019/09/09 12:36:00 BASE 14.7941 349 17.9987 1 -1.0 100 -1.0 29 0 988.2 NA 0.0000 UP BR 9000 0
2019/09/09 12:37:00 BASE 15.3527 351 18.0869 349 -1.0 100 -1.0 32 0 988.1 NA 0.0000 UP BR 9000 0
2019/09/09 12:38:00 BASE 15.8348 349 18.0869 349 -0.9 100 -0.9 34 0 988.1 NA 0.0000 UP BR 8000 0
2019/09/09 12:39:00 BASE 16.4522 347 19.6627 343 -0.9 100 -0.9 34 0 988.0 NA 0.0000 UP BR 8000 0
2019/09/09 12:40:00 BASE 16.905 348 19.6627 343 -0.9 100 -0.9 35 0 988.0 NA 0.0000 UP BR 9000 0
2019/09/09 12:41:00 BASE 16.5052 350 19.6627 343 -0.9 100 -0.9 37 0 988.1 NA 0.0000 UP BR 9000 0
2019/09/09 12:42:00 BASE 15.7584 348 19.6627 343 -0.9 100 -0.9 38 0 988.1 NA 0.0000 UP BR 9000 0
2019/09/09 12:43:00 BASE 15.2292 352 19.6627 343 -0.9 100 -0.9 38 0 988.2 NA 0.0000 UP BR 9000 0
2019/09/09 12:44:00 BASE 15.2292 354 19.6627 343 -0.9 100 -0.9 38 0 988.0 NA 0.0000 UP BR 9000 0
2019/09/09 12:45:00 BASE 16.3405 352 20.1449 353 -0.9 100 -0.9 37 0 987.7 NA 0.0000 UP BR 9000 0
2019/09/09 12:46:20 BASE 15.3174 356 20.1449 353 -0.9 100 -0.9 36 0 988.0 NA 0.0000 UP BR 9000 0
2019/09/09 12:47:00 BASE 14.7823 355 20.1449 353 -0.9 100 -0.9 35 0 987.8 NA 0.0000 UP BR 9000 0
2019/09/09 12:48:00 BASE 14.747 351 20.1449 353 -0.9 100 -0.9 36 0 987.9 NA 0.0000 UP BR 9000 790
2019/09/09 12:49:00 BASE 14.8294 349 20.1449 353 -0.9 100 -0.9 37 0 987.7 NA 0.0000 UP BR 9000 0
2019/09/09 12:50:00 BASE 16.1935 347 20.1449 353 -0.9 100 -0.9 40 0 987.5 NA 0.0000 UP BR 9000 0
2019/09/09 12:51:00 BASE 16.8991 347 20.1449 353 -0.9 100 -0.9 43 0 987.5 NA 0.0000 BR 9000 0 0
2019/09/09 12:52:00 BASE 16.1759 347 20.1449 353 -0.9 100 -0.9 48 0 987.8 NA 0.0000 BR 9000 0 0
2019/09/09 12:53:00 BASE 15.9466 349 20.1449 353 -0.9 100 -0.9 54 0 987.6 NA 0.0000 BR 9000 0 0
2019/09/09 12:54:00 BASE 16.317 350 20.1449 353 -0.9 100 -0.9 60 0 987.5 NA 0.0000 BR 9000 0 0
2019/09/09 12:55:00 BASE 15.4938 350 18.6337 343 -0.9 100 -0.9 69 0 987.7 NA 0.0000 UP BR 9000 0
2019/09/09 12:56:00 BASE 14.5001 352 18.6337 343 -0.9 100 -0.9 80 0 987.8 NA 0.0000 UP BR 9000 0
2019/09/09 12:57:00 BASE 14.5824 350 18.6337 343 -0.9 100 -0.9 88 0 987.9 NA 0.0000 UP BR 9999 0
2019/09/09 12:58:00 BASE 14.5471 349 18.6337 343 -0.8 100 -0.8 95 0 988.0 NA 0.0000 UP BR 9999 0
2019/09/09 12:59:00 BASE 15.1645 350 18.6337 343 -0.8 100 -0.8 98 0 987.7 NA 0.0000 UP BR 9999 0
2019/09/09 13:00:00 BASE 15.6937 351 18.2104 346 -0.8 100 -0.8 99 0 987.7 NA 0.0000 UP BR 9999 0
2019/09/09 13:01:00 BASE 15.6408 352 17.7282 347 -0.8 100 -0.8 99 0 987.7 NA 0.0000 UP BR 9000 0
2019/09/09 13:02:00 BASE 15.7584 351 17.7282 347 -0.8 100 -0.8 97 0 987.7 NA 0.0000 UP BR 9000 0
2019/09/09 13:03:00 BASE 16.1288 350 18.3338 346 -0.8 100 -0.8 97 0 987.5 NA 0.0000 UP BR 9000 0
2019/09/09 13:04:00 BASE 15.3233 348 18.3338 346 -0.9 100 -0.9 98 0 987.8 NA 0.0000 UP BR 9000 0
2019/09/09 13:05:00 BASE 14.5118 347 18.3338 346 -0.9 100 -0.9 98 0 987.6 NA 0.0000 UP BR 9000 0
2019/09/09 13:06:00 BASE 14.9881 347 18.3338 346 -0.9 100 -0.9 93 0 987.5 NA 0.0000 UP BR 9000 0
2019/09/09 13:07:00 BASE 15.6702 348 18.3338 346 -0.9 100 -0.9 87 0 987.3 NA 0.0000 UP BR 9999 0
2019/09/09 13:08:00 BASE 16.6933 348 18.7572 349 -0.9 100 -0.9 82 0 987.2 NA 0.0000 UP BR 9000 0
2019/09/09 13:09:00 BASE 16.611 347 18.7572 349 -0.8 100 -0.8 79 0 987.3 NA 0.0000 UP BR 9000 0
2019/09/09 13:10:00 BASE 15.2645 347 18.7572 349 -0.8 100 -0.8 77 0 987.5 NA 0.0000 UP BR 9000 0
2019/09/09 13:11:00 BASE 14.2296 346 18.7572 349 -0.8 100 -0.8 74 0 987.5 NA 0.0000 UP BR 9999 22840
2019/09/09 13:12:00 BASE 14.2296 349 18.7572 349 -0.8 100 -0.8 73 0 987.5 NA 0.0000 UP BR 9000 0
2019/09/09 13:13:00 BASE 14.5354 351 18.7572 349 -0.8 100 -0.8 74 0 987.3 NA 0.0000 BR 9999 0 0
2019/09/09 13:14:00 BASE 14.4472 351 18.7572 349 -0.8 100 -0.8 75 0 987.3 NA 0.0000 BR 9999 0 0
2019/09/09 13:15:00 BASE 14.7235 350 18.7572 349 -0.8 100 -0.8 78 0 987.2 NA 0.0000 BR 9999 0 0
2019/09/09 13:16:00 BASE 15.0469 350 18.7572 349 -0.8 100 -0.8 80 0 987.2 NA 0.0000 BR 9999 0 0
2019/09/09 13:17:00 BASE 14.9352 348 18.7572 349 -0.7 100 -0.7 79 0 987.2 NA 0.0000 BR 9999 0 0
2019/09/09 13:18:00 BASE 14.653 348 17.4812 348 -0.7 100 -0.7 78 0 987.2 NA 0.0000 BR 9999 0 0
2019/09/09 13:19:00 BASE 13.9591 349 17.3342 351 -0.7 100 -0.7 78 0 987.3 NA 0.0000 BR 9999 300 0
2019/09/09 13:20:00 BASE 14.5765 350 17.787 354 -0.7 100 -0.7 76 0 987.0 NA 0.0000 BR 9999 0 0
2019/09/09 13:21:00 BASE 15.6232 348 17.787 354 -0.7 100 -0.7 73 0 987.0 NA 0.0000 BR 9999 0 0
2019/09/09 13:22:00 BASE 15.1939 346 17.787 354 -0.7 100 -0.7 75 0 987.1 NA 0.0000 BR 9999 0 0
2019/09/09 13:23:00 BASE 14.506 354 17.787 354 -0.7 100 -0.7 76 0 987.2 NA 0.0000 UP BR 9999 0
2019/09/09 13:24:00 BASE 15.3292 352 17.9987 341 -0.7 100 -0.7 79 0 986.9 NA 0.0000 UP BR 9999 0
2019/09/09 13:25:00 BASE 15.776 347 17.9987 341 -0.7 100 -0.7 82 0 987.0 NA 0.0000 UP BR 9000 0
2019/09/09 13:26:00 BASE 15.5585 350 17.9987 341 -0.7 100 -0.7 88 0 986.8 NA 0.0000 UP BR 9000 0
2019/09/09 13:27:00 BASE 15.5056 352 17.9987 341 -0.7 100 -0.7 96 0 986.8 NA 0.0000 UP BR 9999 0
2019/09/09 13:28:00 BASE 15.2116 349 17.9987 341 -0.6 100 -0.6 103 0 987.0 NA 0.0000 UP BR 9999 0
2019/09/09 13:29:00 BASE 15.5173 348 17.9987 341 -0.6 100 -0.6 105 0 986.9 NA 0.0000 UP BR 9999 0
2019/09/09 13:30:00 BASE 15.6408 348 17.9987 341 -0.6 100 -0.6 102 0 986.9 NA 0.0000 UP BR 9999 0
2019/09/09 13:31:00 BASE 15.7525 348 17.9987 341 -0.6 100 -0.6 96 0 986.8 NA 0.0000 UP BR 9999 0
2019/09/09 13:32:00 BASE 16.0583 349 17.9987 341 -0.6 100 -0.6 93 0 986.9 NA 0.0000 UP BR 9000 0
2019/09/09 13:33:00 BASE 14.6882 350 17.9987 341 -0.6 100 -0.6 90 0 987.2 NA 0.0000 UP BR 9000 0
2019/09/09 13:34:00 BASE 12.8654 349 17.8458 354 -0.6 100 -0.6 87 0 987.3 NA 0.0000 UP BR 9999 0
2019/09/09 13:35:00 BASE 13.0654 351 17.8458 354 -0.6 100 -0.6 80 0 987.1 NA 0.0000 UP 9999 260 0
2019/09/09 13:36:00 BASE 14.6471 352 17.8458 354 -0.6 100 -0.6 73 0 986.8 NA 0.0000 UP 9999 330 0
2019/09/09 13:37:00 BASE 16.1582 351 17.8458 354 -0.6 100 -0.6 69 0 986.6 NA 0.0000 UP 9999 300 0
2019/09/09 13:38:00 BASE 15.2586 346 17.8458 354 -0.5 100 -0.5 66 0 987.0 NA 0.0000 UP 9999 330 0
2019/09/09 13:39:00 BASE 14.7118 351 19.0865 351 -0.5 100 -0.5 64 0 986.8 NA 0.0000 UP 9999 330 0
2019/09/09 13:40:00 BASE 15.4644 357 19.0865 351 -0.5 100 -0.5 64 0 986.8 NA 0.0000 UP 9999 300 0
2019/09/09 13:41:00 BASE 14.9528 352 19.0865 351 -0.5 100 -0.5 65 0 986.9 NA 0.0000 UP 9999 300 0
2019/09/09 13:42:00 BASE 14.6471 353 19.0865 351 -0.5 100 -0.5 64 0 986.9 NA 0.0000 UP 9999 0 0
2019/09/09 13:43:00 BASE 15.6467 355 19.992 352 -0.4 100 -0.4 61 0 986.7 NA 0.0000 UP 9999 0 0
2019/09/09 13:44:00 BASE 16.1641 350 19.992 352 -0.4 100 -0.4 59 0 986.9 NA 0.0000 UP 9999 0 0
2019/09/09 13:45:00 BASE 15.6584 349 19.992 352 -0.4 100 -0.4 60 0 986.8 NA 0.0000 UP 9999 0 0
2019/09/09 13:46:00 BASE 15.923 353 19.992 352 -0.4 100 -0.4 61 0 986.7 NA 0.0000 UP 9999 0 0
2019/09/09 13:47:00 BASE 15.2998 354 19.992 352 -0.4 100 -0.4 59 0 987.0 NA 0.0000 UP 9999 0 0
2019/09/09 13:48:00 BASE 14.7941 350 19.992 352 -0.4 100 -0.4 57 0 986.9 NA 0.0000 UP 9999 0 0
2019/09/09 13:49:00 BASE 15.3703 348 19.992 352 -0.4 100 -0.4 55 0 986.9 NA 0.0000 UP BR 9999 0
2019/09/09 13:50:00 BASE 15.5644 347 19.992 352 -0.4 100 -0.4 53 0 986.9 NA 0.0000 UP BR 9999 0
2019/09/09 13:51:00 BASE 16.4758 346 20.7799 348 -0.4 100 -0.4 50 0 986.6 NA 0.0000 UP BR 9999 0
2019/09/09 13:52:00 BASE 16.9344 347 20.7799 348 -0.4 100 -0.4 49 0 986.8 NA 0.0000 UP BR 9999 0
2019/09/09 13:53:00 BASE 15.9583 347 20.7799 348 -0.4 100 -0.4 47 0 986.9 NA 0.0000 UP BR 9999 0
2019/09/09 13:54:00 BASE 15.9877 344 20.7799 348 -0.4 100 -0.4 47 0 986.9 NA 0.0000 UP BR 9999 0
2019/09/09 13:55:00 BASE 16.1818 346 20.7799 348 -0.4 100 -0.4 49 0 987.0 NA 0.0000 UP BR 9000 0
2019/09/09 13:56:00 BASE 15.9348 348 20.7799 348 -0.4 100 -0.4 54 0 986.9 NA 0.0000 UP BR 9000 0
2019/09/09 13:57:00 BASE 15.8231 350 20.7799 348 -0.4 100 -0.4 59 0 987.0 NA 0.0000 UP BR 9000 0
2019/09/09 13:58:00 BASE 14.9646 352 20.7799 348 -0.4 100 -0.4 65 0 987.1 NA 0.0000 UP BR 9000 0
2019/09/09 13:59:00 BASE 14.9822 350 20.7799 348 -0.4 100 -0.4 71 0 986.9 NA 0.0000 UP BR 9000 0
2019/09/09 14:00:00 BASE 15.3821 349 20.7799 348 -0.4 100 -0.4 76 0 986.9 NA 0.0000 UP BR 9000 0
2019/09/09 14:01:00 BASE 15.2351 349 18.2986 350 -0.4 100 -0.4 82 0 986.9 NA 0.0000 UP BR 9000 0
2019/09/09 14:02:00 BASE 15.041 350 18.2986 350 -0.4 100 -0.4 86 0 986.9 NA 0.0000 UP BR 9000 260
2019/09/09 14:03:00 BASE 15.1469 351 18.2986 350 -0.4 100 -0.4 88 0 986.8 NA 0.0000 UP BR 9000 0
2019/09/09 14:04:00 BASE 14.8 349 18.2986 350 -0.3 100 -0.3 87 0 987.0 NA 0.0000 UP BR 9000 0
2019/09/09 14:05:00 BASE 14.7176 348 18.2986 350 -0.3 100 -0.3 85 0 986.9 NA 0.0000 UP BR 9000 0
2019/09/09 14:06:00 BASE 14.9058 350 18.2986 350 -0.3 100 -0.3 85 0 987.0 NA 0.0000 UP BR 9000 0
2019/09/09 14:07:00 BASE 13.4711 351 17.4812 347 -0.3 100 -0.3 86 0 987.1 NA 0.0000 UP BR 9000 260
2019/09/09 14:08:00 BASE 13.1124 354 17.4812 347 -0.3 100 -0.3 87 0 986.9 NA 0.0000 BR 9000 0 0
2019/09/09 14:09:00 BASE 13.6063 351 17.4812 347 -0.3 100 -0.3 87 0 987.0 NA 0.0000 UP BR 9000 0
2019/09/09 14:10:00 BASE 12.9301 350 17.4812 347 -0.4 100 -0.4 89 0 987.1 NA 0.0000 UP BR 9999 0
2019/09/09 14:11:00 BASE 12.7714 353 17.4812 347 -0.4 100 -0.4 90 0 987.0 NA 0.0000 UP BR 9999 0
2019/09/09 14:12:00 BASE 13.2712 352 17.4812 347 -0.4 100 -0.4 89 0 986.9 NA 0.0000 UP BR 9000 0
2019/09/09 14:13:00 BASE 13.5828 351 16.8168 347 -0.4 100 -0.4 89 0 987.0 NA 0.0000 UP BR 9000 0
2019/09/09 14:14:00 BASE 14.2649 351 16.8168 347 -0.4 100 -0.4 89 0 986.7 NA 0.0000 UP BR 9000 0
2019/09/09 14:15:00 BASE 13.9944 351 16.8168 347 -0.3 100 -0.3 92 0 986.9 NA 0.0000 UP BR 9000 0
2019/09/09 14:16:00 BASE 13.0418 353 16.8168 347 -0.3 100 -0.3 97 0 986.9 NA 0.0000 UP BR 9000 0
2019/09/09 14:17:00 BASE 13.8886 351 16.8168 347 -0.3 100 -0.3 97 0 986.8 NA 0.0000 UP BR 9999 0
2019/09/09 14:18:00 BASE 14.653 352 17.0285 349 -0.3 100 -0.3 95 0 986.8 NA 0.0000 UP BR 9999 0
2019/09/09 14:19:00 BASE 14.2237 352 17.0285 349 -0.3 100 -0.3 91 0 986.8 NA 0.0000 UP BR 9999 0
2019/09/09 14:20:00 BASE 14.1884 351 17.0285 349 -0.4 100 -0.4 86 0 986.8 NA 0.0000 UP BR 9999 0
2019/09/09 14:21:00 BASE 14.2237 350 17.0285 349 -0.4 100 -0.4 82 0 986.8 NA 0.0000 UP BR 9999 0
2019/09/09 14:22:00 BASE 13.2535 347 17.0285 349 -0.4 100 -0.4 80 0 987.0 NA 0.0000 UP BR 9000 0
2019/09/09 14:23:00 BASE 13.3123 348 17.0285 349 -0.4 100 -0.4 77 0 986.8 NA 0.0000 UP BR 9000 0
2019/09/09 14:24:00 BASE 13.5652 350 17.0285 349 -0.4 100 -0.4 74 0 987.0 NA 0.0000 UP BR 9000 0
2019/09/09 14:25:00 BASE 12.8184 355 17.0285 349 -0.3 100 -0.3 71 0 987.0 NA 0.0000 UP BR 9000 0
2019/09/09 14:26:00 BASE 13.0771 356 17.0285 349 -0.3 100 -0.3 66 0 986.9 NA 0.0000 UP BR 9000 0
2019/09/09 14:27:00 BASE 13.1477 355 17.0285 349 -0.3 100 -0.3 64 0 986.9 NA 0.0000 UP BR 9000 0
2019/09/09 14:28:00 BASE 13.377 353 16.123 1 -0.3 100 -0.3 64 0 986.8 NA 0.0000 UP BR 9000 0
2019/09/09 14:29:00 BASE 13.5652 350 16.123 1 -0.3 100 -0.3 65 0 987.0 NA 0.0000 UP BR 9000 0
2019/09/09 14:30:00 BASE 13.6475 350 16.364 354 -0.3 100 -0.3 67 0 986.9 NA 0.0000 UP BR 9999 0
2019/09/09 14:31:00 BASE 14.0885 352 16.364 354 -0.3 100 -0.3 68 0 986.7 NA 0.0000 UP BR 9999 0
2019/09/09 14:32:00 BASE 14.8646 356 16.364 354 -0.3 100 -0.3 71 0 986.6 NA 0.0000 UP BR 9999 0
2019/09/09 14:33:00 BASE 15.0704 352 16.364 354 -0.3 100 -0.3 73 0 986.7 NA 0.0000 UP BR 9999 0
2019/09/09 14:34:00 BASE 13.9709 350 16.364 354 -0.3 100 -0.3 74 0 986.9 NA 0.0000 UP BR 9999 0
2019/09/09 14:35:00 BASE 13.3888 351 16.364 354 -0.3 100 -0.3 76 0 986.9 NA 0.0000 UP BR 9999 0
2019/09/09 14:36:00 BASE 13.0124 354 16.364 354 -0.3 100 -0.3 78 0 986.9 NA 0.0000 UP BR 9999 0
2019/09/09 14:37:00 BASE 11.8776 349 16.364 354 -0.3 100 -0.3 79 0 987.1 NA 0.0000 UP BR 9999 0
2019/09/09 14:38:00 BASE 11.7424 345 16.364 354 -0.3 100 -0.3 80 0 987.0 NA 0.0000 UP 9999 0 0
2019/09/09 14:39:00 BASE 12.1304 351 16.364 354 -0.3 100 -0.3 82 0 986.9 NA 0.0000 UP 9999 0 0
2019/09/09 14:40:00 BASE 12.2363 353 16.3346 353 -0.3 100 -0.3 83 0 986.8 NA 0.0000 9999 0 0 0
2019/09/09 14:41:00 BASE 12.9536 356 16.3346 353 -0.3 100 -0.3 85 0 986.7 NA 0.0000 9999 0 0 0
2019/09/09 14:42:00 BASE 13.1712 360 15.1234 320 -0.3 100 -0.3 87 0 986.7 NA 0.0000 9999 0 0 0
2019/09/09 14:43:00 BASE 13.4476 358 15.1528 351 -0.3 100 -0.3 91 0 986.6 NA 0.0000 9999 0 0 0
2019/09/09 14:44:00 BASE 13.6181 357 15.1528 351 -0.3 100 -0.3 95 0 986.6 NA 0.0000 9999 0 0 0
2019/09/09 14:45:00 BASE 12.7008 353 15.1528 351 -0.2 100 -0.2 99 0 986.7 NA 0.0000 UP 9999 0 0
2019/09/09 14:46:00 BASE 12.8243 351 15.1528 351 -0.2 100 -0.2 103 0 986.6 NA 0.0000 UP 9999 0 0
2019/09/09 14:47:00 BASE 13.0595 354 15.1528 351 -0.2 100 -0.2 108 0 986.6 NA 0.0000 UP 9999 360 20380
2019/09/09 14:48:00 BASE 12.7537 353 15.1528 351 -0.2 100 -0.2 112 0 986.5 NA 0.0000 UP 9999 0 0
2019/09/09 14:49:00 BASE 12.5068 352 15.1528 351 -0.2 100 -0.2 110 0 986.6 NA 0.0000 UP 9999 0 0
2019/09/09 14:50:00 BASE 11.9599 354 15.1528 351 -0.2 100 -0.2 106 0 986.6 NA 0.0000 UP 9999 0 0
2019/09/09 14:51:00 BASE 12.4891 356 15.1528 351 -0.2 100 -0.2 106 0 986.5 NA 0.0000 UP 9999 360 0
2019/09/09 14:52:00 BASE 12.5832 354 15.1528 351 -0.2 100 -0.2 106 0 986.5 NA 0.0000 UP 9999 0 0
2019/09/09 14:53:00 BASE 12.6008 350 15.0646 4 -0.2 100 -0.2 104 0 986.4 NA 0.0000 UP 9999 0 0
2019/09/09 14:54:00 BASE 13.0712 350 15.0646 4 -0.2 100 -0.2 105 0 986.3 NA 0.0000 UP 9999 0 0
2019/09/09 14:55:00 BASE 12.7831 349 15.0646 4 -0.2 100 -0.2 110 0 986.3 NA 0.0000 UP 9999 330 0
2019/09/09 14:56:00 BASE 12.4303 352 15.0646 4 -0.2 100 -0.2 114 0 986.3 NA 0.0000 UP 9999 390 0
2019/09/09 14:57:00 BASE 12.3127 351 15.0646 4 -0.2 100 -0.2 121 0 986.4 NA 0.0000 UP 9999 390 0
2019/09/09 14:58:00 BASE 12.8184 348 15.2174 351 -0.1 100 -0.1 126 0 986.2 NA 0.0000 UP 9999 390 0
2019/09/09 14:59:00 BASE 12.6949 352 15.2174 351 -0.1 100 -0.1 124 0 986.3 NA 0.0000 UP 9999 1350 0
2019/09/09 15:00:00 BASE 12.4068 352 15.2174 351 -0.1 100 -0.1 123 0 986.2 NA 0.0000 UP 9999 1150 0
2019/09/09 15:01:00 BASE 12.2245 350 15.2174 351 -0.1 100 -0.1 124 0 986.2 NA 0.0000 UP 9999 1050 0
2019/09/09 15:02:00 BASE 12.4068 351 15.2174 351 -0.1 100 -0.1 127 0 986.1 NA 0.0000 UP 9999 1150 0
2019/09/09 15:03:00 BASE 14.2002 350 16.5463 347 -0.1 100 -0.1 126 0 985.8 NA 0.0000 UP 9999 1150 0
2019/09/09 15:04:00 BASE 15.2586 350 16.5463 347 -0.1 100 -0.1 120 0 985.8 NA 0.0000 9999 360 2620 0
2019/09/09 15:05:00 BASE 14.3648 350 16.5463 347 -0.0 100 -0.0 117 0 986.0 NA 0.0000 9999 360 0 0
2019/09/09 15:06:00 BASE 13.2888 348 16.5463 347 -0.0 100 -0.0 111 0 986.1 NA 0.0000 9999 390 0 0
2019/09/09 15:07:00 BASE 13.5593 350 16.5463 347 -0.0 100 -0.0 109 0 986.0 NA 0.0000 9999 360 0 0
2019/09/09 15:08:00 BASE 13.918 352 16.5463 347 -0.0 100 -0.0 106 0 986.0 NA 0.0000 9999 300 0 0
2019/09/09 15:09:00 BASE 13.2653 348 16.5463 347 -0.0 100 -0.0 108 0 986.2 NA 0.0000 9999 330 0 0
2019/09/09 15:10:00 BASE 13.1888 346 16.5463 347 -0.1 100 -0.1 110 0 986.0 NA 0.0000 9999 390 0 0
2019/09/09 15:11:00 BASE 13.5887 350 16.5463 347 -0.1 100 -0.1 109 0 986.0 NA 0.0000 9999 360 1510 0
2019/09/09 15:12:00 BASE 13.2359 352 16.5463 347 -0.1 100 -0.1 106 0 986.1 NA 0.0000 9999 330 1570 0
2019/09/09 15:13:00 BASE 13.0771 351 15.9113 345 -0.1 100 -0.1 104 0 986.0 NA 0.0000 9999 230 0 0
2019/09/09 15:14:00 BASE 13.3064 351 15.8231 334 -0.1 100 -0.1 103 0 986.0 NA 0.0000 9999 0 0 0
2019/09/09 15:15:00 BASE 13.6769 347 15.8231 334 -0.1 100 -0.1 104 0 985.9 NA 0.0000 9999 0 0 0
2019/09/09 15:16:00 BASE 13.5358 348 15.8231 334 -0.1 100 -0.1 107 0 986.1 NA 0.0000 9999 0 0 0
2019/09/09 15:17:00 BASE 13.1712 350 15.8231 334 -0.1 100 -0.1 112 0 986.0 NA 0.0000 9999 0 0 0
2019/09/09 15:18:00 BASE 13.277 350 15.8231 334 -0.1 100 -0.1 114 0 986.0 NA 0.0000 9999 0 0 0
2019/09/09 15:19:00 BASE 13.4593 352 15.8231 334 -0.1 100 -0.1 115 0 986.0 NA 0.0000 UP 9999 0 0
2019/09/09 15:20:00 BASE 13.6416 351 15.8231 334 -0.1 100 -0.1 116 0 986.0 NA 0.0000 UP 9999 0 0
2019/09/09 15:21:00 BASE 13.13 348 15.8231 334 -0.1 100 -0.1 120 0 986.1 NA 0.0000 UP 9999 300 0
2019/09/09 15:22:00 BASE 12.7184 349 15.8231 334 -0.1 100 -0.1 121 0 986.1 NA 0.0000 UP 9999 390 0
2019/09/09 15:23:00 BASE 12.7772 351 15.8231 334 -0.1 100 -0.1 120 0 986.1 NA 0.0000 UP 9999 390 0
2019/09/09 15:24:00 BASE 12.8654 349 15.4879 349 -0.2 100 -0.2 121 0 986.1 NA 0.0000 UP 9999 360 0
2019/09/09 15:25:00 BASE 12.2892 349 15.4879 349 -0.2 100 -0.2 125 0 986.1 NA 0.0000 UP 9999 360 0
2019/09/09 15:26:00 BASE 11.76 351 15.4879 349 -0.2 100 -0.2 127 0 986.0 NA 0.2540 UP 9999 330 0
2019/09/09 15:27:00 BASE 12.1892 350 15.4879 349 -0.2 100 -0.2 129 0 985.9 NA 0.0000 9999 330 0 0
2019/09/09 15:28:00 BASE 12.0481 347 15.4879 349 -0.2 100 -0.2 131 0 986.0 NA 0.0000 9999 330 0 0
2019/09/09 15:29:00 BASE 12.2833 348 15.4879 349 -0.2 100 -0.2 134 0 985.9 NA 0.0000 9999 300 0 0
2019/09/09 15:30:00 BASE 12.5126 350 14.4883 353 -0.2 100 -0.2 139 0 986.0 NA 0.0000 9999 300 0 0
2019/09/09 15:31:00 BASE 13.2065 351 15.5761 346 -0.2 100 -0.2 145 0 985.7 NA 0.0000 9999 300 0 0
2019/09/09 15:32:00 BASE 13.7592 349 15.5761 346 -0.2 100 -0.2 152 0 985.8 NA 0.0000 9999 21880 0 0
2019/09/09 15:33:00 BASE 12.4362 349 15.5761 346 -0.2 100 -0.2 157 0 986.0 NA 0.0000 9999 260 20380 0
2019/09/09 15:34:00 BASE 11.5777 348 15.5761 346 -0.1 100 -0.1 159 0 985.9 NA 0.0000 9999 300 0 0
2019/09/09 15:35:00 BASE 11.5483 350 15.5761 346 -0.1 100 -0.1 157 0 985.9 NA 0.0000 9999 330 0 0
2019/09/09 15:36:00 BASE 12.6361 352 15.5761 346 -0.1 100 -0.1 155 0 985.6 NA 0.0000 9999 300 0 0
2019/09/09 15:37:00 BASE 13.0948 351 15.5761 346 -0.1 100 -0.1 154 0 985.7 NA 0.0000 9999 300 0 0
2019/09/09 15:38:00 BASE 11.954 349 15.5761 346 -0.1 100 -0.1 158 0 985.8 NA 0.0000 9999 330 0 0
2019/09/09 15:39:00 BASE 11.86 351 15.5761 346 -0.1 100 -0.1 160 0 985.6 NA 0.0000 9999 330 0 0
2019/09/09 15:40:00 BASE 12.0128 354 15.5761 346 -0.1 100 -0.1 160 0 985.6 NA 0.0000 9999 330 19420 0
2019/09/09 15:41:00 BASE 11.6306 353 15.2174 347 -0.1 100 -0.1 163 0 985.5 NA 0.0000 9999 330 0 0
2019/09/09 15:42:00 BASE 10.9838 351 15.2174 347 -0.1 100 -0.1 171 0 985.6 NA 0.0000 9999 360 0 0
2019/09/09 15:43:00 BASE 10.9603 350 15.2174 347 -0.1 100 -0.1 180 0 985.5 NA 0.0000 9999 360 0 0
2019/09/09 15:44:00 BASE 11.419 353 15.2174 347 -0.1 100 -0.1 183 0 985.5 NA 0.0000 9999 360 0 0
2019/09/09 15:45:00 BASE 11.5013 355 15.2174 347 -0.1 100 -0.1 182 0 985.4 NA 0.0000 9999 360 0 0
2019/09/09 15:46:00 BASE 11.8541 352 14.0944 350 -0.0 100 -0.0 179 0 985.4 NA 0.0000 9999 360 0 0
2019/09/09 15:47:00 BASE 11.8188 352 14.0062 352 0.0 100 0.0 177 0 985.5 NA 0.0000 9999 330 0 0
2019/09/09 15:48:00 BASE 12.1892 353 14.0062 352 0.0 100 0.0 175 0 985.3 NA 0.0000 9999 360 0 0
2019/09/09 15:49:00 BASE 12.4186 350 14.0062 352 0.1 100 0.1 168 0 985.4 NA 0.0000 9999 360 0 0
2019/09/09 15:50:00 BASE 11.7718 348 14.0062 352 0.1 100 0.1 166 0 985.5 NA 0.0000 9999 360 0 0
2019/09/09 15:51:00 BASE 12.4127 348 14.6412 341 0.1 100 0.1 163 0 985.3 NA 0.0000 9999 360 0 0
2019/09/09 15:52:00 BASE 12.8478 349 14.6412 341 0.1 100 0.1 160 0 985.3 NA 0.0000 9999 360 0 0
2019/09/09 15:53:00 BASE 12.4715 350 14.6412 341 0.1 100 0.1 156 0 985.3 NA 0.0000 9999 360 0 0
2019/09/09 15:54:00 BASE 12.3774 350 14.6412 341 0.1 100 0.1 155 0 985.3 NA 0.0000 9999 360 0 0
2019/09/09 15:55:00 BASE 12.1128 351 14.6412 341 0.1 100 0.1 149 0 985.3 NA 0.0000 9999 390 0 0
2019/09/09 15:56:00 BASE 12.0834 351 14.6412 341 0.1 100 0.1 144 0 985.3 NA 0.0000 9999 430 0 0
2019/09/09 15:57:00 BASE 12.4244 346 14.6412 341 0.1 100 0.1 140 0 985.2 NA 0.0000 9999 390 0 0
2019/09/09 15:58:00 BASE 12.154 343 14.6412 341 0.1 100 0.1 138 0 985.2 NA 0.0000 9999 360 0 0
2019/09/09 15:59:00 BASE 11.8835 349 14.6412 341 0.1 100 0.1 137 0 985.2 NA 0.0000 9999 360 0 0
2019/09/09 16:00:00 BASE 11.9776 351 14.6412 341 0.1 100 0.1 136 0 985.2 NA 0.0000 9999 360 0 0
2019/09/09 16:01:00 BASE 11.5954 349 14.306 344 0.2 100 0.2 136 0 985.2 NA 0.0000 9999 360 0 0
2019/09/09 16:02:00 BASE 12.0599 346 14.306 344 0.1 100 0.1 134 0 985.0 NA 0.0000 9999 360 0 0
2019/09/09 16:03:00 BASE 12.1069 347 14.306 344 0.1 100 0.1 134 0 985.1 NA 0.0000 9999 360 0 0
2019/09/09 16:04:00 BASE 11.4013 347 14.306 344 0.1 100 0.1 136 0 985.1 NA 0.0000 9999 360 0 0
2019/09/09 16:05:00 BASE 11.3131 347 14.306 344 0.1 100 0.1 136 0 985.1 NA 0.0000 9999 360 0 0
2019/09/09 16:06:00 BASE 11.5777 348 14.306 344 0.1 100 0.1 136 0 984.9 NA 0.0000 9999 360 0 0
2019/09/09 16:07:00 BASE 10.9956 356 14.306 344 0.1 100 0.1 135 0 985.1 NA 0.0000 9999 360 0 0
2019/09/09 16:08:00 BASE 9.7902 359 14.306 344 0.1 100 0.1 135 0 985.2 NA 0.0000 9999 330 0 0
2019/09/09 16:09:00 BASE 10.0019 353 14.2766 321 0.1 100 0.1 136 0 985.0 NA 0.0000 9999 330 0 0
2019/09/09 16:10:00 BASE 10.1489 355 14.2766 321 0.2 100 0.2 135 0 985.1 NA 0.0000 9999 360 0 0
2019/09/09 16:11:00 BASE 9.7314 353 14.2766 321 0.2 100 0.2 133 0 985.1 NA 0.0000 9999 360 0 0
2019/09/09 16:12:00 BASE 9.83724 347 12.9478 347 0.2 100 0.2 128 0 985.2 NA 0.0000 9999 360 0 0
2019/09/09 16:13:00 BASE 9.996 347 12.9478 347 0.2 100 0.2 122 0 985.2 NA 0.0000 9999 360 0 0
2019/09/09 16:14:00 BASE 10.4076 347 12.9478 347 0.2 100 0.2 116 0 985.1 NA 0.0000 9999 360 0 0
2019/09/09 16:15:00 BASE 10.337 344 12.9478 347 0.1 100 0.1 113 0 985.3 NA 0.0000 9999 330 0 0
2019/09/09 16:16:00 BASE 10.0078 344 12.1304 348 0.1 100 0.1 110 0 985.3 NA 0.0000 9999 330 0 0
2019/09/09 16:17:00 BASE 10.29 345 12.1304 348 0.1 100 0.1 109 0 985.2 NA 0.0000 9999 330 0 0
2019/09/09 16:18:00 BASE 10.337 345 12.1304 348 0.1 100 0.1 111 0 985.3 NA 0.0000 9000 330 0 0
2019/09/09 16:19:00 BASE 9.75492 344 12.1304 348 0.1 100 0.1 114 0 985.4 NA 0.0000 6000 330 0 0
2019/09/09 16:20:00 BASE 9.23748 345 12.1304 348 0.1 100 0.1 118 0 985.3 NA 0.0000 9999 300 0 0
2019/09/09 16:21:00 BASE 9.16692 345 12.1304 348 0.1 100 0.1 122 0 985.2 NA 0.0000 9999 300 0 0
2019/09/09 16:22:00 BASE 8.86116 345 12.1304 348 0.1 100 0.1 124 0 985.3 NA 0.0000 9999 330 0 0
2019/09/09 16:23:01 BASE 8.72004 345 12.1304 348 0.1 100 0.1 126 0 985.2 NA 0.0000 9999 330 0 0
2019/09/09 16:24:00 BASE 9.01404 345 11.1896 344 0.1 100 0.1 129 0 985.1 NA 0.0000 9999 330 0 0
2019/09/09 16:25:00 BASE 8.91996 345 11.1896 344 0.1 100 0.1 130 0 985.2 NA 0.0000 9999 330 0 0
2019/09/09 16:26:00 BASE 8.54952 345 11.1896 344 0.1 100 0.1 131 0 985.1 NA 0.0000 9999 330 0 0
2019/09/09 16:27:00 BASE 8.38488 346 10.978 348 0.1 100 0.1 130 0 985.1 NA 0.0000 9999 300 0 0
2019/09/09 16:28:00 BASE 8.32608 347 10.4076 342 0.1 100 0.1 132 0 985.1 NA 0.0000 9999 300 0 0
2019/09/09 16:29:00 BASE 8.57892 346 10.4076 342 0.1 100 0.1 133 0 985.0 NA 0.0000 9999 260 0 0
2019/09/09 16:30:00 BASE 8.97876 345 10.4076 342 0.1 100 0.1 131 0 985.1 NA 0.0000 9000 260 0 0
2019/09/09 16:31:00 BASE 9.95484 344 13.4887 340 0.1 100 0.1 128 0 985.0 NA 0.0000 9000 230 0 0
2019/09/09 16:32:00 BASE 11.2661 343 13.4887 340 0.1 100 0.1 125 0 985.1 NA 0.0000 9999 230 0 0
2019/09/09 16:33:00 BASE 11.7718 342 13.4887 340 0.1 100 0.1 121 0 985.0 NA 0.0000 9999 230 0 0
2019/09/09 16:34:00 BASE 12.0246 342 13.7651 341 0.1 100 0.1 124 0 984.9 NA 0.0000 9999 260 0 0
2019/09/09 16:35:00 BASE 12.348 343 13.7651 341 0.1 100 0.1 125 0 984.9 NA 0.0000 9999 260 0 0
2019/09/09 16:36:00 BASE 12.3421 344 13.7651 341 0.1 100 0.1 124 0 984.9 NA 0.0000 9999 260 0 0
2019/09/09 16:37:00 BASE 11.7306 345 13.7651 341 0.1 100 0.1 124 0 984.9 NA 0.0000 9999 260 0 0
2019/09/09 16:38:00 BASE 11.4954 346 13.7651 341 0.1 100 0.1 124 0 984.8 NA 0.0000 9999 260 0 0
2019/09/09 16:39:00 BASE 11.5777 345 13.7651 341 0.1 100 0.1 124 0 984.9 NA 0.0000 UP 9000 260 0
2019/09/09 16:40:00 BASE 11.3837 345 13.7651 341 0.1 100 0.1 121 0 984.8 NA 0.0000 9999 300 0 0
2019/09/09 16:41:00 BASE 11.4778 344 13.7651 341 0.1 100 0.1 122 0 984.7 NA 0.2540 9999 260 0 0
2019/09/09 16:42:00 BASE 11.6424 344 13.7651 341 0.1 100 0.1 125 0 984.7 NA 0.0000 9999 300 0 0
2019/09/09 16:43:00 BASE 11.3249 346 13.7651 341 0.1 100 0.1 126 0 984.7 NA 0.0000 9999 300 0 0
2019/09/09 16:44:00 BASE 10.537 345 13.5534 345 0.1 100 0.1 126 0 984.8 NA 0.0000 9999 300 0 0
2019/09/09 16:45:00 BASE 9.9078 345 13.2182 342 0.1 100 0.1 127 0 984.8 NA 0.0000 9999 300 0 0
2019/09/09 16:46:00 BASE 9.40212 345 12.5244 343 0.1 100 0.1 124 0 984.8 NA 0.0000 9999 300 0 0
2019/09/09 16:47:00 BASE 9.72552 345 12.5244 343 0.1 100 0.1 122 0 984.7 NA 0.0000 9999 330 0 0
2019/09/09 16:48:00 BASE 10.4605 344 12.3127 347 0.1 100 0.1 116 0 984.6 NA 0.0000 9999 330 0 0
2019/09/09 16:49:00 BASE 10.3782 343 12.3127 347 0.1 100 0.1 113 0 984.6 NA 0.0000 9999 330 0 0
2019/09/09 16:50:00 BASE 9.93132 344 12.3127 347 0.1 100 0.1 112 0 984.6 NA 0.0000 9999 330 0 0
2019/09/09 16:51:00 BASE 9.53148 345 12.101 346 0.1 100 0.1 113 0 984.7 NA 0.0000 9999 330 0 0
2019/09/09 16:52:00 BASE 10.1371 347 11.6483 344 0.1 100 0.1 113 0 984.4 NA 0.0000 9999 330 0 0
2019/09/09 16:53:00 BASE 10.3018 350 11.5542 351 0.1 100 0.1 112 0 984.5 NA 0.0000 9999 360 0 0
2019/09/09 16:54:00 BASE 9.57264 349 11.5542 351 0.1 100 0.1 110 0 984.5 NA 0.0000 9999 360 0 0
2019/09/09 16:55:00 BASE 9.22572 347 11.5542 351 0.1 100 0.1 111 0 984.5 NA 0.0000 9999 360 0 0
2019/09/09 16:56:00 BASE 8.77884 348 11.5542 351 0.1 100 0.1 109 0 984.6 NA 0.0000 9999 330 0 0
2019/09/09 16:57:00 BASE 8.78472 351 11.5542 351 0.1 100 0.1 105 0 984.4 NA 0.0000 9999 330 0 0
2019/09/09 16:58:00 BASE 9.11988 351 11.5542 351 0.1 100 0.1 101 0 984.4 NA 0.0000 9999 330 0 0
2019/09/09 16:59:00 BASE 8.93172 346 11.5542 351 0.1 100 0.1 98 0 984.4 NA 0.0000 9999 330 0 0
2019/09/09 17:00:00 BASE 8.78472 346 11.5542 351 0.1 100 0.1 98 0 984.4 NA 0.0000 9999 360 0 0
2019/09/09 17:01:00 BASE 8.54364 347 11.5542 351 0.1 100 0.1 96 0 984.5 NA 0.0000 9999 360 0 0
2019/09/09 17:02:00 BASE 8.09088 346 10.7369 1 0.1 100 0.1 95 0 984.5 NA 0.0000 9999 360 0 0
2019/09/09 17:03:00 BASE 8.07324 349 10.2253 348 0.1 100 0.1 94 0 984.4 NA 0.0000 9999 360 0 0
2019/09/09 17:04:00 BASE 8.10852 348 9.80196 339 0.0 100 0.0 94 0 984.4 NA 0.0000 9999 360 0 0
2019/09/09 17:05:00 BASE 7.89684 345 9.80196 339 0.0 100 0.0 94 0 984.4 NA 0.0000 9999 360 0 0
2019/09/09 17:06:00 BASE 7.44996 347 9.80196 339 0.0 100 0.0 96 0 984.5 NA 0.0000 9999 360 0 0
2019/09/09 17:07:00 BASE 7.16184 348 9.80196 339 0.0 100 0.0 96 0 984.5 NA 0.0000 9999 360 0 0
2019/09/09 17:08:00 BASE 7.15008 347 9.64908 344 0.0 100 0.0 94 0 984.5 NA 0.0000 9999 360 0 0
2019/09/09 17:09:00 BASE 7.19712 347 9.4374 345 0.0 100 0.0 90 0 984.5 NA 0.0000 9999 360 0 0
2019/09/09 17:10:00 BASE 7.28532 347 9.13752 345 0.0 100 0.0 88 0 984.5 NA 0.0000 9999 360 0 0
2019/09/09 17:11:00 BASE 7.09716 347 9.13752 345 0.0 100 0.0 84 0 984.6 NA 0.0000 9999 360 0 0
2019/09/09 17:12:00 BASE 7.04424 346 9.13752 345 0.0 100 0.0 81 0 984.5 NA 0.0000 9999 360 0 0
2019/09/09 17:13:00 BASE 7.2324 347 8.92584 350 0.0 100 0.0 80 0 984.4 NA 0.0000 9999 360 0 0
2019/09/09 17:14:00 BASE 7.46172 347 8.3202 351 0.0 100 0.0 78 0 984.3 NA 0.0000 9999 360 0 0
2019/09/09 17:15:00 BASE 7.54992 346 8.13792 346 0.0 100 0.0 77 0 984.3 NA 0.0000 9999 360 0 0
2019/09/09 17:16:00 BASE 7.3794 347 8.13792 346 0.0 100 0.0 75 0 984.3 NA 0.0000 9999 360 0 0
2019/09/09 17:17:00 BASE 7.43232 347 8.13792 346 0.0 100 0.0 73 0 984.2 NA 0.0000 9999 330 0 0
2019/09/09 17:18:00 BASE 7.30884 346 8.10852 344 0.0 100 0.0 73 0 984.2 NA 0.0000 9999 330 0 0
2019/09/09 17:19:00 BASE 6.98544 347 8.10852 344 0.0 100 0.0 74 0 984.2 NA 0.0000 9999 330 0 0
2019/09/09 17:20:00 BASE 6.70908 348 8.10852 344 0.0 100 0.0 73 0 984.3 NA 0.0000 9999 330 0 0
2019/09/09 17:21:00 BASE 6.50328 347 8.10852 344 -0.0 100 -0.0 74 0 984.2 NA 0.0000 9999 330 0 0
2019/09/09 17:22:00 BASE 6.5856 347 8.10852 344 -0.0 100 -0.0 74 0 984.2 NA 0.0000 9999 330 0 0
2019/09/09 17:23:00 BASE 6.27396 347 8.10852 344 -0.0 100 -0.0 76 0 984.3 NA 0.0000 9999 330 0 0
2019/09/09 17:24:00 BASE 6.0564 348 7.89684 349 -0.0 100 -0.0 76 0 984.1 NA 0.0000 9999 330 0 0
2019/09/09 17:25:00 BASE 6.0858 348 7.89684 349 -0.0 100 -0.0 74 0 984.2 NA 0.0000 9999 330 0 0
2019/09/09 17:26:00 BASE 5.97408 347 7.89684 349 -0.0 100 -0.0 72 0 984.2 NA 0.0000 9999 330 0 0
2019/09/09 17:27:00 BASE 6.01524 348 7.80276 345 -0.0 100 -0.1 71 0 984.2 NA 0.0000 9999 330 0 0
2019/09/09 17:28:00 BASE 6.02112 347 7.50288 346 -0.1 100 -0.1 72 0 984.1 NA 0.0000 9999 330 0 0
2019/09/09 17:29:00 BASE 5.7918 346 7.4088 350 -0.1 100 -0.1 71 0 984.3 NA 0.0000 9999 330 0 0
2019/09/09 17:30:00 BASE 5.42136 346 7.4088 350 -0.1 100 -0.1 69 0 984.3 NA 0.0000 9999 330 0 0
2019/09/09 17:31:00 BASE 5.4978 347 7.4088 350 -0.1 100 -0.1 69 0 984.2 NA 0.0000 9999 330 0 0
2019/09/09 17:32:00 BASE 5.39784 346 6.74436 351 -0.1 100 -0.1 68 0 984.3 NA 0.0000 9999 330 0 0
2019/09/09 17:33:00 BASE 5.145 344 6.74436 351 -0.1 100 -0.1 67 0 984.3 NA 0.0000 9999 330 0 0
2019/09/09 17:34:00 BASE 5.32728 345 6.47388 347 -0.1 100 -0.1 67 0 984.2 NA 0.0000 9999 330 0 0
2019/09/09 17:35:00 BASE 5.2038 344 6.47388 347 -0.1 100 -0.1 67 0 984.3 NA 0.0000 9999 330 0 0
2019/09/09 17:36:00 BASE 4.59228 343 6.47388 347 -0.1 100 -0.1 69 0 984.4 NA 0.0000 9999 330 0 0
2019/09/09 17:37:00 BASE 4.36884 345 6.47388 347 -0.1 100 -0.1 68 0 984.3 NA 0.0000 9999 330 0 0
2019/09/09 17:38:00 BASE 4.78632 347 6.2034 345 -0.1 100 -0.1 67 0 984.2 NA 0.0000 9999 330 0 0
2019/09/09 17:39:00 BASE 4.78632 344 6.2034 345 -0.1 100 -0.1 65 0 984.4 NA 0.0000 9999 330 0 0
2019/09/09 17:40:00 BASE 4.48644 343 6.2034 345 -0.1 100 -0.1 64 0 984.3 NA 0.0000 9999 330 0 0
2019/09/09 17:41:00 BASE 4.40412 346 6.2034 345 -0.1 100 -0.1 64 0 984.4 NA 0.0000 9999 360 0 0
2019/09/09 17:42:00 BASE 4.36296 346 5.83884 345 -0.1 100 -0.1 65 0 984.3 NA 0.0000 9999 360 0 0
2019/09/09 17:43:00 BASE 4.52172 346 5.83884 345 -0.1 100 -0.1 61 0 984.3 NA 0.0000 9999 360 0 0
2019/09/09 17:44:00 BASE 4.55112 344 5.35668 350 -0.1 100 -0.1 59 0 984.4 NA 0.0000 9999 330 0 0
2019/09/09 17:45:00 BASE 4.54524 342 5.35668 350 -0.1 100 -0.1 59 0 984.4 NA 0.0000 9999 360 0 0
2019/09/09 17:46:00 BASE 4.59228 341 5.35668 350 -0.1 100 -0.1 57 0 984.4 NA 0.0000 9999 330 0 0
2019/09/09 17:47:00 BASE 4.5276 341 5.35668 350 -0.1 100 -0.1 58 0 984.4 NA 0.0000 9999 360 0 0
2019/09/09 17:48:00 BASE 4.49232 341 5.1744 353 -0.1 100 -0.1 56 0 984.4 NA 0.0000 9999 330 0 0
2019/09/09 17:49:00 BASE 4.59816 341 5.1744 353 -0.1 100 -0.1 58 0 984.4 NA 0.0000 9999 360 0 0
2019/09/09 17:50:00 BASE 4.94508 340 5.53308 338 -0.1 100 -0.1 58 0 984.3 NA 0.0000 9999 360 0 0
2019/09/09 17:51:00 BASE 4.94508 340 5.53308 338 -0.1 100 -0.1 60 0 984.4 NA 0.0000 9999 330 0 0
2019/09/09 17:52:00 BASE 4.77456 340 5.53308 338 -0.1 100 -0.1 61 0 984.4 NA 0.0000 9999 330 0 0
2019/09/09 17:53:00 BASE 4.82748 341 5.53308 338 -0.1 100 -0.1 60 0 984.4 NA 0.0000 9999 330 0 0
2019/09/09 17:54:00 BASE 4.65696 341 5.53308 338 -0.1 100 -0.1 60 0 984.5 NA 0.0000 9999 300 0 0
2019/09/09 17:55:00 BASE 4.5276 339 5.53308 338 -0.1 100 -0.1 60 0 984.4 NA 0.0000 9999 300 0 0
2019/09/09 17:56:00 BASE 4.60404 340 5.53308 338 -0.1 100 -0.1 60 0 984.3 NA 0.0000 9999 300 0 0
2019/09/09 17:57:00 BASE 4.6158 342 5.53308 338 -0.1 100 -0.1 61 0 984.2 NA 0.0000 9999 260 0 0
2019/09/09 17:58:00 BASE 4.66872 341 5.53308 338 -0.2 100 -0.2 62 0 984.1 NA 0.0000 9999 260 0 0
2019/09/09 17:59:00 BASE 4.78044 340 5.53308 338 -0.2 100 -0.2 62 0 984.2 NA 0.0000 9999 260 0 0
2019/09/09 18:00:00 BASE 4.45704 340 5.35668 339 -0.2 100 -0.2 57 0 984.3 NA 0.0000 9999 260 0 0
2019/09/09 18:01:00 BASE 4.33356 340 5.35668 339 -0.2 100 -0.2 54 0 984.2 NA 0.0000 9999 260 0 0
2019/09/09 18:02:00 BASE 4.52172 340 5.3214 337 -0.2 100 -0.2 50 0 984.2 NA 0.0000 9999 260 0 0
2019/09/09 18:03:00 BASE 4.33944 340 5.3214 337 -0.2 100 -0.2 50 0 984.3 NA 0.0000 9999 260 0 0
2019/09/09 18:04:00 BASE 4.28652 340 5.3214 337 -0.2 100 -0.2 50 0 984.1 NA 0.0000 9999 260 0 0
2019/09/09 18:05:00 BASE 4.36296 340 5.3214 337 -0.2 100 -0.2 49 0 984.1 NA 0.0000 9999 260 0 0
2019/09/09 18:06:00 BASE 4.25712 340 5.3214 337 -0.2 100 -0.2 47 0 984.1 NA 0.0000 9999 260 0 0
2019/09/09 18:07:00 BASE 4.08072 339 5.3214 337 -0.2 100 -0.2 46 0 984.2 NA 0.0000 9999 260 0 0
2019/09/09 18:08:00 BASE 3.83964 338 5.02152 340 -0.2 100 -0.2 45 0 984.3 NA 0.0000 9999 300 0 0
2019/09/09 18:09:00 BASE 3.83964 338 5.02152 340 -0.2 100 -0.2 45 0 984.2 NA 0.0000 9999 300 0 0
2019/09/09 18:10:00 BASE 3.90432 339 4.86864 342 -0.2 100 -0.2 44 0 984.2 NA 0.0000 9999 300 0 0
2019/09/09 18:11:00 BASE 3.66912 339 4.86864 342 -0.2 100 -0.2 44 0 984.2 NA 0.0000 9999 300 0 0
2019/09/09 18:12:00 BASE 3.43392 337 4.75104 346 -0.2 100 -0.2 43 0 984.2 NA 0.0000 9999 300 0 0
2019/09/09 18:13:00 BASE 3.46332 337 4.75104 346 -0.2 100 -0.2 42 0 984.1 NA 0.0000 9999 300 0 0
2019/09/09 18:14:00 BASE 3.46332 337 4.75104 346 -0.2 100 -0.2 42 0 984.1 NA 0.0000 9999 300 0 0
2019/09/09 18:15:00 BASE 3.4104 337 4.41588 345 -0.2 100 -0.2 42 0 984.1 NA 0.0000 9999 300 0 0
2019/09/09 18:16:00 BASE 3.36924 336 4.32768 341 -0.2 100 -0.2 41 0 984.1 NA 0.0000 9999 300 0 0
2019/09/09 18:17:00 BASE 3.28692 337 4.32768 341 -0.2 100 -0.2 40 0 984.0 NA 0.0000 9999 300 0 0
2019/09/09 18:18:00 BASE 3.24576 338 4.32768 341 -0.2 100 -0.2 40 0 984.0 NA 0.0000 9999 260 0 0
2019/09/09 18:19:00 BASE 2.99292 338 4.32768 341 -0.2 100 -0.2 39 0 984.0 NA 0.0000 9999 260 0 0
2019/09/09 18:20:00 BASE 2.8224 337 4.08072 342 -0.2 100 -0.2 39 0 983.9 NA 0.0000 UP 9000 260 0
2019/09/09 18:21:00 BASE 2.87532 339 3.86904 331 -0.2 100 -0.2 39 0 983.9 NA 0.0000 UP 8000 260 0
2019/09/09 18:22:00 BASE 2.8224 338 3.86904 331 -0.2 100 -0.2 40 0 984.0 NA 0.0000 UP 8000 0 0
2019/09/09 18:23:00 BASE 2.85768 336 3.78084 342 -0.2 100 -0.2 40 0 983.9 NA 0.0000 UP 6000 0 0
2019/09/09 18:24:00 BASE 2.95764 335 3.75144 336 -0.2 100 -0.2 41 0 983.9 NA 0.0000 UP BR 5000 0
2019/09/09 18:25:00 BASE 3.12816 332 3.75144 336 -0.2 100 -0.2 40 0 983.8 NA 0.0000 UP BR 4300 0
2019/09/09 18:26:00 BASE 3.3222 332 3.75144 336 -0.2 100 -0.2 40 0 983.8 NA 0.0000 UP BR 4000 0
2019/09/09 18:27:00 BASE 3.25164 333 3.62796 332 -0.3 100 -0.3 39 0 983.8 NA 0.0000 UP BR 4400 0
2019/09/09 18:28:00 BASE 3.087 333 3.62796 332 -0.3 100 -0.3 39 0 983.9 NA 0.0000 UP BR 4500 0
2019/09/09 18:29:00 BASE 3.10464 332 3.62796 332 -0.3 100 -0.3 38 0 983.8 NA 0.0000 UP BR 4300 0
2019/09/09 18:30:00 BASE 3.1164 332 3.62796 332 -0.3 100 -0.3 37 0 983.9 NA 0.0000 UP BR 3700 0
2019/09/09 18:31:00 BASE 3.01644 335 3.62796 332 -0.3 100 -0.3 36 0 983.9 NA 0.0000 UP BR 3900 0
2019/09/09 18:32:00 BASE 2.90472 334 3.62796 332 -0.3 100 -0.3 36 0 984.0 NA 0.0000 UP BR 4700 0
2019/09/09 18:33:00 BASE 2.89296 333 3.62796 332 -0.3 100 -0.3 36 0 984.0 NA 0.0000 UP BR 3900 0
2019/09/09 18:34:00 BASE 2.94588 332 3.62796 332 -0.3 100 -0.3 36 0 984.0 NA 0.0000 UP BR 3600 0
2019/09/09 18:35:00 BASE 2.9106 330 3.62796 332 -0.4 100 -0.4 36 0 984.0 NA 0.0000 UP BR 3600 0
2019/09/09 18:36:00 BASE 2.9694 328 3.56916 334 -0.4 100 -0.4 36 0 984.0 NA 0.0000 UP BR 3500 0
2019/09/09 18:37:00 BASE 2.99292 329 3.56916 334 -0.4 100 -0.4 36 0 984.0 NA 0.0000 UP BR 3100 0
2019/09/09 18:38:00 BASE 2.8224 329 3.56916 334 -0.4 100 -0.4 37 0 984.0 NA 0.0000 UP BR 3100 0
2019/09/09 18:39:00 BASE 2.78712 330 3.35748 325 -0.4 100 -0.4 37 0 984.1 NA 0.0000 UP BR 3800 0
2019/09/09 18:40:00 BASE 2.79888 330 3.35748 325 -0.4 100 -0.4 37 0 984.1 NA 0.0000 UP BR 4100 0
2019/09/09 18:41:00 BASE 2.81064 330 3.35748 325 -0.4 100 -0.4 37 0 984.1 NA 0.0000 UP BR 3600 21360
2019/09/09 18:42:00 BASE 3.00468 331 3.48096 330 -0.5 100 -0.5 37 0 984.1 NA 0.0000 UP BR 3100 0
2019/09/09 18:43:00 BASE 3.00468 330 3.48096 330 -0.5 100 -0.5 37 0 984.2 NA 0.0000 UP BR 2500 0
2019/09/09 18:44:00 BASE 2.95764 329 3.48096 330 -0.5 100 -0.5 37 0 984.2 NA 0.0000 UP BR 2900 0
2019/09/09 18:45:00 BASE 2.9694 328 3.48096 330 -0.5 100 -0.5 37 0 984.2 NA 0.0000 UP BR 2600 0
2019/09/09 18:46:00 BASE 2.92236 329 3.48096 330 -0.5 100 -0.5 37 0 984.2 NA 0.0000 UP BR 2300 0
2019/09/09 18:47:00 BASE 2.88708 329 3.48096 330 -0.5 100 -0.5 37 0 984.3 NA 0.0000 UP BR 2100 0
2019/09/09 18:48:00 BASE 2.86944 330 3.48096 330 -0.5 100 -0.5 36 0 984.3 NA 0.0000 UP BR 2000 0
2019/09/09 18:49:00 BASE 2.90472 330 3.48096 330 -0.5 100 -0.5 36 0 984.3 NA 0.0000 UP BR 2100 0
2019/09/09 18:50:00 BASE 2.8812 330 3.48096 330 -0.5 100 -0.5 36 0 984.4 NA 0.0000 UP BR 2200 0
2019/09/09 18:51:00 BASE 3.00468 329 3.48096 330 -0.6 100 -0.6 36 0 984.3 NA 0.0000 UP BR 2100 0
2019/09/09 18:52:00 BASE 3.09288 328 3.41628 331 -0.6 100 -0.6 37 0 984.4 NA 0.0000 UP BR 1600 0
2019/09/09 18:53:00 BASE 2.98116 329 3.41628 331 -0.6 100 -0.6 37 0 984.4 NA 0.0000 UP BR 1700 0
2019/09/09 18:54:00 BASE 3.04584 330 3.41628 331 -0.6 100 -0.6 37 0 984.3 NA 0.0000 UP BR 1800 0
2019/09/09 18:55:00 BASE 3.1752 331 3.41628 331 -0.6 100 -0.6 37 0 984.3 NA 0.0000 UP BR 1800 0
2019/09/09 18:56:00 BASE 3.09288 331 3.41628 331 -0.6 100 -0.6 37 0 984.3 NA 0.0000 UP BR 1900 0
2019/09/09 18:57:00 BASE 2.98116 330 3.41628 331 -0.6 100 -0.6 37 0 984.3 NA 0.0000 UP BR 2000 0
2019/09/09 18:58:00 BASE 3.08112 332 3.41628 336 -0.6 100 -0.6 36 0 984.3 NA 0.0000 UP BR 2100 0
2019/09/09 18:59:00 BASE 3.19872 332 3.48096 326 -0.6 100 -0.6 36 0 984.2 NA 0.0000 UP BR 2100 0
2019/09/09 19:00:00 BASE 3.10464 332 3.48096 326 -0.6 100 -0.6 36 0 984.3 NA 0.0000 UP BR 2200 0
2019/09/09 19:01:00 BASE 3.1164 332 3.48096 326 -0.6 100 -0.6 36 0 984.2 NA 0.0000 UP BR 2300 0
2019/09/09 19:02:00 BASE 3.27516 331 3.59856 330 -0.6 100 -0.6 36 0 984.3 NA 0.0000 UP BR 2000 0
2019/09/09 19:03:00 BASE 3.25164 331 3.59856 330 -0.6 100 -0.6 36 0 984.4 NA 0.0000 UP BR 1500 0
2019/09/09 19:04:00 BASE 3.09876 332 3.59856 330 -0.7 100 -0.7 36 0 984.4 NA 0.0000 UP BR 1300 0
2019/09/09 19:05:00 BASE 3.0576 332 3.59856 330 -0.7 100 -0.7 35 0 984.4 NA 0.0000 UP BR 1300 0
2019/09/09 19:06:00 BASE 3.04584 332 3.59856 330 -0.7 100 -0.7 35 0 984.4 NA 0.0000 UP BR 1400 0
2019/09/09 19:07:00 BASE 3.0576 333 3.59856 330 -0.7 100 -0.7 35 0 984.3 NA 0.0000 UP BR 1700 0
2019/09/09 19:08:00 BASE 3.18696 332 3.59856 330 -0.7 100 -0.7 35 0 984.3 NA 0.0000 UP BR 1700 0
2019/09/09 19:09:00 BASE 3.25752 331 3.59856 330 -0.7 100 -0.7 34 0 984.4 NA 0.0000 UP BR 1800 0
2019/09/09 19:10:00 BASE 3.19284 331 3.59856 330 -0.7 100 -0.7 34 0 984.3 NA 0.0000 UP BR 1800 0
2019/09/09 19:11:00 BASE 3.13992 333 3.59856 330 -0.7 100 -0.7 34 0 984.3 NA 0.0000 UP BR 2000 0
2019/09/09 19:12:00 BASE 3.13404 333 3.48096 328 -0.7 100 -0.7 33 0 984.3 NA 0.0000 UP BR 2000 0
2019/09/09 19:13:00 BASE 3.09876 332 3.48096 328 -0.7 100 -0.7 33 0 984.2 NA 0.0000 UP BR 2000 0
2019/09/09 19:14:00 BASE 3.01056 332 3.48096 328 -0.7 100 -0.7 32 0 984.3 NA 0.0000 UP BR 2000 0
2019/09/09 19:15:00 BASE 2.92824 332 3.48096 328 -0.7 100 -0.7 32 0 984.3 NA 0.0000 UP BR 2100 0
2019/09/09 19:16:00 BASE 2.84592 333 3.48096 328 -0.7 100 -0.7 32 0 984.3 NA 0.0000 UP BR 2400 0
2019/09/09 19:17:00 BASE 2.90472 335 3.48096 328 -0.7 100 -0.7 31 0 984.2 NA 0.0000 UP BR 2400 0
2019/09/09 19:18:00 BASE 3.06936 333 3.48096 327 -0.8 100 -0.8 31 0 984.1 NA 0.0000 UP BR 2400 0
2019/09/09 19:19:00 BASE 3.1752 331 3.48096 331 -0.8 100 -0.8 30 0 984.1 NA 0.0000 UP BR 2400 0
2019/09/09 19:20:00 BASE 3.09288 331 3.48096 331 -0.8 100 -0.8 29 0 984.2 NA 0.0000 UP BR 2400 0
2019/09/09 19:21:00 BASE 2.89884 332 3.48096 331 -0.8 100 -0.8 29 0 984.2 NA 0.0000 UP BR 2400 0
2019/09/09 19:22:00 BASE 2.9694 332 3.48096 331 -0.8 100 -0.8 28 0 984.2 NA 0.0000 UP BR 2400 0
2019/09/09 19:23:00 BASE 3.06348 331 3.48096 331 -0.8 100 -0.8 27 0 984.3 NA 0.0000 UP BR 2300 0
2019/09/09 19:24:00 BASE 3.16344 331 3.48096 331 -0.8 100 -0.8 26 0 984.1 NA 0.0000 UP BR 2200 0
2019/09/09 19:25:00 BASE 3.1458 334 3.48096 331 -0.8 100 -0.8 26 0 984.0 NA 0.0000 UP BR 2000 0
2019/09/09 19:26:12 BASE 2.9106 337 3.48096 331 -0.8 100 -0.8 26 0 983.8 NA 0.0000 UP BR 2000 0
2019/09/09 19:27:00 BASE 3.03996 339 3.48096 344 -0.8 100 -0.8 25 0 983.6 NA 0.0000 UP BR 2000 0
2019/09/09 19:28:00 BASE 3.33984 340 3.59856 339 -0.8 100 -0.8 25 0 983.6 NA 0.0000 UP BR 2000 0
2019/09/09 19:29:00 BASE 3.35748 338 3.59856 339 -0.9 100 -0.9 25 0 983.6 NA 0.0000 UP BR 2000 0
2019/09/09 19:30:00 BASE 3.21636 337 3.59856 339 -0.9 100 -0.9 25 0 983.8 NA 0.0000 UP BR 2000 0
2019/09/09 19:31:00 BASE 3.13992 336 3.59856 339 -0.9 100 -0.9 25 0 983.8 NA 0.0000 UP BR 2000 0
2019/09/09 19:32:00 BASE 3.12816 338 3.59856 339 -0.9 100 -0.9 24 0 983.9 NA 0.0000 UP BR 2000 0
2019/09/09 19:33:00 BASE 3.09288 338 3.59856 339 -0.9 100 -0.9 24 0 983.9 NA 0.0000 UP BR 2000 0
2019/09/09 19:34:00 BASE 3.087 337 3.59856 339 -0.9 100 -0.9 23 0 983.8 NA 0.0000 UP BR 2000 0
2019/09/09 19:35:00 BASE 3.1164 340 3.59856 339 -0.9 100 -0.9 23 0 983.7 NA 0.0000 BR 2000 0 0
2019/09/09 19:36:00 BASE 3.16344 341 3.59856 339 -0.9 100 -0.9 23 0 983.7 NA 0.0000 BR 2000 0 0
2019/09/09 19:37:00 BASE 3.1752 340 3.59856 339 -0.9 100 -0.9 23 0 983.6 NA 0.0000 BR 2000 0 0
2019/09/09 19:38:00 BASE 3.10464 339 3.53976 330 -0.9 100 -0.9 23 0 983.7 NA 0.0000 BR 2000 0 0
2019/09/09 19:39:00 BASE 3.03996 338 3.48096 341 -0.9 100 -0.9 24 0 983.7 NA 0.0000 BR 2000 0 0
2019/09/09 19:40:00 BASE 2.9988 339 3.48096 341 -0.9 100 -0.9 24 0 983.7 NA 0.0000 BR 2000 0 0
2019/09/09 19:41:00 BASE 3.0576 340 3.41628 343 -0.9 100 -0.9 24 0 983.6 NA 0.0000 BR 2000 0 0
2019/09/09 19:42:00 BASE 3.09876 340 3.41628 343 -0.9 100 -0.9 24 0 983.6 NA 0.0000 BR 2000 0 0
2019/09/09 19:43:00 BASE 3.16932 340 3.48096 340 -0.9 100 -0.9 24 0 983.5 NA 0.0000 BR 2000 0 0
2019/09/09 19:44:00 BASE 3.09876 341 3.48096 340 -0.9 100 -0.9 24 0 983.7 NA 0.0000 BR 2000 0 0
2019/09/09 19:45:00 BASE 2.88708 342 3.48096 340 -0.9 100 -0.9 23 0 983.7 NA 0.0000 BR 2000 0 0
2019/09/09 19:46:00 BASE 2.98116 340 3.48096 340 -0.9 100 -0.9 23 0 983.6 NA 0.0000 BR 2000 0 0
2019/09/09 19:47:00 BASE 3.11052 340 3.48096 340 -0.9 100 -0.9 23 0 983.6 NA 0.0000 BR 2000 0 0
2019/09/09 19:48:00 BASE 3.09288 341 3.48096 340 -0.9 100 -0.9 22 0 983.6 NA 0.0000 BR 2000 0 0
2019/09/09 19:49:00 BASE 3.09876 341 3.48096 335 -0.9 100 -0.9 22 0 983.6 NA 0.0000 BR 2000 0 0
2019/09/09 19:50:00 BASE 2.94588 341 3.48096 335 -0.9 100 -0.9 22 0 983.6 NA 0.0000 BR 2000 0 0
2019/09/09 19:51:00 BASE 2.85768 340 3.48096 335 -0.9 100 -0.9 22 0 983.6 NA 0.2540 BR 2000 0 0
2019/09/09 19:52:00 BASE 2.95764 342 3.48096 335 -0.9 100 -0.9 22 0 983.6 NA 0.0000 BR 2000 0 0
2019/09/09 19:53:00 BASE 2.97528 343 3.48096 335 -0.9 100 -0.9 22 0 983.6 NA 0.0000 BR 2000 0 0
2019/09/09 19:54:00 BASE 3.03408 342 3.48096 335 -0.9 100 -0.9 21 0 983.5 NA 0.0000 BR 2000 0 0
2019/09/09 19:55:00 BASE 3.02232 341 3.48096 335 -0.9 100 -0.9 21 0 983.5 NA 0.0000 BR 2000 0 0
2019/09/09 19:56:00 BASE 2.94 339 3.48096 335 -0.9 100 -0.9 21 0 983.6 NA 0.0000 BR 2000 0 0
2019/09/09 19:57:00 BASE 2.94588 342 3.90432 347 -0.9 100 -0.9 20 0 983.5 NA 0.0000 BR 2000 0 0
2019/09/09 19:58:00 BASE 3.04584 345 3.90432 347 -0.9 100 -0.9 20 0 983.4 NA 0.0000 BR 2000 0 0
2019/09/09 19:59:00 BASE 3.09288 343 3.90432 347 -0.9 100 -0.9 20 0 983.5 NA 0.0000 BR 2000 0 0
2019/09/09 20:00:00 BASE 2.93412 343 3.90432 347 -0.9 100 -0.9 20 0 983.5 NA 0.0000 BR 2000 0 0
2019/09/09 20:01:00 BASE 2.97528 342 3.90432 347 -0.9 100 -0.9 19 0 983.4 NA 0.0000 BR 2000 0 0
2019/09/09 20:02:00 BASE 3.15756 342 3.90432 347 -0.9 100 -0.9 19 0 983.4 NA 0.0000 UP BR 2400 0
2019/09/09 20:03:00 BASE 3.16932 343 3.90432 347 -0.9 100 -0.9 18 0 983.4 NA 0.0000 UP BR 3900 0
2019/09/09 20:04:00 BASE 3.04584 343 3.90432 347 -0.9 100 -0.9 18 0 983.4 NA 0.0000 UP BR 4300 0
2019/09/09 20:05:00 BASE 2.99292 343 3.90432 347 -0.9 100 -0.9 17 0 983.3 NA 0.0000 UP BR 4700 0
2019/09/09 20:06:00 BASE 3.16344 345 3.90432 347 -0.9 100 -0.9 16 0 983.1 NA 0.0000 UP BR 4700 0
2019/09/09 20:07:00 BASE 3.18696 348 3.69264 350 -0.9 100 -0.9 16 0 983.1 NA 0.0000 UP BR 5000 0
2019/09/09 20:08:00 BASE 3.12816 348 3.69264 350 -0.9 100 -0.9 15 0 983.1 NA 0.0000 UP BR 7000 0
2019/09/09 20:09:00 BASE 3.234 348 3.69264 350 -1.0 100 -1.0 14 0 983.0 NA 0.0000 UP BR 7000 0
2019/09/09 20:10:00 BASE 3.15168 347 3.69264 350 -1.0 100 -1.0 13 0 983.1 NA 0.0000 UP BR 7000 0
2019/09/09 20:11:00 BASE 3.09876 346 3.69264 350 -1.0 100 -1.0 13 0 983.0 NA 0.0000 UP BR 7000 0
2019/09/09 20:12:00 BASE 3.27516 347 3.69264 350 -1.0 100 -1.0 12 0 983.0 NA 0.0000 UP BR 7000 0
2019/09/09 20:13:00 BASE 3.21636 344 3.69264 350 -1.0 100 -1.0 13 0 983.0 NA 0.0000 UP BR 7000 0
2019/09/09 20:14:00 BASE 3.09876 343 3.69264 350 -1.0 100 -1.0 13 0 983.1 NA 0.0000 UP BR 7000 0
2019/09/09 20:15:00 BASE 3.04584 346 3.69264 350 -1.0 100 -1.0 12 0 983.1 NA 0.0000 UP BR 7000 0
2019/09/09 20:16:00 BASE 3.07524 345 3.59856 352 -1.0 100 -1.0 12 0 983.0 NA 0.0000 UP BR 7000 0
2019/09/09 20:17:00 BASE 3.23988 344 3.75144 346 -1.0 100 -1.0 11 0 982.9 NA 0.0000 UP BR 7000 0
2019/09/09 20:18:00 BASE 3.25164 345 3.75144 346 -1.0 100 -1.0 11 0 983.0 NA 0.0000 UP BR 6000 0
2019/09/09 20:19:00 BASE 3.09288 345 3.75144 346 -1.0 100 -1.0 10 0 983.1 NA 0.0000 UP BR 5000 0
2019/09/09 20:20:00 BASE 3.1164 345 3.75144 346 -1.0 100 -1.0 10 0 983.0 NA 0.0000 UP BR 5000 0
2019/09/09 20:21:00 BASE 3.16344 345 3.75144 346 -1.0 100 -1.0 10 0 983.1 NA 0.0000 UP BR 5000 0
2019/09/09 20:22:00 BASE 3.13404 346 3.75144 346 -1.0 100 -1.0 10 0 983.0 NA 0.0000 UP BR 5000 0
2019/09/09 20:23:00 BASE 3.09288 347 3.75144 346 -1.0 100 -1.0 10 0 983.0 NA 0.0000 UP BR 5000 0
2019/09/09 20:24:00 BASE 3.01644 346 3.75144 346 -1.0 100 -1.0 10 0 983.1 NA 0.0000 UP BR 4900 0
2019/09/09 20:25:00 BASE 2.96352 343 3.75144 346 -1.0 100 -1.0 10 0 983.2 NA 0.0000 UP BR 4000 0
2019/09/09 20:26:04 BASE 2.89296 341 3.75144 346 -1.0 100 -1.0 10 0 983.1 NA 0.0000 UP BR 4800 0
2019/09/09 20:27:00 BASE 3.01644 341 3.62796 334 -1.0 100 -1.0 9 0 983.1 NA 0.0000 UP BR 4800 0
2019/09/09 20:28:00 BASE 2.95176 342 3.62796 334 -1.0 100 -1.0 9 0 983.2 NA 0.0000 UP BR 4800 0
2019/09/09 20:29:00 BASE 2.86944 343 3.62796 334 -1.0 100 -1.0 8 0 983.2 NA 0.0000 UP BR 4800 0
2019/09/09 20:30:00 BASE 3.06348 345 3.62796 334 -1.0 100 -1.0 8 0 983.1 NA 0.0000 UP BR 4800 0
2019/09/09 20:31:00 BASE 3.21048 345 3.62796 334 -1.0 100 -1.0 8 0 983.1 NA 0.0000 UP BR 4800 0
2019/09/09 20:32:00 BASE 3.32808 343 3.81024 339 -1.0 100 -1.0 8 0 983.0 NA 0.0000 UP BR 4800 0
2019/09/09 20:33:00 BASE 3.36924 344 3.81024 339 -1.0 100 -1.0 8 0 983.0 NA 0.0000 UP BR 4800 0
2019/09/09 20:34:00 BASE 3.26928 346 3.81024 339 -1.0 100 -1.0 8 0 983.0 NA 0.0000 UP BR 4800 0
2019/09/09 20:35:00 BASE 3.25164 344 3.81024 339 -1.0 100 -1.0 8 0 983.0 NA 0.0000 BR 4800 0 0
2019/09/09 20:36:00 BASE 3.12228 345 3.81024 339 -1.0 100 -1.0 8 0 983.0 NA 0.0000 BR 4800 0 0
2019/09/09 20:37:00 BASE 3.1164 345 3.81024 339 -1.0 100 -1.0 8 0 983.0 NA 0.0000 BR 4800 0 0
2019/09/09 20:38:00 BASE 3.30456 345 4.02192 348 -1.0 100 -1.0 8 0 982.9 NA 0.0000 BR 4800 0 0
2019/09/09 20:39:00 BASE 3.2634 343 4.02192 348 -1.0 100 -1.0 7 0 983.1 NA 0.0000 BR 4800 0 0
2019/09/09 20:40:00 BASE 3.3222 343 4.02192 348 -1.0 100 -1.0 7 0 983.0 NA 0.0000 BR 4800 0 0
2019/09/09 20:41:00 BASE 3.34572 342 4.02192 348 -1.0 100 -1.0 7 0 983.1 NA 0.0000 UP BR 4800 0
2019/09/09 20:42:00 BASE 3.2928 342 4.02192 348 -1.0 100 -1.0 7 0 983.1 NA 0.0000 UP BR 4800 0
2019/09/09 20:43:00 BASE 3.59856 345 4.35708 348 -1.0 100 -1.0 7 0 983.0 NA 0.0000 UP BR 4600 0
2019/09/09 20:44:00 BASE 3.98664 349 4.41588 345 -1.0 100 -1.0 7 0 982.8 NA 0.0000 UP BR 4000 0
2019/09/09 20:45:00 BASE 3.74556 347 4.41588 345 -1.0 100 -1.0 7 0 983.1 NA 0.0000 UP BR 3600 0
2019/09/09 20:46:00 BASE 3.53976 345 4.41588 345 -1.0 100 -1.0 7 0 983.0 NA 0.0000 UP BR 3900 0
2019/09/09 20:47:00 BASE 3.77496 346 4.41588 345 -1.0 100 -1.0 7 0 982.9 NA 0.0000 UP BR 4200 0
2019/09/09 20:48:00 BASE 3.86316 346 4.41588 345 -1.0 100 -1.0 7 0 983.0 NA 0.0000 UP BR 4200 0
2019/09/09 20:49:00 BASE 3.83964 347 4.41588 345 -1.0 100 -1.0 6 0 982.9 NA 0.0000 UP BR 4700 0
2019/09/09 20:50:00 BASE 3.90432 347 4.41588 345 -1.0 100 -1.0 6 0 982.8 NA 0.0000 UP BR 5000 0
2019/09/09 20:51:00 BASE 3.88668 350 4.41588 345 -1.0 100 -1.0 6 0 982.8 NA 0.0000 UP BR 6000 0
2019/09/09 20:52:00 BASE 3.83964 352 4.41588 345 -1.0 100 -1.0 6 0 982.8 NA 0.0000 UP BR 6000 0
2019/09/09 20:53:00 BASE 3.92196 351 4.41588 345 -1.0 100 -1.0 6 0 982.7 NA 0.0000 UP BR 6000 0
2019/09/09 20:54:00 BASE 3.95724 352 4.41588 354 -1.0 100 -1.0 6 0 982.7 NA 0.0000 UP BR 7000 0
2019/09/09 20:55:00 BASE 4.09836 350 4.65696 355 -1.0 100 -1.0 5 0 982.6 NA 0.0000 UP BR 7000 0
2019/09/09 20:56:00 BASE 4.03368 351 4.65696 355 -1.0 100 -1.0 5 0 982.7 NA 0.0000 UP BR 7000 0
2019/09/09 20:57:00 BASE 3.71616 353 4.65696 355 -1.0 100 -1.0 5 0 982.8 NA 0.0000 UP BR 7000 0
2019/09/09 20:58:00 BASE 3.51036 353 4.65696 355 -1.0 100 -1.0 5 0 982.8 NA 0.0000 UP BR 7000 0
2019/09/09 20:59:00 BASE 3.63972 355 4.65696 355 -1.0 100 -1.0 5 0 982.7 NA 0.0000 UP BR 7000 0
2019/09/09 21:00:00 BASE 3.92196 353 4.72164 335 -1.0 100 -1.0 5 0 982.7 NA 0.0000 UP BR 7000 0
2019/09/09 21:01:00 BASE 3.91608 354 4.72164 335 -1.0 100 -1.0 5 0 982.8 NA 0.0000 UP BR 7000 0
2019/09/09 21:02:00 BASE 3.80436 356 4.72164 335 -1.0 100 -1.0 4 0 982.8 NA 0.0000 UP BR 8000 0
2019/09/09 21:03:00 BASE 3.66912 354 4.72164 335 -1.0 100 -1.0 4 0 982.9 NA 0.0000 UP BR 8000 0
2019/09/09 21:04:00 BASE 3.65148 349 4.72164 335 -1.0 100 -1.0 3 0 983.0 NA 0.0000 UP BR 8000 0
2019/09/09 21:05:00 BASE 3.675 350 4.72164 335 -1.0 100 -1.0 3 0 983.0 NA 0.0000 UP BR 8000 0
2019/09/09 21:06:00 BASE 3.50448 356 4.72164 335 -1.0 100 -1.0 3 0 983.1 NA 0.0000 UP BR 8000 0
2019/09/09 21:07:00 BASE 3.3516 353 4.72164 335 -1.0 100 -1.0 3 0 983.1 NA 0.0000 UP BR 8000 0
2019/09/09 21:08:00 BASE 3.54564 352 4.72164 335 -1.0 100 -1.0 2 0 983.0 NA 0.0000 UP BR 8000 0
2019/09/09 21:09:00 BASE 3.6162 356 4.72164 335 -1.0 100 -1.0 2 0 983.0 NA 0.2540 UP BR 8000 0
2019/09/09 21:10:00 BASE 3.36924 0 4.35708 352 -1.0 100 -1.0 2 0 982.9 NA 0.0000 UP BR 8000 0
2019/09/09 21:11:00 BASE 3.46332 356 4.35708 352 -1.0 100 -1.0 2 0 982.9 NA 0.0000 UP BR 8000 0
2019/09/09 21:12:00 BASE 3.62208 347 4.35708 352 -1.0 100 -1.0 2 0 982.9 NA 0.0000 UP BR 8000 0
2019/09/09 21:13:00 BASE 3.528 352 4.35708 352 -1.0 100 -1.0 2 0 983.1 NA 0.0000 UP BR 8000 0
2019/09/09 21:14:00 BASE 3.48684 356 4.35708 352 -1.0 100 -1.0 2 0 983.2 NA 0.0000 UP BR 8000 0
2019/09/09 21:15:00 BASE 3.51036 357 4.35708 352 -1.0 100 -1.0 2 0 983.2 NA 0.0000 UP BR 8000 0
2019/09/09 21:16:00 BASE 3.381 357 4.35708 352 -1.0 100 -1.0 1 0 983.1 NA 0.0000 UP BR 8000 0
2019/09/09 21:17:00 BASE 3.234 357 4.35708 352 -1.0 100 -1.0 1 0 983.2 NA 0.0000 UP BR 8000 0
2019/09/09 21:18:00 BASE 3.13992 359 4.1748 1 -1.0 100 -1.0 1 0 983.1 NA 0.0000 UP BR 8000 0
2019/09/09 21:19:00 BASE 3.26928 1 4.1748 1 -1.0 100 -1.0 1 0 983.0 NA 0.0000 UP BR 8000 0
2019/09/09 21:20:00 BASE 3.36924 360 4.05132 354 -1.0 100 -1.0 1 0 982.9 NA 0.0000 UP BR 8000 0
2019/09/09 21:21:00 BASE 3.35748 358 4.05132 354 -1.0 100 -1.0 1 0 982.9 NA 0.0000 UP BR 8000 0
2019/09/09 21:22:00 BASE 3.56328 2 4.1454 2 -1.0 100 -1.0 1 0 982.6 NA 0.0000 UP BR 8000 0
2019/09/09 21:23:00 BASE 3.89256 4 4.59816 11 -1.0 100 -1.0 0 0 982.2 NA 0.0000 UP BR 9000 0
2019/09/09 21:24:00 BASE 4.35708 8 4.86864 12 -1.0 100 -1.0 1 0 981.7 NA 0.0000 UP BR 9999 0
2019/09/09 21:25:00 BASE 4.55112 11 4.86864 12 -1.0 100 -1.0 1 0 981.7 NA 0.0000 UP BR 9999 0
2019/09/09 21:26:00 BASE 4.57464 10 5.02152 10 -1.0 100 -1.0 1 0 981.8 NA 0.0000 UP BR 9999 0
2019/09/09 21:27:00 BASE 4.6746 9 5.02152 10 -1.0 100 -1.0 0 0 981.9 NA 0.2540 UP BR 9999 0
2019/09/09 21:28:00 BASE 4.78044 8 5.2626 2 -1.0 100 -1.0 0 0 981.9 NA 0.0000 UP BR 9999 0
2019/09/09 21:29:00 BASE 4.85688 7 5.2626 2 -1.0 100 -1.0 0 0 982.0 NA 0.0000 UP BR 9999 0
2019/09/09 21:30:00 BASE 4.72752 6 5.2626 2 -1.0 100 -1.0 0 0 982.0 NA 0.0000 UP BR 9999 0
2019/09/09 21:31:00 BASE 4.39824 3 5.2626 2 -1.0 100 -1.0 0 0 982.1 NA 0.0000 UP BR 9999 0
2019/09/09 21:32:00 BASE 4.34532 358 5.2626 2 -1.0 100 -1.0 0 0 982.1 NA 0.0000 UP BR 9999 0
2019/09/09 21:33:00 BASE 4.55112 0 5.2626 2 -1.0 100 -1.0 0 0 982.1 NA 0.0000 UP BR 9999 0
2019/09/09 21:34:00 BASE 4.41588 5 5.2626 2 -1.0 100 -1.0 0 0 982.1 NA 0.0000 UP BR 9999 0
2019/09/09 21:35:00 BASE 4.24536 3 5.2626 2 -1.0 100 -1.0 0 0 982.1 NA 0.0000 UP BR 9999 0
2019/09/09 21:36:00 BASE 4.38648 2 5.2626 354 -1.0 100 -1.0 0 0 981.9 NA 0.0000 UP BR 9000 0
2019/09/09 21:37:00 BASE 4.7334 6 5.2626 13 -1.0 100 -1.0 0 0 981.8 NA 0.0000 UP BR 5000 0
2019/09/09 21:38:00 BASE 4.84512 7 5.3214 4 -1.0 100 -1.0 0 0 981.6 NA 0.0000 UP BR 3300 0
2019/09/09 21:39:00 BASE 4.6746 4 5.3214 4 -1.0 100 -1.0 0 0 981.9 NA 0.0000 -SN BR 4400 0
2019/09/09 21:40:00 BASE 4.52172 3 5.3214 4 -1.0 100 -1.0 0 0 981.8 NA 0.0000 -SN BR 7000 0
2019/09/09 21:41:00 BASE 4.65108 3 5.3214 3 -1.0 100 -1.0 0 0 981.6 NA 0.0000 -SN BR 6000 0
2019/09/09 21:42:00 BASE 4.60992 3 5.3214 3 -1.0 100 -1.0 0 0 981.8 NA 0.0000 -SN BR 9999 0
2019/09/09 21:43:00 BASE 4.38648 2 5.3214 3 -1.0 100 -1.0 0 0 981.9 NA 0.0000 -SN BR 9999 0
2019/09/09 21:44:00 BASE 4.557 360 5.3214 3 -1.0 100 -1.0 0 0 981.9 NA 0.0000 -SN BR 9999 0
2019/09/09 21:45:00 BASE 4.4982 357 5.3214 3 -1.0 100 -1.0 0 0 982.0 NA 0.0000 -SN BR 9999 0
2019/09/09 21:46:00 BASE 4.36296 355 5.3214 3 -1.0 100 -1.0 0 0 982.0 NA 0.0000 -SN BR 9999 0
2019/09/09 21:47:00 BASE 4.3512 354 5.3214 3 -1.0 100 -1.0 0 0 982.1 NA 0.0000 -SN BR 9999 0
2019/09/09 21:48:00 BASE 4.34532 355 5.3214 3 -1.0 100 -1.0 0 0 982.0 NA 0.2540 -SN BR 9999 0
2019/09/09 21:49:00 BASE 4.45116 358 5.3214 3 -1.0 100 -1.0 0 0 982.0 NA 0.0000 -SN 9999 0 0
2019/09/09 21:50:00 BASE 4.36296 359 5.3214 3 -1.0 100 -1.0 0 0 982.0 NA 0.0000 -SN 9999 0 0
2019/09/09 21:51:00 BASE 4.4394 359 5.2332 2 -1.0 100 -1.0 0 0 981.9 NA 0.0000 -SN 9999 0 0
2019/09/09 21:52:00 BASE 4.4394 358 5.2332 2 -1.0 100 -1.0 0 0 982.0 NA 0.0000 -SN 9999 0 0
2019/09/09 21:53:00 BASE 4.5276 359 5.2332 2 -1.0 100 -1.0 0 0 981.8 NA 0.0000 -SN 9999 0 0
2019/09/09 21:54:00 BASE 4.5864 1 5.2332 2 -1.0 100 -1.0 0 0 981.8 NA 0.0000 -SN 9999 0 0
2019/09/09 21:55:00 BASE 4.4982 1 5.2332 2 -1.0 100 -1.0 0 0 981.7 NA 0.0000 -SN 9999 0 0
2019/09/09 21:56:00 BASE 4.95684 0 6.13872 355 -1.0 100 -1.0 0 0 981.4 NA 0.0000 -SN 9999 0 0
2019/09/09 21:57:00 BASE 5.00388 360 6.13872 355 -1.0 100 -1.0 0 0 981.6 NA 0.0000 -SN 9999 0 0
2019/09/09 21:58:00 BASE 4.84512 1 6.13872 355 -1.0 100 -1.0 0 0 981.5 NA 0.0000 -SN 9999 0 0
2019/09/09 21:59:00 BASE 5.0274 357 6.13872 355 -1.0 100 -1.0 0 0 981.3 NA 0.0000 -SN 9999 0 0
2019/09/09 22:00:00 BASE 5.12736 1 6.13872 355 -1.0 100 -1.0 0 0 981.4 NA 0.0000 -SN 9999 0 0
2019/09/09 22:01:00 BASE 4.89804 360 6.13872 355 -1.0 100 -1.0 0 0 981.6 NA 0.0000 -SN 9999 0 0
2019/09/09 22:02:00 BASE 4.42764 352 6.13872 355 -1.0 100 -1.0 0 0 981.7 NA 0.0000 -SN 9999 0 0
2019/09/09 22:03:00 BASE 4.62756 350 6.13872 355 -1.0 100 -1.0 0 0 981.4 NA 0.2540 -SN 9999 0 0
2019/09/09 22:04:00 BASE 4.80396 353 6.13872 355 -1.0 100 -1.0 0 0 981.6 NA 0.0000 9999 0 0 0
2019/09/09 22:05:00 BASE 4.77456 357 6.13872 355 -1.0 100 -1.0 0 0 981.4 NA 0.0000 9999 0 0 0
2019/09/09 22:06:00 BASE 5.02152 354 5.78004 354 -1.0 100 -1.0 0 0 981.4 NA 0.0000 9999 0 0 0
2019/09/09 22:07:00 BASE 4.94508 358 5.78004 354 -1.0 100 -1.0 0 0 981.5 NA 0.0000 9999 0 0 0
2019/09/09 22:08:00 BASE 4.97448 1 5.78004 354 -1.0 100 -1.0 0 0 981.4 NA 0.0000 9999 0 0 0
2019/09/09 22:09:00 BASE 5.09796 358 5.78004 354 -1.0 100 -1.0 0 0 981.5 NA 0.0000 9999 0 0 0
2019/09/09 22:10:00 BASE 5.04504 357 5.68596 208 -1.0 100 -1.0 0 0 981.4 NA 0.0000 9999 0 0 0
2019/09/09 22:11:00 BASE 4.87452 359 5.68596 208 -0.9 100 -0.9 0 0 981.5 NA 0.0000 9999 0 0 0
2019/09/09 22:12:00 BASE 4.73928 358 5.68596 208 -0.9 100 -0.9 0 0 981.5 NA 0.0000 9999 0 0 0
2019/09/09 22:13:00 BASE 5.0274 353 6.05052 355 -0.9 100 -0.9 0 0 981.4 NA 0.0000 9999 300 0 0
2019/09/09 22:14:00 BASE 5.12736 350 6.05052 355 -0.9 100 -0.9 0 0 981.5 NA 0.0000 9999 260 0 0
2019/09/09 22:15:00 BASE 4.83924 348 6.05052 355 -0.9 100 -0.9 0 0 981.6 NA 0.0000 9999 300 0 0
2019/09/09 22:16:00 BASE 4.53936 351 6.05052 355 -0.8 100 -0.8 0 0 981.7 NA 0.0000 9999 260 0 0
2019/09/09 22:17:00 BASE 4.4394 352 6.05052 355 -0.8 100 -0.8 0 0 981.7 NA 0.0000 9999 300 0 0
2019/09/09 22:18:00 BASE 4.75692 348 6.05052 355 -0.8 100 -0.8 0 0 981.5 NA 0.0000 9999 300 0 0
2019/09/09 22:19:00 BASE 4.86864 351 6.05052 355 -0.8 100 -0.8 0 0 981.5 NA 0.0000 9999 260 0 0
2019/09/09 22:20:00 BASE 4.74516 358 6.05052 355 -0.7 100 -0.7 0 0 981.6 NA 0.0000 9999 0 0 0
2019/09/09 22:21:00 BASE 4.53348 355 6.05052 355 -0.7 100 -0.7 0 0 981.8 NA 0.0000 9999 0 0 0
2019/09/09 22:22:00 BASE 4.42176 353 6.05052 355 -0.7 100 -0.7 0 0 981.7 NA 0.0000 9999 0 0 0
2019/09/09 22:23:00 BASE 4.45116 349 5.59776 350 -0.7 100 -0.7 0 0 981.8 NA 0.0000 9999 0 0 0
2019/09/09 22:24:00 BASE 4.48644 348 5.59776 350 -0.7 100 -0.7 0 0 981.7 NA 0.0000 9999 0 0 0
2019/09/09 22:25:00 BASE 4.56288 347 5.59776 350 -0.8 100 -0.8 0 0 981.8 NA 0.0000 9999 0 0 0
2019/09/09 22:26:03 BASE 4.66284 347 5.59776 350 -0.8 100 -0.8 0 0 981.6 NA 0.0000 9999 0 0 0
2019/09/09 22:27:00 BASE 4.33944 354 5.47428 345 -0.8 100 -0.8 0 0 982.1 NA 0.0000 9999 0 0 0
2019/09/09 22:28:00 BASE 4.10424 356 5.35668 345 -0.8 100 -0.8 0 0 981.8 NA 0.0000 UP 9999 0 0
2019/09/09 22:29:00 BASE 4.42764 355 5.35668 345 -0.7 100 -0.7 0 0 981.6 NA 0.0000 UP 9999 0 0
2019/09/09 22:30:00 BASE 4.48644 350 5.35668 345 -0.7 100 -0.7 0 0 981.8 NA 0.0000 UP 9999 0 0
2019/09/09 22:31:00 BASE 4.31004 352 5.35668 345 -0.7 100 -0.7 0 0 981.7 NA 0.0000 UP 9999 0 0
2019/09/09 22:32:00 BASE 4.36884 354 5.35668 345 -0.7 100 -0.7 0 0 981.6 NA 0.2540 UP 9999 0 0
2019/09/09 22:33:00 BASE 4.40412 354 5.35668 345 -0.7 100 -0.7 0 0 981.6 NA 0.0000 UP 9999 0 0
2019/09/09 22:34:00 BASE 4.27476 353 5.35668 345 -0.7 100 -0.7 0 0 981.5 NA 0.0000 UP 9999 0 0
2019/09/09 22:35:00 BASE 4.5276 352 5.47428 355 -0.7 100 -0.7 0 0 981.3 NA 0.0000 UP 9999 0 0
2019/09/09 22:36:00 BASE 4.72752 350 5.47428 355 -0.7 100 -0.7 0 0 981.4 NA 0.0000 UP 9999 0 0
2019/09/09 22:37:00 BASE 4.65696 351 5.59776 350 -0.7 100 -0.7 0 0 981.3 NA 0.0000 UP 9999 0 0
2019/09/09 22:38:00 BASE 4.7334 356 5.59776 350 -0.7 100 -0.7 0 0 981.3 NA 0.0000 UP 9999 0 0
2019/09/09 22:39:00 BASE 4.83924 359 5.59776 350 -0.6 100 -0.6 0 0 981.3 NA 0.0000 UP 9999 0 0
2019/09/09 22:40:00 BASE 4.62168 360 5.59776 350 -0.6 100 -0.6 0 0 981.5 NA 0.0000 UP 9999 0 0
2019/09/09 22:41:00 BASE 4.42176 0 5.59776 350 -0.6 100 -0.6 0 0 981.4 NA 0.0000 UP 9999 0 0
2019/09/09 22:42:00 BASE 4.40412 358 5.59776 350 -0.6 100 -0.6 0 0 981.4 NA 0.0000 UP 9999 0 0
2019/09/09 22:43:00 BASE 4.55112 350 5.59776 350 -0.6 100 -0.6 0 0 981.3 NA 0.0000 UP 9999 0 0
2019/09/09 22:44:00 BASE 4.704 350 5.59776 350 -0.6 100 -0.6 0 0 981.3 NA 0.0000 9999 0 0 0
2019/09/09 22:45:00 BASE 4.63344 355 5.59776 350 -0.6 100 -0.6 0 0 981.4 NA 0.0000 UP 9999 0 0
2019/09/09 22:46:00 BASE 4.66872 354 5.59776 350 -0.6 100 -0.6 0 0 981.4 NA 0.0000 UP 9999 0 0
2019/09/09 22:47:00 BASE 4.53936 350 5.53308 1 -0.6 100 -0.6 0 0 981.6 NA 0.0000 UP 9999 0 0
2019/09/09 22:48:00 BASE 4.29828 349 5.41548 3 -0.6 100 -0.6 0 0 981.7 NA 0.0000 UP 9999 0 0
2019/09/09 22:49:00 BASE 4.47468 355 5.41548 3 -0.6 100 -0.6 0 0 981.5 NA 0.0000 UP 9999 0 0
2019/09/09 22:50:00 BASE 4.4394 358 5.41548 3 -0.6 100 -0.6 0 0 981.8 NA 0.0000 UP 9999 0 0
2019/09/09 22:51:00 BASE 4.2042 353 5.41548 3 -0.6 100 -0.6 0 0 981.7 NA 0.0000 UP 9999 0 0
2019/09/09 22:52:00 BASE 4.12188 350 5.41548 3 -0.6 100 -0.6 0 0 981.8 NA 0.0000 UP 9999 0 0
2019/09/09 22:53:00 BASE 4.41 354 5.35668 346 -0.6 100 -0.6 0 0 981.4 NA 0.0000 UP 9999 0 0
2019/09/09 22:54:00 BASE 4.95096 358 5.35668 334 -0.6 100 -0.6 0 0 981.1 NA 0.0000 UP 9999 0 0
2019/09/09 22:55:00 BASE 5.2626 2 6.321 8 -0.6 100 -0.6 0 0 981.0 NA 0.0000 UP 9999 0 0
2019/09/09 22:56:00 BASE 5.0274 2 6.321 8 -0.6 100 -0.6 0 0 981.4 NA 0.0000 UP 9999 0 0
2019/09/09 22:57:00 BASE 4.9392 2 6.321 8 -0.6 100 -0.6 0 0 981.2 NA 0.0000 UP 9999 0 0
2019/09/09 22:58:00 BASE 4.94508 0 6.321 8 -0.6 100 -0.6 0 0 981.3 NA 0.2540 UP 9999 0 0
2019/09/09 22:59:00 BASE 4.65108 359 6.321 8 -0.6 100 -0.6 0 0 981.3 NA 0.0000 UP 9999 0 0
2019/09/09 23:00:00 BASE 4.704 356 6.321 8 -0.6 100 -0.6 0 0 981.2 NA 0.0000 UP 9999 0 0
2019/09/09 23:01:00 BASE 4.51584 356 6.321 8 -0.6 100 -0.6 0 0 981.4 NA 0.0000 UP 9999 0 0
2019/09/09 23:02:00 BASE 4.6452 3 6.321 8 -0.6 100 -0.6 0 0 981.1 NA 0.0000 UP 9999 0 0
2019/09/09 23:03:00 BASE 5.18616 4 6.321 8 -0.6 100 -0.6 0 0 981.0 NA 0.0000 UP 9999 0 0
2019/09/09 23:04:00 BASE 5.25084 2 6.321 8 -0.6 100 -0.6 0 0 981.2 NA 0.0000 UP 9999 0 0
2019/09/09 23:05:00 BASE 5.06268 2 5.92704 4 -0.6 100 -0.6 0 0 981.2 NA 0.0000 UP 9999 0 0
2019/09/09 23:06:00 BASE 5.19792 4 5.99172 11 -0.6 100 -0.6 0 0 981.1 NA 0.0000 UP 9999 0 0
2019/09/09 23:07:00 BASE 5.5566 7 6.13872 4 -0.6 100 -0.6 0 0 981.0 NA 0.0000 UP 9999 0 0
2019/09/09 23:08:00 BASE 5.29788 6 6.13872 4 -0.6 100 -0.6 0 0 981.3 NA 0.0000 UP 9999 0 0
2019/09/09 23:09:00 BASE 4.86276 4 6.13872 4 -0.6 100 -0.6 0 0 981.3 NA 0.0000 UP 9999 0 0
2019/09/09 23:10:00 BASE 4.9098 1 6.13872 4 -0.6 100 -0.6 0 0 981.2 NA 0.0000 UP 9999 0 0
2019/09/09 23:11:00 BASE 4.75692 1 6.13872 4 -0.6 100 -0.6 0 0 981.4 NA 0.0000 UP 9999 0 0
2019/09/09 23:12:00 BASE 4.98624 3 6.13872 34 -0.6 100 -0.6 0 0 981.0 NA 0.0000 UP 9999 0 0
2019/09/09 23:13:00 BASE 5.42136 3 6.13872 34 -0.6 100 -0.6 0 0 981.0 NA 0.0000 UP 9999 0 0
2019/09/09 23:14:00 BASE 5.16264 1 6.13872 34 -0.5 100 -0.5 0 0 981.3 NA 0.0000 UP 9999 0 0
2019/09/09 23:15:00 BASE 5.1156 358 6.13872 34 -0.5 100 -0.5 0 0 981.2 NA 0.0000 UP 9999 0 0
2019/09/09 23:16:00 BASE 5.31552 359 6.13872 34 -0.5 100 -0.5 0 0 981.1 NA 0.0000 UP 9999 0 0
2019/09/09 23:17:00 BASE 5.33316 1 6.13872 34 -0.5 100 -0.5 0 0 981.1 NA 0.0000 UP 9999 0 0
2019/09/09 23:18:00 BASE 5.48016 359 6.2034 4 -0.5 100 -0.5 0 0 981.0 NA 0.0000 9999 0 0 0
2019/09/09 23:19:00 BASE 5.45076 358 6.2034 4 -0.5 100 -0.5 0 0 981.1 NA 0.0000 9999 0 0 0
2019/09/09 23:20:00 BASE 5.4684 357 6.3798 353 -0.5 100 -0.5 0 0 980.9 NA 0.0000 9999 0 0 0
2019/09/09 23:21:00 BASE 5.54484 356 6.3798 353 -0.4 100 -0.4 0 0 981.1 NA 0.0000 9999 0 0 0
2019/09/09 23:22:00 BASE 5.27436 350 6.3798 353 -0.4 100 -0.4 0 0 981.2 NA 0.0000 9999 0 0 0
2019/09/09 23:23:00 BASE 5.31552 351 6.3798 3 -0.4 100 -0.4 0 0 981.1 NA 0.0000 9999 0 0 0
2019/09/09 23:24:00 BASE 5.39196 355 6.3798 3 -0.4 100 -0.4 0 0 981.4 NA 0.2540 9999 0 0 0
2019/09/09 23:25:00 BASE 5.1156 355 6.3798 3 -0.4 100 -0.4 0 0 981.5 NA 0.0000 UP 9999 0 0
2019/09/09 23:26:00 BASE 5.12736 360 6.3798 3 -0.4 100 -0.4 0 0 981.4 NA 0.0000 UP 9999 0 0
2019/09/09 23:27:00 BASE 5.62716 355 6.71496 354 -0.4 100 -0.4 0 0 981.1 NA 0.0000 UP 9999 0 0
2019/09/09 23:28:00 BASE 5.55072 351 6.71496 354 -0.4 100 -0.4 0 0 981.4 NA 0.0000 UP 9999 0 0
2019/09/09 23:29:00 BASE 5.25084 354 6.71496 354 -0.4 100 -0.4 0 0 981.2 NA 0.0000 UP 9999 0 0
2019/09/09 23:30:00 BASE 5.2038 355 6.71496 354 -0.4 100 -0.4 0 0 981.3 NA 0.0000 UP 9999 0 0
2019/09/09 23:31:00 BASE 5.18616 347 6.71496 354 -0.4 100 -0.4 0 0 981.3 NA 0.0000 UP 9999 0 0
2019/09/09 23:32:00 BASE 5.63304 348 6.71496 354 -0.3 100 -0.3 0 0 981.1 NA 0.0000 UP 9999 0 0
2019/09/09 23:33:00 BASE 6.00936 357 6.71496 354 -0.3 100 -0.3 0 0 981.1 NA 0.0000 UP 9999 0 0
2019/09/09 23:34:00 BASE 5.7624 356 6.71496 354 -0.3 100 -0.3 0 0 981.4 NA 0.0000 9999 0 0 0
2019/09/09 23:35:00 BASE 5.36844 354 6.71496 354 -0.3 100 -0.3 0 0 981.5 NA 0.0000 9999 0 0 0
2019/09/09 23:36:00 BASE 5.2332 354 6.71496 354 -0.3 100 -0.3 0 0 981.6 NA 0.0000 9999 0 0 0
2019/09/09 23:37:00 BASE 5.36844 353 6.56208 360 -0.3 100 -0.3 0 0 981.5 NA 0.0000 9999 0 0 0
2019/09/09 23:38:00 BASE 5.8506 352 6.98544 351 -0.3 100 -0.3 0 0 981.2 NA 0.0000 9999 0 0 0
2019/09/09 23:39:00 BASE 5.85648 354 6.98544 351 -0.3 100 -0.3 0 0 981.4 NA 0.0000 9999 0 0 0
2019/09/09 23:40:00 BASE 5.87412 350 7.2324 312 -0.3 100 -0.3 0 0 981.2 NA 0.0000 9999 0 0 0
2019/09/09 23:41:00 BASE 6.06816 347 7.2324 312 -0.3 100 -0.3 0 0 981.2 NA 0.0000 9999 0 0 0
2019/09/09 23:42:00 BASE 5.60952 350 7.2324 312 -0.3 100 -0.3 0 0 981.5 NA 0.0000 9999 0 0 0
2019/09/09 23:43:00 BASE 4.88628 349 7.2324 312 -0.3 100 -0.3 0 0 981.8 NA 0.0000 9999 0 0 0
2019/09/09 23:44:00 BASE 4.63932 350 7.2324 312 -0.3 100 -0.3 0 0 981.7 NA 0.0000 9999 0 0 0
2019/09/09 23:45:00 BASE 5.0568 350 7.2324 312 -0.3 100 -0.3 0 0 981.6 NA 0.0000 9999 0 0 0
2019/09/09 23:46:00 BASE 5.62716 349 7.2324 312 -0.3 100 -0.3 0 0 981.3 NA 0.0000 9999 0 0 0
2019/09/09 23:47:00 BASE 5.49192 349 7.2324 312 -0.3 100 -0.3 0 0 981.8 NA 0.0000 9999 0 0 0
2019/09/09 23:48:00 BASE 5.3214 346 7.2324 312 -0.3 100 -0.3 0 0 981.5 NA 0.0000 9999 260 0 0
2019/09/09 23:49:00 BASE 5.4978 344 7.2324 312 -0.3 100 -0.3 0 0 981.6 NA 0.0000 9999 0 0 0
2019/09/09 23:50:00 BASE 5.41548 345 6.62676 354 -0.3 100 -0.3 0 0 981.6 NA 0.0000 9999 0 0 0
2019/09/09 23:51:00 BASE 5.52132 345 6.62676 354 -0.3 100 -0.3 0 0 981.6 NA 0.0000 9999 0 0 0
2019/09/09 23:52:00 BASE 5.48604 345 6.62676 354 -0.3 100 -0.3 0 0 981.6 NA 0.0000 9999 0 0 0
2019/09/09 23:53:00 BASE 5.42724 346 6.62676 354 -0.4 100 -0.4 0 0 981.6 NA 0.0000 9999 0 0 0
2019/09/09 23:54:00 BASE 5.50956 340 6.62676 354 -0.4 100 -0.4 0 0 981.8 NA 0.0000 9999 0 0 0
2019/09/09 23:55:00 BASE 5.41548 336 6.62676 354 -0.4 100 -0.4 0 0 981.8 NA 0.0000 9999 0 0 0
2019/09/09 23:56:18 BASE 5.35668 340 6.2622 341 -0.4 100 -0.4 0 0 981.8 NA 0.0000 9999 0 0 0
2019/09/09 23:57:00 BASE 5.18028 342 6.2622 341 -0.4 100 -0.4 0 0 982.0 NA 0.0000 9999 0 0 0
2019/09/09 23:58:00 BASE 5.0274 344 6.2622 341 -0.4 100 -0.4 0 0 981.9 NA 0.0000 9999 0 0 0
2019/09/09 23:59:00 BASE 5.15088 343 6.2622 341 -0.4 100 -0.4 0 0 981.8 NA 0.0000 9999 0 0 0